Osage River (Missouri), Saint Thomas (06926510)

StateMissouriLatestUnknown (9110 cfs)
RiverOsage RiverRatingObservedEstimated
Updated2020-08-11 19:45 (24 minutes ago)Flood - The river is flooding. Obstacles can be treacherous or deadly. The river should be avoided at this stage for casual trips and definitely for the inexperienced. Trips should be attempted only with protective gear and equipment.Flood(none)(none)
Discharge9110 cfs (median: 5290 cfs)High - The river is high and potentially dangerous, especially for the young and / or inexperienced. Normal stream obstacles are sometimes difficult to navigate. Extended distances can be attempted, but canoe travel may not be advisable.High(none)(none)
Height5.96 feetGood - Conditions are ideal for a canoe or kayak. Boats typically will drag on fewer than one-quarter of riffles, if at all, and portages are unnecessary or rare. Normal float lengths can be attempted without a problem.Good(none)(none)
TrendFalling (rising over 24 hours)Low - River is low but can still be floated. Some riffles are okay but most come with significant dragging and might need a portage. Float lengths should be reduced to accommodate low flow, dragging, and portages.Low(none)(none)
USGSExternal icon USGS Site (External icon Google Maps)Poor - River is too low to float comfortably. Most or all riffles will drag or must be portaged and some obstacles (such as slick shelf rock) cause undue problems. Avoid the river at this stage for casual paddling trips.Poor(none)(none)

Trending Data

Plot Image

Trips for Osage River (Missouri), Saint Thomas (06926510)

DateStartEndDistanceConditionDischargeHeightFishingDetails

A total of 0 rows are displayed.

Condition Descriptions

Fishing Conditions

Fish Species

Notes

Classic Trip List

The classic River Trips application is still available for use. It is updated with the new system using a data retrofit. It is no longer maintained. The original River Trips application is no longer updated (as of 1 Dec 2016) but can be checked for errors or for the condition of the data before it was converted to the new system.

Gauge Data Table

ObservationHeightDischargeMaximum
Discharge
Minimum
Discharge
Mean
Discharge
P05P10P20P25P50
(Median)
P75P80P90P95
2020-08-11 19:45 5.96 9110 51200 (2019) 702 (2006) 9940 727 940 1240 1310 5290 14100 17900 29200 48100
2020-08-11 18:45 6.21 9830 51200 (2019) 702 (2006) 9940 727 940 1240 1310 5290 14100 17900 29200 48100
2020-08-11 17:45 6.51 10700 51200 (2019) 702 (2006) 9940 727 940 1240 1310 5290 14100 17900 29200 48100
2020-08-11 16:45 6.82 11700 51200 (2019) 702 (2006) 9940 727 940 1240 1310 5290 14100 17900 29200 48100
2020-08-11 15:45 7.14 12700 51200 (2019) 702 (2006) 9940 727 940 1240 1310 5290 14100 17900 29200 48100
2020-08-11 14:45 7.45 13700 51200 (2019) 702 (2006) 9940 727 940 1240 1310 5290 14100 17900 29200 48100
2020-08-11 13:45 7.80 15000 51200 (2019) 702 (2006) 9940 727 940 1240 1310 5290 14100 17900 29200 48100
2020-08-11 12:45 8.15 16200 51200 (2019) 702 (2006) 9940 727 940 1240 1310 5290 14100 17900 29200 48100
2020-08-11 11:45 8.48 17500 51200 (2019) 702 (2006) 9940 727 940 1240 1310 5290 14100 17900 29200 48100
2020-08-11 10:45 8.82 18800 51200 (2019) 702 (2006) 9940 727 940 1240 1310 5290 14100 17900 29200 48100
2020-08-11 09:45 9.17 20300 51200 (2019) 702 (2006) 9940 727 940 1240 1310 5290 14100 17900 29200 48100
2020-08-11 08:45 9.51 21700 51200 (2019) 702 (2006) 9940 727 940 1240 1310 5290 14100 17900 29200 48100
2020-08-11 07:45 9.80 22800 51200 (2019) 702 (2006) 9940 727 940 1240 1310 5290 14100 17900 29200 48100
2020-08-11 06:45 10.08 23800 51200 (2019) 702 (2006) 9940 727 940 1240 1310 5290 14100 17900 29200 48100
2020-08-11 05:45 10.29 24500 51200 (2019) 702 (2006) 9940 727 940 1240 1310 5290 14100 17900 29200 48100
2020-08-11 04:45 10.44 25000 51200 (2019) 702 (2006) 9940 727 940 1240 1310 5290 14100 17900 29200 48100
2020-08-11 03:45 10.41 25000 51200 (2019) 702 (2006) 9940 727 940 1240 1310 5290 14100 17900 29200 48100
2020-08-11 02:45 10.34 24700 51200 (2019) 702 (2006) 9940 727 940 1240 1310 5290 14100 17900 29200 48100
2020-08-11 01:45 10.10 23900 51200 (2019) 702 (2006) 9940 727 940 1240 1310 5290 14100 17900 29200 48100
2020-08-11 00:45 9.69 22400 51200 (2019) 702 (2006) 9940 727 940 1240 1310 5290 14100 17900 29200 48100
2020-08-10 23:45 9.15 20200 51200 (2019) 545 (1997) 10000 601 915 1180 1350 3650 12000 17700 33800 48600
2020-08-10 22:45 8.52 17600 51200 (2019) 545 (1997) 10000 601 915 1180 1350 3650 12000 17700 33800 48600
2020-08-10 21:45 7.86 15200 51200 (2019) 545 (1997) 10000 601 915 1180 1350 3650 12000 17700 33800 48600
2020-08-10 20:45 7.12 12600 51200 (2019) 545 (1997) 10000 601 915 1180 1350 3650 12000 17700 33800 48600
2020-08-10 19:45 6.39 10400 51200 (2019) 545 (1997) 10000 601 915 1180 1350 3650 12000 17700 33800 48600
2020-08-10 18:45 5.87 8850 51200 (2019) 545 (1997) 10000 601 915 1180 1350 3650 12000 17700 33800 48600
2020-08-10 17:45 5.62 8110 51200 (2019) 545 (1997) 10000 601 915 1180 1350 3650 12000 17700 33800 48600
2020-08-10 16:45 5.67 8260 51200 (2019) 545 (1997) 10000 601 915 1180 1350 3650 12000 17700 33800 48600
2020-08-10 15:45 5.90 8930 51200 (2019) 545 (1997) 10000 601 915 1180 1350 3650 12000 17700 33800 48600
2020-08-10 14:45 6.14 9630 51200 (2019) 545 (1997) 10000 601 915 1180 1350 3650 12000 17700 33800 48600
2020-08-10 13:45 6.38 10300 51200 (2019) 545 (1997) 10000 601 915 1180 1350 3650 12000 17700 33800 48600
2020-08-10 12:45 6.62 11100 51200 (2019) 545 (1997) 10000 601 915 1180 1350 3650 12000 17700 33800 48600
2020-08-10 11:45 6.87 11800 51200 (2019) 545 (1997) 10000 601 915 1180 1350 3650 12000 17700 33800 48600
2020-08-10 10:45 7.10 12600 51200 (2019) 545 (1997) 10000 601 915 1180 1350 3650 12000 17700 33800 48600
2020-08-10 09:45 7.33 13300 51200 (2019) 545 (1997) 10000 601 915 1180 1350 3650 12000 17700 33800 48600
2020-08-10 08:45 7.53 14000 51200 (2019) 545 (1997) 10000 601 915 1180 1350 3650 12000 17700 33800 48600
2020-08-10 07:45 7.68 14500 51200 (2019) 545 (1997) 10000 601 915 1180 1350 3650 12000 17700 33800 48600
2020-08-10 06:45 7.81 15000 51200 (2019) 545 (1997) 10000 601 915 1180 1350 3650 12000 17700 33800 48600
2020-08-10 05:45 7.89 15300 51200 (2019) 545 (1997) 10000 601 915 1180 1350 3650 12000 17700 33800 48600
2020-08-10 04:45 7.86 15200 51200 (2019) 545 (1997) 10000 601 915 1180 1350 3650 12000 17700 33800 48600
2020-08-10 03:45 7.70 14600 51200 (2019) 545 (1997) 10000 601 915 1180 1350 3650 12000 17700 33800 48600
2020-08-10 02:45 7.42 13600 51200 (2019) 545 (1997) 10000 601 915 1180 1350 3650 12000 17700 33800 48600
2020-08-10 01:45 6.91 12000 51200 (2019) 545 (1997) 10000 601 915 1180 1350 3650 12000 17700 33800 48600
2020-08-10 00:45 6.19 9770 51200 (2019) 545 (1997) 10000 601 915 1180 1350 3650 12000 17700 33800 48600
2020-08-09 23:45 5.24 7030 51300 (2019) 456 (1997) 10500 494 763 1290 1460 3430 15600 18000 40600 50100
2020-08-09 22:45 4.23 4220 51300 (2019) 456 (1997) 10500 494 763 1290 1460 3430 15600 18000 40600 50100
2020-08-09 21:45 3.58 2550 51300 (2019) 456 (1997) 10500 494 763 1290 1460 3430 15600 18000 40600 50100
2020-08-09 20:45 3.40 2180 51300 (2019) 456 (1997) 10500 494 763 1290 1460 3430 15600 18000 40600 50100
2020-08-09 19:45 3.38 2140 51300 (2019) 456 (1997) 10500 494 763 1290 1460 3430 15600 18000 40600 50100
2020-08-09 18:45 3.39 2160 51300 (2019) 456 (1997) 10500 494 763 1290 1460 3430 15600 18000 40600 50100
2020-08-09 17:45 3.40 2180 51300 (2019) 456 (1997) 10500 494 763 1290 1460 3430 15600 18000 40600 50100
2020-08-09 16:45 3.44 2260 51300 (2019) 456 (1997) 10500 494 763 1290 1460 3430 15600 18000 40600 50100
2020-08-09 15:45 3.46 2300 51300 (2019) 456 (1997) 10500 494 763 1290 1460 3430 15600 18000 40600 50100
2020-08-09 14:45 3.48 2340 51300 (2019) 456 (1997) 10500 494 763 1290 1460 3430 15600 18000 40600 50100
2020-08-09 13:45 3.53 2440 51300 (2019) 456 (1997) 10500 494 763 1290 1460 3430 15600 18000 40600 50100
2020-08-09 12:45 3.57 2530 51300 (2019) 456 (1997) 10500 494 763 1290 1460 3430 15600 18000 40600 50100
2020-08-09 11:45 3.62 2640 51300 (2019) 456 (1997) 10500 494 763 1290 1460 3430 15600 18000 40600 50100
2020-08-09 10:45 3.67 2760 51300 (2019) 456 (1997) 10500 494 763 1290 1460 3430 15600 18000 40600 50100
2020-08-09 09:45 3.73 2900 51300 (2019) 456 (1997) 10500 494 763 1290 1460 3430 15600 18000 40600 50100
2020-08-09 08:45 3.80 3080 51300 (2019) 456 (1997) 10500 494 763 1290 1460 3430 15600 18000 40600 50100
2020-08-09 07:45 3.87 3270 51300 (2019) 456 (1997) 10500 494 763 1290 1460 3430 15600 18000 40600 50100
2020-08-09 06:45 3.96 3510 51300 (2019) 456 (1997) 10500 494 763 1290 1460 3430 15600 18000 40600 50100
2020-08-09 05:45 4.05 3740 51300 (2019) 456 (1997) 10500 494 763 1290 1460 3430 15600 18000 40600 50100
2020-08-09 04:45 4.16 4040 51300 (2019) 456 (1997) 10500 494 763 1290 1460 3430 15600 18000 40600 50100
2020-08-09 03:45 4.29 4380 51300 (2019) 456 (1997) 10500 494 763 1290 1460 3430 15600 18000 40600 50100
2020-08-09 02:45 4.44 4790 51300 (2019) 456 (1997) 10500 494 763 1290 1460 3430 15600 18000 40600 50100
2020-08-09 01:45 4.60 5230 51300 (2019) 456 (1997) 10500 494 763 1290 1460 3430 15600 18000 40600 50100
2020-08-09 00:45 4.78 5740 51300 (2019) 456 (1997) 10500 494 763 1290 1460 3430 15600 18000 40600 50100
2020-08-08 23:45 4.97 6270 82100 (2013) 424 (1997) 12600 467 721 1240 1300 2540 17500 24700 46100 77500
2020-08-08 22:45 5.18 6860 82100 (2013) 424 (1997) 12600 467 721 1240 1300 2540 17500 24700 46100 77500
2020-08-08 21:45 5.41 7500 82100 (2013) 424 (1997) 12600 467 721 1240 1300 2540 17500 24700 46100 77500
2020-08-08 20:45 5.65 8200 82100 (2013) 424 (1997) 12600 467 721 1240 1300 2540 17500 24700 46100 77500
2020-08-08 19:45 5.92 8990 82100 (2013) 424 (1997) 12600 467 721 1240 1300 2540 17500 24700 46100 77500
2020-08-08 18:45 6.17 9710 82100 (2013) 424 (1997) 12600 467 721 1240 1300 2540 17500 24700 46100 77500
2020-08-08 17:45 6.47 10600 82100 (2013) 424 (1997) 12600 467 721 1240 1300 2540 17500 24700 46100 77500
2020-08-08 16:45 6.75 11500 82100 (2013) 424 (1997) 12600 467 721 1240 1300 2540 17500 24700 46100 77500
2020-08-08 15:45 7.05 12400 82100 (2013) 424 (1997) 12600 467 721 1240 1300 2540 17500 24700 46100 77500
2020-08-08 14:45 7.35 13400 82100 (2013) 424 (1997) 12600 467 721 1240 1300 2540 17500 24700 46100 77500
2020-08-08 13:45 7.65 14400 82100 (2013) 424 (1997) 12600 467 721 1240 1300 2540 17500 24700 46100 77500
2020-08-08 12:45 7.93 15400 82100 (2013) 424 (1997) 12600 467 721 1240 1300 2540 17500 24700 46100 77500
2020-08-08 11:45 8.27 16700 82100 (2013) 424 (1997) 12600 467 721 1240 1300 2540 17500 24700 46100 77500
2020-08-08 10:45 8.57 17800 82100 (2013) 424 (1997) 12600 467 721 1240 1300 2540 17500 24700 46100 77500
2020-08-08 09:45 8.85 18900 82100 (2013) 424 (1997) 12600 467 721 1240 1300 2540 17500 24700 46100 77500
2020-08-08 08:45 9.11 20000 82100 (2013) 424 (1997) 12600 467 721 1240 1300 2540 17500 24700 46100 77500
2020-08-08 07:45 9.33 20900 82100 (2013) 424 (1997) 12600 467 721 1240 1300 2540 17500 24700 46100 77500
2020-08-08 06:45 9.54 21800 82100 (2013) 424 (1997) 12600 467 721 1240 1300 2540 17500 24700 46100 77500
2020-08-08 05:45 9.71 22500 82100 (2013) 424 (1997) 12600 467 721 1240 1300 2540 17500 24700 46100 77500
2020-08-08 04:45 9.81 22900 82100 (2013) 424 (1997) 12600 467 721 1240 1300 2540 17500 24700 46100 77500
2020-08-08 03:45 9.80 22800 82100 (2013) 424 (1997) 12600 467 721 1240 1300 2540 17500 24700 46100 77500
2020-08-08 02:45 9.72 22500 82100 (2013) 424 (1997) 12600 467 721 1240 1300 2540 17500 24700 46100 77500
2020-08-08 01:45 9.48 21600 82100 (2013) 424 (1997) 12600 467 721 1240 1300 2540 17500 24700 46100 77500
2020-08-08 00:45 9.23 20500 82100 (2013) 424 (1997) 12600 467 721 1240 1300 2540 17500 24700 46100 77500
2020-08-07 23:45 8.93 19200 65700 (2013) 512 (1997) 12700 556 825 1030 1170 2350 19500 25900 48900 63500
2020-08-07 22:45 8.59 17900 65700 (2013) 512 (1997) 12700 556 825 1030 1170 2350 19500 25900 48900 63500
2020-08-07 21:45 8.25 16600 65700 (2013) 512 (1997) 12700 556 825 1030 1170 2350 19500 25900 48900 63500
2020-08-07 20:45 8.03 15800 65700 (2013) 512 (1997) 12700 556 825 1030 1170 2350 19500 25900 48900 63500
2020-08-07 19:45 7.96 15500 65700 (2013) 512 (1997) 12700 556 825 1030 1170 2350 19500 25900 48900 63500
2020-08-07 18:45 8.03 15800 65700 (2013) 512 (1997) 12700 556 825 1030 1170 2350 19500 25900 48900 63500
2020-08-07 17:45 8.20 16400 65700 (2013) 512 (1997) 12700 556 825 1030 1170 2350 19500 25900 48900 63500
2020-08-07 16:45 8.46 17400 65700 (2013) 512 (1997) 12700 556 825 1030 1170 2350 19500 25900 48900 63500
2020-08-07 15:45 8.76 18500 65700 (2013) 512 (1997) 12700 556 825 1030 1170 2350 19500 25900 48900 63500
2020-08-07 14:45 9.11 20000 65700 (2013) 512 (1997) 12700 556 825 1030 1170 2350 19500 25900 48900 63500
2020-08-07 13:45 9.50 21700 65700 (2013) 512 (1997) 12700 556 825 1030 1170 2350 19500 25900 48900 63500
2020-08-07 12:45 9.95 23400 65700 (2013) 512 (1997) 12700 556 825 1030 1170 2350 19500 25900 48900 63500
2020-08-07 11:45 10.40 24900 65700 (2013) 512 (1997) 12700 556 825 1030 1170 2350 19500 25900 48900 63500
2020-08-07 10:45 10.85 26500 65700 (2013) 512 (1997) 12700 556 825 1030 1170 2350 19500 25900 48900 63500
2020-08-07 09:45 11.23 27900 65700 (2013) 512 (1997) 12700 556 825 1030 1170 2350 19500 25900 48900 63500
2020-08-07 08:45 11.68 29500 65700 (2013) 512 (1997) 12700 556 825 1030 1170 2350 19500 25900 48900 63500
2020-08-07 07:45 12.03 30900 65700 (2013) 512 (1997) 12700 556 825 1030 1170 2350 19500 25900 48900 63500
2020-08-07 06:45 12.33 32000 65700 (2013) 512 (1997) 12700 556 825 1030 1170 2350 19500 25900 48900 63500
2020-08-07 05:45 12.59 33000 65700 (2013) 512 (1997) 12700 556 825 1030 1170 2350 19500 25900 48900 63500
2020-08-07 04:45 12.71 33500 65700 (2013) 512 (1997) 12700 556 825 1030 1170 2350 19500 25900 48900 63500
2020-08-07 03:45 12.78 33800 65700 (2013) 512 (1997) 12700 556 825 1030 1170 2350 19500 25900 48900 63500
2020-08-07 02:45 12.72 33500 65700 (2013) 512 (1997) 12700 556 825 1030 1170 2350 19500 25900 48900 63500
2020-08-07 01:45 12.62 33100 65700 (2013) 512 (1997) 12700 556 825 1030 1170 2350 19500 25900 48900 63500
2020-08-07 00:45 12.34 32100 65700 (2013) 512 (1997) 12700 556 825 1030 1170 2350 19500 25900 48900 63500
2020-08-06 23:45 12.29 31900 51200 (2019) 653 (1997) 11000 654 783 1230 1300 2280 21700 22900 35000 49200
2020-08-06 22:45 12.16 31400 51200 (2019) 653 (1997) 11000 654 783 1230 1300 2280 21700 22900 35000 49200
2020-08-06 21:45 11.94 30500 51200 (2019) 653 (1997) 11000 654 783 1230 1300 2280 21700 22900 35000 49200
2020-08-06 20:45 11.76 29800 51200 (2019) 653 (1997) 11000 654 783 1230 1300 2280 21700 22900 35000 49200
2020-08-06 19:45 11.56 29100 51200 (2019) 653 (1997) 11000 654 783 1230 1300 2280 21700 22900 35000 49200
2020-08-06 18:45 11.36 28300 51200 (2019) 653 (1997) 11000 654 783 1230 1300 2280 21700 22900 35000 49200
2020-08-06 17:45 11.14 27600 51200 (2019) 653 (1997) 11000 654 783 1230 1300 2280 21700 22900 35000 49200
2020-08-06 16:45 10.96 26900 51200 (2019) 653 (1997) 11000 654 783 1230 1300 2280 21700 22900 35000 49200
2020-08-06 15:45 10.80 26300 51200 (2019) 653 (1997) 11000 654 783 1230 1300 2280 21700 22900 35000 49200
2020-08-06 14:45 10.71 26000 51200 (2019) 653 (1997) 11000 654 783 1230 1300 2280 21700 22900 35000 49200
2020-08-06 13:45 10.70 26000 51200 (2019) 653 (1997) 11000 654 783 1230 1300 2280 21700 22900 35000 49200
2020-08-06 12:45 10.73 26100 51200 (2019) 653 (1997) 11000 654 783 1230 1300 2280 21700 22900 35000 49200
2020-08-06 11:45 10.88 26600 51200 (2019) 653 (1997) 11000 654 783 1230 1300 2280 21700 22900 35000 49200
2020-08-06 10:45 11.02 27100 51200 (2019) 653 (1997) 11000 654 783 1230 1300 2280 21700 22900 35000 49200
2020-08-06 09:45 11.15 27600 51200 (2019) 653 (1997) 11000 654 783 1230 1300 2280 21700 22900 35000 49200
2020-08-06 08:45 11.34 28300 51200 (2019) 653 (1997) 11000 654 783 1230 1300 2280 21700 22900 35000 49200
2020-08-06 07:45 11.53 29000 51200 (2019) 653 (1997) 11000 654 783 1230 1300 2280 21700 22900 35000 49200
2020-08-06 06:45 11.68 29500 51200 (2019) 653 (1997) 11000 654 783 1230 1300 2280 21700 22900 35000 49200
2020-08-06 05:45 11.63 29400 51200 (2019) 653 (1997) 11000 654 783 1230 1300 2280 21700 22900 35000 49200
2020-08-06 04:45 11.68 29500 51200 (2019) 653 (1997) 11000 654 783 1230 1300 2280 21700 22900 35000 49200
2020-08-06 03:45 11.51 28900 51200 (2019) 653 (1997) 11000 654 783 1230 1300 2280 21700 22900 35000 49200
2020-08-06 02:45 11.54 29000 51200 (2019) 653 (1997) 11000 654 783 1230 1300 2280 21700 22900 35000 49200
2020-08-06 01:45 11.47 28800 51200 (2019) 653 (1997) 11000 654 783 1230 1300 2280 21700 22900 35000 49200
2020-08-06 00:45 11.29 28100 51200 (2019) 653 (1997) 11000 654 783 1230 1300 2280 21700 22900 35000 49200
2020-08-05 23:45 11.10 27400 51300 (2019) 796 (2006) 10200 819 963 1110 1190 2520 15100 18800 34400 49300
2020-08-05 22:45 10.86 26500 51300 (2019) 796 (2006) 10200 819 963 1110 1190 2520 15100 18800 34400 49300
2020-08-05 21:45 10.54 25400 51300 (2019) 796 (2006) 10200 819 963 1110 1190 2520 15100 18800 34400 49300
2020-08-05 20:45 10.20 24200 51300 (2019) 796 (2006) 10200 819 963 1110 1190 2520 15100 18800 34400 49300
2020-08-05 19:45 9.81 22900 51300 (2019) 796 (2006) 10200 819 963 1110 1190 2520 15100 18800 34400 49300
2020-08-05 18:45 9.49 21600 51300 (2019) 796 (2006) 10200 819 963 1110 1190 2520 15100 18800 34400 49300
2020-08-05 17:45 9.16 20200 51300 (2019) 796 (2006) 10200 819 963 1110 1190 2520 15100 18800 34400 49300
2020-08-05 16:45 8.93 19200 51300 (2019) 796 (2006) 10200 819 963 1110 1190 2520 15100 18800 34400 49300
2020-08-05 15:45 8.84 18900 51300 (2019) 796 (2006) 10200 819 963 1110 1190 2520 15100 18800 34400 49300
2020-08-05 14:45 8.87 19000 51300 (2019) 796 (2006) 10200 819 963 1110 1190 2520 15100 18800 34400 49300
2020-08-05 13:45 9.04 19700 51300 (2019) 796 (2006) 10200 819 963 1110 1190 2520 15100 18800 34400 49300
2020-08-05 12:45 9.26 20600 51300 (2019) 796 (2006) 10200 819 963 1110 1190 2520 15100 18800 34400 49300
2020-08-05 11:45 9.58 22000 51300 (2019) 796 (2006) 10200 819 963 1110 1190 2520 15100 18800 34400 49300
2020-08-05 10:45 9.90 23200 51300 (2019) 796 (2006) 10200 819 963 1110 1190 2520 15100 18800 34400 49300
2020-08-05 09:45 10.26 24400 51300 (2019) 796 (2006) 10200 819 963 1110 1190 2520 15100 18800 34400 49300
2020-08-05 08:45 10.64 25800 51300 (2019) 796 (2006) 10200 819 963 1110 1190 2520 15100 18800 34400 49300
2020-08-05 07:45 11.00 27000 51300 (2019) 796 (2006) 10200 819 963 1110 1190 2520 15100 18800 34400 49300
2020-08-05 06:45 11.29 28100 51300 (2019) 796 (2006) 10200 819 963 1110 1190 2520 15100 18800 34400 49300
2020-08-05 05:45 11.53 29000 51300 (2019) 796 (2006) 10200 819 963 1110 1190 2520 15100 18800 34400 49300
2020-08-05 04:45 11.70 29600 51300 (2019) 796 (2006) 10200 819 963 1110 1190 2520 15100 18800 34400 49300
2020-08-05 03:45 11.71 29600 51300 (2019) 796 (2006) 10200 819 963 1110 1190 2520 15100 18800 34400 49300
2020-08-05 02:45 11.69 29600 51300 (2019) 796 (2006) 10200 819 963 1110 1190 2520 15100 18800 34400 49300
2020-08-05 01:45 11.56 29100 51300 (2019) 796 (2006) 10200 819 963 1110 1190 2520 15100 18800 34400 49300
2020-08-05 00:45 11.32 28200 51300 (2019) 796 (2006) 10200 819 963 1110 1190 2520 15100 18800 34400 49300
2020-08-04 23:45 11.05 27200 51300 (2019) 775 (1999) 10800 783 842 1040 1170 2750 15900 21700 35900 49500
2020-08-04 22:45 10.72 26000 51300 (2019) 775 (1999) 10800 783 842 1040 1170 2750 15900 21700 35900 49500
2020-08-04 21:45 10.29 24500 51300 (2019) 775 (1999) 10800 783 842 1040 1170 2750 15900 21700 35900 49500
2020-08-04 20:45 9.94 23300 51300 (2019) 775 (1999) 10800 783 842 1040 1170 2750 15900 21700 35900 49500
2020-08-04 19:45 9.54 21800 51300 (2019) 775 (1999) 10800 783 842 1040 1170 2750 15900 21700 35900 49500
2020-08-04 18:45 9.06 19800 51300 (2019) 775 (1999) 10800 783 842 1040 1170 2750 15900 21700 35900 49500
2020-08-04 17:45 8.69 18300 51300 (2019) 775 (1999) 10800 783 842 1040 1170 2750 15900 21700 35900 49500
2020-08-04 16:45 8.39 17100 51300 (2019) 775 (1999) 10800 783 842 1040 1170 2750 15900 21700 35900 49500
2020-08-04 15:45 8.16 16300 51300 (2019) 775 (1999) 10800 783 842 1040 1170 2750 15900 21700 35900 49500
2020-08-04 14:45 8.10 16000 51300 (2019) 775 (1999) 10800 783 842 1040 1170 2750 15900 21700 35900 49500
2020-08-04 13:45 8.16 16300 51300 (2019) 775 (1999) 10800 783 842 1040 1170 2750 15900 21700 35900 49500
2020-08-04 12:45 8.30 16800 51300 (2019) 775 (1999) 10800 783 842 1040 1170 2750 15900 21700 35900 49500
2020-08-04 11:45 8.51 17600 51300 (2019) 775 (1999) 10800 783 842 1040 1170 2750 15900 21700 35900 49500
2020-08-04 10:45 8.72 18400 51300 (2019) 775 (1999) 10800 783 842 1040 1170 2750 15900 21700 35900 49500
2020-08-04 09:45 8.96 19400 51300 (2019) 775 (1999) 10800 783 842 1040 1170 2750 15900 21700 35900 49500
2020-08-04 08:45 9.21 20400 51300 (2019) 775 (1999) 10800 783 842 1040 1170 2750 15900 21700 35900 49500
2020-08-04 07:45 9.43 21400 51300 (2019) 775 (1999) 10800 783 842 1040 1170 2750 15900 21700 35900 49500
2020-08-04 06:45 9.64 22200 51300 (2019) 775 (1999) 10800 783 842 1040 1170 2750 15900 21700 35900 49500
2020-08-04 05:45 9.76 22700 51300 (2019) 775 (1999) 10800 783 842 1040 1170 2750 15900 21700 35900 49500
2020-08-04 04:45 9.79 22800 51300 (2019) 775 (1999) 10800 783 842 1040 1170 2750 15900 21700 35900 49500
2020-08-04 03:45 9.73 22600 51300 (2019) 775 (1999) 10800 783 842 1040 1170 2750 15900 21700 35900 49500
2020-08-04 02:45 9.56 21900 51300 (2019) 775 (1999) 10800 783 842 1040 1170 2750 15900 21700 35900 49500
2020-08-04 01:45 9.22 20400 51300 (2019) 775 (1999) 10800 783 842 1040 1170 2750 15900 21700 35900 49500
2020-08-04 00:45 8.68 18200 51300 (2019) 775 (1999) 10800 783 842 1040 1170 2750 15900 21700 35900 49500
2020-08-03 23:45 7.92 15400 51400 (2019) 810 (1999) 11500 840 1030 1150 1390 3310 17800 21700 37700 49900
2020-08-03 22:45 7.03 12400 51400 (2019) 810 (1999) 11500 840 1030 1150 1390 3310 17800 21700 37700 49900
2020-08-03 21:45 5.98 9170 51400 (2019) 810 (1999) 11500 840 1030 1150 1390 3310 17800 21700 37700 49900
2020-08-03 20:45 4.69 5480 51400 (2019) 810 (1999) 11500 840 1030 1150 1390 3310 17800 21700 37700 49900
2020-08-03 19:45 3.51 2400 51400 (2019) 810 (1999) 11500 840 1030 1150 1390 3310 17800 21700 37700 49900
2020-08-03 18:45 3.04 1570 51400 (2019) 810 (1999) 11500 840 1030 1150 1390 3310 17800 21700 37700 49900
2020-08-03 17:45 2.99 1500 51400 (2019) 810 (1999) 11500 840 1030 1150 1390 3310 17800 21700 37700 49900
2020-08-03 16:45 3.00 1520 51400 (2019) 810 (1999) 11500 840 1030 1150 1390 3310 17800 21700 37700 49900
2020-08-03 15:45 3.03 1560 51400 (2019) 810 (1999) 11500 840 1030 1150 1390 3310 17800 21700 37700 49900
2020-08-03 14:45 3.07 1620 51400 (2019) 810 (1999) 11500 840 1030 1150 1390 3310 17800 21700 37700 49900
2020-08-03 13:45 3.10 1660 51400 (2019) 810 (1999) 11500 840 1030 1150 1390 3310 17800 21700 37700 49900
2020-08-03 12:45 3.14 1730 51400 (2019) 810 (1999) 11500 840 1030 1150 1390 3310 17800 21700 37700 49900
2020-08-03 11:45 3.19 1810 51400 (2019) 810 (1999) 11500 840 1030 1150 1390 3310 17800 21700 37700 49900
2020-08-03 10:45 3.25 1910 51400 (2019) 810 (1999) 11500 840 1030 1150 1390 3310 17800 21700 37700 49900
2020-08-03 09:45 3.30 2000 51400 (2019) 810 (1999) 11500 840 1030 1150 1390 3310 17800 21700 37700 49900
2020-08-03 08:45 3.37 2120 51400 (2019) 810 (1999) 11500 840 1030 1150 1390 3310 17800 21700 37700 49900
2020-08-03 07:45 3.43 2240 51400 (2019) 810 (1999) 11500 840 1030 1150 1390 3310 17800 21700 37700 49900
2020-08-03 06:45 3.51 2400 51400 (2019) 810 (1999) 11500 840 1030 1150 1390 3310 17800 21700 37700 49900
2020-08-03 05:45 3.59 2570 51400 (2019) 810 (1999) 11500 840 1030 1150 1390 3310 17800 21700 37700 49900
2020-08-03 04:45 3.67 2760 51400 (2019) 810 (1999) 11500 840 1030 1150 1390 3310 17800 21700 37700 49900
2020-08-03 03:45 3.75 2950 51400 (2019) 810 (1999) 11500 840 1030 1150 1390 3310 17800 21700 37700 49900
2020-08-03 02:45 3.83 3160 51400 (2019) 810 (1999) 11500 840 1030 1150 1390 3310 17800 21700 37700 49900
2020-08-03 01:45 3.91 3380 51400 (2019) 810 (1999) 11500 840 1030 1150 1390 3310 17800 21700 37700 49900
2020-08-03 00:45 3.99 3590 51400 (2019) 810 (1999) 11500 840 1030 1150 1390 3310 17800 21700 37700 49900
2020-08-02 23:45 4.07 3800 51500 (2019) 1040 (1997) 11400 1050 1130 1240 1430 3320 18300 25800 41700 50800
2020-08-02 22:45 4.12 3930 51500 (2019) 1040 (1997) 11400 1050 1130 1240 1430 3320 18300 25800 41700 50800
2020-08-02 21:45 4.10 3880 51500 (2019) 1040 (1997) 11400 1050 1130 1240 1430 3320 18300 25800 41700 50800
2020-08-02 20:45 3.95 3490 51500 (2019) 1040 (1997) 11400 1050 1130 1240 1430 3320 18300 25800 41700 50800
2020-08-02 19:45 3.79 3050 51500 (2019) 1040 (1997) 11400 1050 1130 1240 1430 3320 18300 25800 41700 50800
2020-08-02 18:45 3.66 2730 51500 (2019) 1040 (1997) 11400 1050 1130 1240 1430 3320 18300 25800 41700 50800
2020-08-02 17:45 3.59 2570 51500 (2019) 1040 (1997) 11400 1050 1130 1240 1430 3320 18300 25800 41700 50800
2020-08-02 16:45 3.64 2690 51500 (2019) 1040 (1997) 11400 1050 1130 1240 1430 3320 18300 25800 41700 50800
2020-08-02 15:45 3.69 2810 51500 (2019) 1040 (1997) 11400 1050 1130 1240 1430 3320 18300 25800 41700 50800
2020-08-02 14:45 3.73 2900 51500 (2019) 1040 (1997) 11400 1050 1130 1240 1430 3320 18300 25800 41700 50800
2020-08-02 13:45 3.77 3000 51500 (2019) 1040 (1997) 11400 1050 1130 1240 1430 3320 18300 25800 41700 50800
2020-08-02 12:45 3.81 3110 51500 (2019) 1040 (1997) 11400 1050 1130 1240 1430 3320 18300 25800 41700 50800
2020-08-02 11:45 3.83 3160 51500 (2019) 1040 (1997) 11400 1050 1130 1240 1430 3320 18300 25800 41700 50800
2020-08-02 10:45 3.85 3210 51500 (2019) 1040 (1997) 11400 1050 1130 1240 1430 3320 18300 25800 41700 50800
2020-08-02 09:45 3.88 3290 51500 (2019) 1040 (1997) 11400 1050 1130 1240 1430 3320 18300 25800 41700 50800
2020-08-02 08:45 3.89 3320 51500 (2019) 1040 (1997) 11400 1050 1130 1240 1430 3320 18300 25800 41700 50800
2020-08-02 07:45 3.91 3380 51500 (2019) 1040 (1997) 11400 1050 1130 1240 1430 3320 18300 25800 41700 50800
2020-08-02 06:45 3.94 3460 51500 (2019) 1040 (1997) 11400 1050 1130 1240 1430 3320 18300 25800 41700 50800
2020-08-02 05:45 3.97 3540 51500 (2019) 1040 (1997) 11400 1050 1130 1240 1430 3320 18300 25800 41700 50800
2020-08-02 04:45 4.00 3610 51500 (2019) 1040 (1997) 11400 1050 1130 1240 1430 3320 18300 25800 41700 50800
2020-08-02 03:45 4.04 3720 51500 (2019) 1040 (1997) 11400 1050 1130 1240 1430 3320 18300 25800 41700 50800
2020-08-02 02:45 4.09 3850 51500 (2019) 1040 (1997) 11400 1050 1130 1240 1430 3320 18300 25800 41700 50800
2020-08-02 01:45 4.15 4010 51500 (2019) 1040 (1997) 11400 1050 1130 1240 1430 3320 18300 25800 41700 50800
2020-08-02 00:45 4.21 4170 51500 (2019) 1040 (1997) 11400 1050 1130 1240 1430 3320 18300 25800 41700 50800
2020-08-01 23:45 4.29 4380 51500 (2019) 499 (2000) 11300 592 1130 1360 1380 4170 15400 24900 44800 51300
2020-08-01 22:45 4.39 4650 51500 (2019) 499 (2000) 11300 592 1130 1360 1380 4170 15400 24900 44800 51300
2020-08-01 21:45 4.50 4960 51500 (2019) 499 (2000) 11300 592 1130 1360 1380 4170 15400 24900 44800 51300
2020-08-01 20:45 4.63 5310 51500 (2019) 499 (2000) 11300 592 1130 1360 1380 4170 15400 24900 44800 51300
2020-08-01 19:45 4.77 5710 51500 (2019) 499 (2000) 11300 592 1130 1360 1380 4170 15400 24900 44800 51300
2020-08-01 18:45 4.91 6100 51500 (2019) 499 (2000) 11300 592 1130 1360 1380 4170 15400 24900 44800 51300
2020-08-01 17:45 5.09 6610 51500 (2019) 499 (2000) 11300 592 1130 1360 1380 4170 15400 24900 44800 51300
2020-08-01 16:45 5.26 7080 51500 (2019) 499 (2000) 11300 592 1130 1360 1380 4170 15400 24900 44800 51300
2020-08-01 15:45 5.46 7640 51500 (2019) 499 (2000) 11300 592 1130 1360 1380 4170 15400 24900 44800 51300
2020-08-01 14:45 5.66 8230 51500 (2019) 499 (2000) 11300 592 1130 1360 1380 4170 15400 24900 44800 51300
2020-08-01 13:45 5.85 8790 51500 (2019) 499 (2000) 11300 592 1130 1360 1380 4170 15400 24900 44800 51300
2020-08-01 12:45 6.05 9370 51500 (2019) 499 (2000) 11300 592 1130 1360 1380 4170 15400 24900 44800 51300
2020-08-01 11:45 6.25 9950 51500 (2019) 499 (2000) 11300 592 1130 1360 1380 4170 15400 24900 44800 51300
2020-08-01 10:45 6.44 10500 51500 (2019) 499 (2000) 11300 592 1130 1360 1380 4170 15400 24900 44800 51300
2020-08-01 09:45 6.61 11000 51500 (2019) 499 (2000) 11300 592 1130 1360 1380 4170 15400 24900 44800 51300
2020-08-01 08:45 6.76 11500 51500 (2019) 499 (2000) 11300 592 1130 1360 1380 4170 15400 24900 44800 51300
2020-08-01 07:45 6.86 11800 51500 (2019) 499 (2000) 11300 592 1130 1360 1380 4170 15400 24900 44800 51300
2020-08-01 06:45 6.92 12000 51500 (2019) 499 (2000) 11300 592 1130 1360 1380 4170 15400 24900 44800 51300
2020-08-01 05:45 6.96 12100 51500 (2019) 499 (2000) 11300 592 1130 1360 1380 4170 15400 24900 44800 51300
2020-08-01 04:45 6.88 11900 51500 (2019) 499 (2000) 11300 592 1130 1360 1380 4170 15400 24900 44800 51300
2020-08-01 03:45 6.73 11400 51500 (2019) 499 (2000) 11300 592 1130 1360 1380 4170 15400 24900 44800 51300
2020-08-01 02:45 6.44 10500 51500 (2019) 499 (2000) 11300 592 1130 1360 1380 4170 15400 24900 44800 51300
2020-08-01 01:45 6.08 9460 51500 (2019) 499 (2000) 11300 592 1130 1360 1380 4170 15400 24900 44800 51300
2020-08-01 00:45 5.61 8080 51500 (2019) 499 (2000) 11300 592 1130 1360 1380 4170 15400 24900 44800 51300
2020-07-31 23:45 5.16 6810 51600 (2019) 682 (2000) 11900 701 903 1340 1490 1990 20400 27900 46100 51500
2020-07-31 22:45 4.78 5740 51600 (2019) 682 (2000) 11900 701 903 1340 1490 1990 20400 27900 46100 51500
2020-07-31 21:45 4.58 5180 51600 (2019) 682 (2000) 11900 701 903 1340 1490 1990 20400 27900 46100 51500
2020-07-31 20:45 4.57 5150 51600 (2019) 682 (2000) 11900 701 903 1340 1490 1990 20400 27900 46100 51500
2020-07-31 19:45 4.69 5480 51600 (2019) 682 (2000) 11900 701 903 1340 1490 1990 20400 27900 46100 51500
2020-07-31 18:45 4.85 5940 51600 (2019) 682 (2000) 11900 701 903 1340 1490 1990 20400 27900 46100 51500
2020-07-31 17:45 5.05 6490 51600 (2019) 682 (2000) 11900 701 903 1340 1490 1990 20400 27900 46100 51500
2020-07-31 16:45 5.25 7050 51600 (2019) 682 (2000) 11900 701 903 1340 1490 1990 20400 27900 46100 51500
2020-07-31 15:45 5.46 7640 51600 (2019) 682 (2000) 11900 701 903 1340 1490 1990 20400 27900 46100 51500
2020-07-31 14:45 5.70 8350 51600 (2019) 682 (2000) 11900 701 903 1340 1490 1990 20400 27900 46100 51500
2020-07-31 13:45 5.92 8990 51600 (2019) 682 (2000) 11900 701 903 1340 1490 1990 20400 27900 46100 51500
2020-07-31 12:45 6.15 9660 51600 (2019) 682 (2000) 11900 701 903 1340 1490 1990 20400 27900 46100 51500
2020-07-31 11:45 6.38 10300 51600 (2019) 682 (2000) 11900 701 903 1340 1490 1990 20400 27900 46100 51500
2020-07-31 10:45 6.62 11100 51600 (2019) 682 (2000) 11900 701 903 1340 1490 1990 20400 27900 46100 51500
2020-07-31 09:45 6.84 11800 51600 (2019) 682 (2000) 11900 701 903 1340 1490 1990 20400 27900 46100 51500
2020-07-31 08:45 7.03 12400 51600 (2019) 682 (2000) 11900 701 903 1340 1490 1990 20400 27900 46100 51500
2020-07-31 07:45 7.18 12800 51600 (2019) 682 (2000) 11900 701 903 1340 1490 1990 20400 27900 46100 51500
2020-07-31 06:45 7.26 13100 51600 (2019) 682 (2000) 11900 701 903 1340 1490 1990 20400 27900 46100 51500
2020-07-31 05:45 7.27 13100 51600 (2019) 682 (2000) 11900 701 903 1340 1490 1990 20400 27900 46100 51500
2020-07-31 04:45 7.21 12900 51600 (2019) 682 (2000) 11900 701 903 1340 1490 1990 20400 27900 46100 51500
2020-07-31 03:45 7.11 12600 51600 (2019) 682 (2000) 11900 701 903 1340 1490 1990 20400 27900 46100 51500
2020-07-31 02:45 6.95 12100 51600 (2019) 682 (2000) 11900 701 903 1340 1490 1990 20400 27900 46100 51500
2020-07-31 01:45 6.68 11300 51600 (2019) 682 (2000) 11900 701 903 1340 1490 1990 20400 27900 46100 51500
2020-07-31 00:45 6.29 10100 51600 (2019) 682 (2000) 11900 701 903 1340 1490 1990 20400 27900 46100 51500
2020-07-30 23:45 5.76 8530 51600 (2019) 840 (2005) 13600 879 1110 1170 1200 2240 29800 33700 47000 51500
2020-07-30 22:45 5.09 6610 51600 (2019) 840 (2005) 13600 879 1110 1170 1200 2240 29800 33700 47000 51500
2020-07-30 21:45 4.63 5310 51600 (2019) 840 (2005) 13600 879 1110 1170 1200 2240 29800 33700 47000 51500
2020-07-30 20:45 4.46 4850 51600 (2019) 840 (2005) 13600 879 1110 1170 1200 2240 29800 33700 47000 51500
2020-07-30 19:45 4.45 4820 51600 (2019) 840 (2005) 13600 879 1110 1170 1200 2240 29800 33700 47000 51500
2020-07-30 18:45 4.55 5100 51600 (2019) 840 (2005) 13600 879 1110 1170 1200 2240 29800 33700 47000 51500
2020-07-30 17:45 4.72 5560 51600 (2019) 840 (2005) 13600 879 1110 1170 1200 2240 29800 33700 47000 51500
2020-07-30 16:45 4.91 6100 51600 (2019) 840 (2005) 13600 879 1110 1170 1200 2240 29800 33700 47000 51500
2020-07-30 15:45 5.11 6670 51600 (2019) 840 (2005) 13600 879 1110 1170 1200 2240 29800 33700 47000 51500
2020-07-30 14:45 5.32 7250 51600 (2019) 840 (2005) 13600 879 1110 1170 1200 2240 29800 33700 47000 51500
2020-07-30 13:45 5.53 7850 51600 (2019) 840 (2005) 13600 879 1110 1170 1200 2240 29800 33700 47000 51500
2020-07-30 12:45 5.76 8530 51600 (2019) 840 (2005) 13600 879 1110 1170 1200 2240 29800 33700 47000 51500
2020-07-30 11:45 5.91 9830 51600 (2019) 840 (2005) 13600 879 1110 1170 1200 2240 29800 33700 47000 51500
2020-07-30 10:45 6.14 10300 51600 (2019) 840 (2005) 13600 879 1110 1170 1200 2240 29800 33700 47000 51500
2020-07-30 09:45 6.35 10900 51600 (2019) 840 (2005) 13600 879 1110 1170 1200 2240 29800 33700 47000 51500
2020-07-30 08:45 6.56 11500 51600 (2019) 840 (2005) 13600 879 1110 1170 1200 2240 29800 33700 47000 51500
2020-07-30 07:45 6.73 12000 51600 (2019) 840 (2005) 13600 879 1110 1170 1200 2240 29800 33700 47000 51500
2020-07-30 06:45 6.90 12600 51600 (2019) 840 (2005) 13600 879 1110 1170 1200 2240 29800 33700 47000 51500
2020-07-30 05:45 7.04 13000 51600 (2019) 840 (2005) 13600 879 1110 1170 1200 2240 29800 33700 47000 51500
2020-07-30 04:45 7.14 13300 51600 (2019) 840 (2005) 13600 879 1110 1170 1200 2240 29800 33700 47000 51500
2020-07-30 03:45 7.17 13400 51600 (2019) 840 (2005) 13600 879 1110 1170 1200 2240 29800 33700 47000 51500
2020-07-30 02:45 7.18 13400 51600 (2019) 840 (2005) 13600 879 1110 1170 1200 2240 29800 33700 47000 51500
2020-07-30 01:45 7.06 13000 51600 (2019) 840 (2005) 13600 879 1110 1170 1200 2240 29800 33700 47000 51500
2020-07-30 00:45 6.79 12200 51600 (2019) 840 (2005) 13600 879 1110 1170 1200 2240 29800 33700 47000 51500
2020-07-29 23:45 6.38 11000 51700 (2019) 635 (2006) 12900 697 1060 1170 1230 4260 24000 27300 46300 51600
2020-07-29 22:45 5.83 9480 51700 (2019) 635 (2006) 12900 697 1060 1170 1230 4260 24000 27300 46300 51600
2020-07-29 21:45 5.25 7890 51700 (2019) 635 (2006) 12900 697 1060 1170 1230 4260 24000 27300 46300 51600
2020-07-29 20:45 4.92 7010 51700 (2019) 635 (2006) 12900 697 1060 1170 1230 4260 24000 27300 46300 51600
2020-07-29 19:45 4.96 7120 51700 (2019) 635 (2006) 12900 697 1060 1170 1230 4260 24000 27300 46300 51600
2020-07-29 18:45 5.14 7590 51700 (2019) 635 (2006) 12900 697 1060 1170 1230 4260 24000 27300 46300 51600
2020-07-29 17:45 5.36 8200 51700 (2019) 635 (2006) 12900 697 1060 1170 1230 4260 24000 27300 46300 51600
2020-07-29 16:45 5.58 8800 51700 (2019) 635 (2006) 12900 697 1060 1170 1230 4260 24000 27300 46300 51600
2020-07-29 15:45 5.83 9480 51700 (2019) 635 (2006) 12900 697 1060 1170 1230 4260 24000 27300 46300 51600
2020-07-29 14:45 6.05 10100 51700 (2019) 635 (2006) 12900 697 1060 1170 1230 4260 24000 27300 46300 51600
2020-07-29 13:45 6.29 10800 51700 (2019) 635 (2006) 12900 697 1060 1170 1230 4260 24000 27300 46300 51600
2020-07-29 12:45 6.53 11500 51700 (2019) 635 (2006) 12900 697 1060 1170 1230 4260 24000 27300 46300 51600
2020-07-29 11:45 6.75 12100 51700 (2019) 635 (2006) 12900 697 1060 1170 1230 4260 24000 27300 46300 51600
2020-07-29 10:45 6.97 12800 51700 (2019) 635 (2006) 12900 697 1060 1170 1230 4260 24000 27300 46300 51600
2020-07-29 09:45 7.17 13400 51700 (2019) 635 (2006) 12900 697 1060 1170 1230 4260 24000 27300 46300 51600
2020-07-29 08:45 7.37 14000 51700 (2019) 635 (2006) 12900 697 1060 1170 1230 4260 24000 27300 46300 51600
2020-07-29 07:45 7.52 14500 51700 (2019) 635 (2006) 12900 697 1060 1170 1230 4260 24000 27300 46300 51600
2020-07-29 06:45 7.62 14800 51700 (2019) 635 (2006) 12900 697 1060 1170 1230 4260 24000 27300 46300 51600
2020-07-29 05:45 7.69 15100 51700 (2019) 635 (2006) 12900 697 1060 1170 1230 4260 24000 27300 46300 51600
2020-07-29 04:45 7.69 15100 51700 (2019) 635 (2006) 12900 697 1060 1170 1230 4260 24000 27300 46300 51600
2020-07-29 03:45 7.55 14600 51700 (2019) 635 (2006) 12900 697 1060 1170 1230 4260 24000 27300 46300 51600
2020-07-29 02:45 7.24 13600 51700 (2019) 635 (2006) 12900 697 1060 1170 1230 4260 24000 27300 46300 51600
2020-07-29 01:45 6.75 12100 51700 (2019) 635 (2006) 12900 697 1060 1170 1230 4260 24000 27300 46300 51600
2020-07-29 00:45 6.07 10100 51700 (2019) 635 (2006) 12900 697 1060 1170 1230 4260 24000 27300 46300 51600
2020-07-28 23:45 5.18 7700 51700 (2019) 853 (2006) 12300 880 1040 1180 1380 3720 18400 27600 48800 51700
2020-07-28 22:45 4.21 5150 51700 (2019) 853 (2006) 12300 880 1040 1180 1380 3720 18400 27600 48800 51700
2020-07-28 21:45 2.98 2180 51700 (2019) 853 (2006) 12300 880 1040 1180 1380 3720 18400 27600 48800 51700
2020-07-28 20:45 3.13 2480 51700 (2019) 853 (2006) 12300 880 1040 1180 1380 3720 18400 27600 48800 51700
2020-07-28 19:45 3.21 2650 51700 (2019) 853 (2006) 12300 880 1040 1180 1380 3720 18400 27600 48800 51700
2020-07-28 18:45 3.27 2790 51700 (2019) 853 (2006) 12300 880 1040 1180 1380 3720 18400 27600 48800 51700
2020-07-28 17:45 3.32 2900 51700 (2019) 853 (2006) 12300 880 1040 1180 1380 3720 18400 27600 48800 51700
2020-07-28 16:45 3.38 3050 51700 (2019) 853 (2006) 12300 880 1040 1180 1380 3720 18400 27600 48800 51700
2020-07-28 15:45 3.46 3250 51700 (2019) 853 (2006) 12300 880 1040 1180 1380 3720 18400 27600 48800 51700
2020-07-28 14:45 3.54 3460 51700 (2019) 853 (2006) 12300 880 1040 1180 1380 3720 18400 27600 48800 51700
2020-07-28 13:45 3.61 3630 51700 (2019) 853 (2006) 12300 880 1040 1180 1380 3720 18400 27600 48800 51700
2020-07-28 12:45 3.66 3750 51700 (2019) 853 (2006) 12300 880 1040 1180 1380 3720 18400 27600 48800 51700
2020-07-28 11:45 3.70 3850 51700 (2019) 853 (2006) 12300 880 1040 1180 1380 3720 18400 27600 48800 51700
2020-07-28 10:45 3.74 3950 51700 (2019) 853 (2006) 12300 880 1040 1180 1380 3720 18400 27600 48800 51700
2020-07-28 09:45 3.75 3980 51700 (2019) 853 (2006) 12300 880 1040 1180 1380 3720 18400 27600 48800 51700
2020-07-28 08:45 3.75 3980 51700 (2019) 853 (2006) 12300 880 1040 1180 1380 3720 18400 27600 48800 51700
2020-07-28 07:45 3.73 3930 51700 (2019) 853 (2006) 12300 880 1040 1180 1380 3720 18400 27600 48800 51700
2020-07-28 06:45 3.67 3780 51700 (2019) 853 (2006) 12300 880 1040 1180 1380 3720 18400 27600 48800 51700
2020-07-28 05:45 3.57 3540 51700 (2019) 853 (2006) 12300 880 1040 1180 1380 3720 18400 27600 48800 51700
2020-07-28 04:45 3.42 3150 51700 (2019) 853 (2006) 12300 880 1040 1180 1380 3720 18400 27600 48800 51700
2020-07-28 03:45 3.22 2670 51700 (2019) 853 (2006) 12300 880 1040 1180 1380 3720 18400 27600 48800 51700
2020-07-28 02:45 3.01 2240 51700 (2019) 853 (2006) 12300 880 1040 1180 1380 3720 18400 27600 48800 51700
2020-07-28 01:45 2.82 1890 51700 (2019) 853 (2006) 12300 880 1040 1180 1380 3720 18400 27600 48800 51700
2020-07-28 00:45 2.71 1710 51700 (2019) 853 (2006) 12300 880 1040 1180 1380 3720 18400 27600 48800 51700
2020-07-27 23:45 2.66 1630 63600 (1998) 695 (2006) 13200 726 964 1170 1280 5660 12700 26900 52000 61900
2020-07-27 22:45 2.66 1630 63600 (1998) 695 (2006) 13200 726 964 1170 1280 5660 12700 26900 52000 61900
2020-07-27 21:45 2.66 1630 63600 (1998) 695 (2006) 13200 726 964 1170 1280 5660 12700 26900 52000 61900
2020-07-27 20:45 2.66 1630 63600 (1998) 695 (2006) 13200 726 964 1170 1280 5660 12700 26900 52000 61900
2020-07-27 19:45 2.66 1630 63600 (1998) 695 (2006) 13200 726 964 1170 1280 5660 12700 26900 52000 61900
2020-07-27 18:45 2.66 1630 63600 (1998) 695 (2006) 13200 726 964 1170 1280 5660 12700 26900 52000 61900
2020-07-27 17:45 2.66 1630 63600 (1998) 695 (2006) 13200 726 964 1170 1280 5660 12700 26900 52000 61900
2020-07-27 16:45 2.65 1620 63600 (1998) 695 (2006) 13200 726 964 1170 1280 5660 12700 26900 52000 61900
2020-07-27 15:45 2.65 1620 63600 (1998) 695 (2006) 13200 726 964 1170 1280 5660 12700 26900 52000 61900
2020-07-27 14:45 2.64 1600 63600 (1998) 695 (2006) 13200 726 964 1170 1280 5660 12700 26900 52000 61900
2020-07-27 13:45 2.64 1600 63600 (1998) 695 (2006) 13200 726 964 1170 1280 5660 12700 26900 52000 61900
2020-07-27 12:45 2.66 1630 63600 (1998) 695 (2006) 13200 726 964 1170 1280 5660 12700 26900 52000 61900
2020-07-27 11:45 2.65 1620 63600 (1998) 695 (2006) 13200 726 964 1170 1280 5660 12700 26900 52000 61900
2020-07-27 10:45 2.64 1600 63600 (1998) 695 (2006) 13200 726 964 1170 1280 5660 12700 26900 52000 61900
2020-07-27 09:45 2.63 1590 63600 (1998) 695 (2006) 13200 726 964 1170 1280 5660 12700 26900 52000 61900
2020-07-27 08:45 2.63 1590 63600 (1998) 695 (2006) 13200 726 964 1170 1280 5660 12700 26900 52000 61900
2020-07-27 07:45 2.63 1590 63600 (1998) 695 (2006) 13200 726 964 1170 1280 5660 12700 26900 52000 61900
2020-07-27 06:45 2.63 1590 63600 (1998) 695 (2006) 13200 726 964 1170 1280 5660 12700 26900 52000 61900
2020-07-27 05:45 2.63 1590 63600 (1998) 695 (2006) 13200 726 964 1170 1280 5660 12700 26900 52000 61900
2020-07-27 04:45 2.65 1620 63600 (1998) 695 (2006) 13200 726 964 1170 1280 5660 12700 26900 52000 61900
2020-07-27 03:45 2.66 1630 63600 (1998) 695 (2006) 13200 726 964 1170 1280 5660 12700 26900 52000 61900
2020-07-27 02:45 2.68 1660 63600 (1998) 695 (2006) 13200 726 964 1170 1280 5660 12700 26900 52000 61900
2020-07-27 01:45 2.70 1700 63600 (1998) 695 (2006) 13200 726 964 1170 1280 5660 12700 26900 52000 61900
2020-07-27 00:45 2.71 1710 63600 (1998) 695 (2006) 13200 726 964 1170 1280 5660 12700 26900 52000 61900
2020-07-26 23:45 2.74 1760 51700 (2019) 905 (2003) 11900 934 1120 1210 1280 2770 16100 29500 47800 51600
2020-07-26 22:45 2.76 1790 51700 (2019) 905 (2003) 11900 934 1120 1210 1280 2770 16100 29500 47800 51600
2020-07-26 21:45 2.78 1820 51700 (2019) 905 (2003) 11900 934 1120 1210 1280 2770 16100 29500 47800 51600
2020-07-26 20:45 2.80 1860 51700 (2019) 905 (2003) 11900 934 1120 1210 1280 2770 16100 29500 47800 51600
2020-07-26 19:45 2.83 1910 51700 (2019) 905 (2003) 11900 934 1120 1210 1280 2770 16100 29500 47800 51600
2020-07-26 18:45 2.86 1960 51700 (2019) 905 (2003) 11900 934 1120 1210 1280 2770 16100 29500 47800 51600
2020-07-26 17:45 2.87 1980 51700 (2019) 905 (2003) 11900 934 1120 1210 1280 2770 16100 29500 47800 51600
2020-07-26 16:45 2.88 2000 51700 (2019) 905 (2003) 11900 934 1120 1210 1280 2770 16100 29500 47800 51600
2020-07-26 15:45 2.90 2030 51700 (2019) 905 (2003) 11900 934 1120 1210 1280 2770 16100 29500 47800 51600
2020-07-26 14:45 2.90 2030 51700 (2019) 905 (2003) 11900 934 1120 1210 1280 2770 16100 29500 47800 51600
2020-07-26 13:45 2.90 2030 51700 (2019) 905 (2003) 11900 934 1120 1210 1280 2770 16100 29500 47800 51600
2020-07-26 12:45 2.88 2000 51700 (2019) 905 (2003) 11900 934 1120 1210 1280 2770 16100 29500 47800 51600
2020-07-26 11:45 2.87 1980 51700 (2019) 905 (2003) 11900 934 1120 1210 1280 2770 16100 29500 47800 51600
2020-07-26 10:45 2.85 1940 51700 (2019) 905 (2003) 11900 934 1120 1210 1280 2770 16100 29500 47800 51600
2020-07-26 09:45 2.81 1880 51700 (2019) 905 (2003) 11900 934 1120 1210 1280 2770 16100 29500 47800 51600
2020-07-26 08:45 2.77 1810 51700 (2019) 905 (2003) 11900 934 1120 1210 1280 2770 16100 29500 47800 51600
2020-07-26 07:45 2.73 1740 51700 (2019) 905 (2003) 11900 934 1120 1210 1280 2770 16100 29500 47800 51600
2020-07-26 06:45 2.70 1700 51700 (2019) 905 (2003) 11900 934 1120 1210 1280 2770 16100 29500 47800 51600
2020-07-26 05:45 2.68 1660 51700 (2019) 905 (2003) 11900 934 1120 1210 1280 2770 16100 29500 47800 51600
2020-07-26 04:45 2.66 1630 51700 (2019) 905 (2003) 11900 934 1120 1210 1280 2770 16100 29500 47800 51600
2020-07-26 03:45 2.65 1620 51700 (2019) 905 (2003) 11900 934 1120 1210 1280 2770 16100 29500 47800 51600
2020-07-26 02:45 2.66 1630 51700 (2019) 905 (2003) 11900 934 1120 1210 1280 2770 16100 29500 47800 51600
2020-07-26 01:45 2.67 1650 51700 (2019) 905 (2003) 11900 934 1120 1210 1280 2770 16100 29500 47800 51600
2020-07-26 00:45 2.68 1660 51700 (2019) 905 (2003) 11900 934 1120 1210 1280 2770 16100 29500 47800 51600
2020-07-25 23:45 2.69 1680 51700 (2019) 665 (2000) 10000 699 902 1300 1390 3060 6350 16300 46200 51600
2020-07-25 22:45 2.70 1700 51700 (2019) 665 (2000) 10000 699 902 1300 1390 3060 6350 16300 46200 51600
2020-07-25 21:45 2.72 1730 51700 (2019) 665 (2000) 10000 699 902 1300 1390 3060 6350 16300 46200 51600
2020-07-25 20:45 2.74 1760 51700 (2019) 665 (2000) 10000 699 902 1300 1390 3060 6350 16300 46200 51600
2020-07-25 19:45 2.75 1780 51700 (2019) 665 (2000) 10000 699 902 1300 1390 3060 6350 16300 46200 51600
2020-07-25 18:45 2.77 1810 51700 (2019) 665 (2000) 10000 699 902 1300 1390 3060 6350 16300 46200 51600
2020-07-25 17:45 2.79 1840 51700 (2019) 665 (2000) 10000 699 902 1300 1390 3060 6350 16300 46200 51600
2020-07-25 16:45 2.81 1880 51700 (2019) 665 (2000) 10000 699 902 1300 1390 3060 6350 16300 46200 51600
2020-07-25 15:45 2.83 1910 51700 (2019) 665 (2000) 10000 699 902 1300 1390 3060 6350 16300 46200 51600
2020-07-25 14:45 2.85 1940 51700 (2019) 665 (2000) 10000 699 902 1300 1390 3060 6350 16300 46200 51600
2020-07-25 13:45 2.86 1960 51700 (2019) 665 (2000) 10000 699 902 1300 1390 3060 6350 16300 46200 51600
2020-07-25 12:45 2.87 1980 51700 (2019) 665 (2000) 10000 699 902 1300 1390 3060 6350 16300 46200 51600
2020-07-25 11:45 2.89 2010 51700 (2019) 665 (2000) 10000 699 902 1300 1390 3060 6350 16300 46200 51600
2020-07-25 10:45 2.90 2030 51700 (2019) 665 (2000) 10000 699 902 1300 1390 3060 6350 16300 46200 51600
2020-07-25 09:45 2.90 2030 51700 (2019) 665 (2000) 10000 699 902 1300 1390 3060 6350 16300 46200 51600
2020-07-25 08:45 2.89 2010 51700 (2019) 665 (2000) 10000 699 902 1300 1390 3060 6350 16300 46200 51600
2020-07-25 07:45 2.88 2000 51700 (2019) 665 (2000) 10000 699 902 1300 1390 3060 6350 16300 46200 51600
2020-07-25 06:45 2.87 1980 51700 (2019) 665 (2000) 10000 699 902 1300 1390 3060 6350 16300 46200 51600
2020-07-25 05:45 2.86 1960 51700 (2019) 665 (2000) 10000 699 902 1300 1390 3060 6350 16300 46200 51600
2020-07-25 04:45 2.85 1940 51700 (2019) 665 (2000) 10000 699 902 1300 1390 3060 6350 16300 46200 51600
2020-07-25 03:45 2.84 1930 51700 (2019) 665 (2000) 10000 699 902 1300 1390 3060 6350 16300 46200 51600
2020-07-25 02:45 2.83 1910 51700 (2019) 665 (2000) 10000 699 902 1300 1390 3060 6350 16300 46200 51600
2020-07-25 01:45 2.83 1910 51700 (2019) 665 (2000) 10000 699 902 1300 1390 3060 6350 16300 46200 51600
2020-07-25 00:45 2.84 1930 51700 (2019) 665 (2000) 10000 699 902 1300 1390 3060 6350 16300 46200 51600
2020-07-24 23:45 2.86 1960 52100 (2007) 480 (2000) 10900 550 1100 1480 1480 2430 9650 22400 46700 52000
2020-07-24 22:45 2.88 2000 52100 (2007) 480 (2000) 10900 550 1100 1480 1480 2430 9650 22400 46700 52000
2020-07-24 21:45 2.91 2050 52100 (2007) 480 (2000) 10900 550 1100 1480 1480 2430 9650 22400 46700 52000
2020-07-24 20:45 2.93 2090 52100 (2007) 480 (2000) 10900 550 1100 1480 1480 2430 9650 22400 46700 52000
2020-07-24 19:45 2.96 2140 52100 (2007) 480 (2000) 10900 550 1100 1480 1480 2430 9650 22400 46700 52000
2020-07-24 18:45 2.99 2200 52100 (2007) 480 (2000) 10900 550 1100 1480 1480 2430 9650 22400 46700 52000
2020-07-24 17:45 3.02 2260 52100 (2007) 480 (2000) 10900 550 1100 1480 1480 2430 9650 22400 46700 52000
2020-07-24 16:45 3.04 2300 52100 (2007) 480 (2000) 10900 550 1100 1480 1480 2430 9650 22400 46700 52000
2020-07-24 15:45 3.07 2360 52100 (2007) 480 (2000) 10900 550 1100 1480 1480 2430 9650 22400 46700 52000
2020-07-24 14:45 3.10 2420 52100 (2007) 480 (2000) 10900 550 1100 1480 1480 2430 9650 22400 46700 52000
2020-07-24 13:45 3.13 2480 52100 (2007) 480 (2000) 10900 550 1100 1480 1480 2430 9650 22400 46700 52000
2020-07-24 12:45 3.16 2540 52100 (2007) 480 (2000) 10900 550 1100 1480 1480 2430 9650 22400 46700 52000
2020-07-24 11:45 3.20 2630 52100 (2007) 480 (2000) 10900 550 1100 1480 1480 2430 9650 22400 46700 52000
2020-07-24 10:45 3.24 2720 52100 (2007) 480 (2000) 10900 550 1100 1480 1480 2430 9650 22400 46700 52000
2020-07-24 09:45 3.29 2830 52100 (2007) 480 (2000) 10900 550 1100 1480 1480 2430 9650 22400 46700 52000
2020-07-24 08:45 3.35 2980 52100 (2007) 480 (2000) 10900 550 1100 1480 1480 2430 9650 22400 46700 52000
2020-07-24 07:45 3.40 3100 52100 (2007) 480 (2000) 10900 550 1100 1480 1480 2430 9650 22400 46700 52000
2020-07-24 06:45 3.47 3280 52100 (2007) 480 (2000) 10900 550 1100 1480 1480 2430 9650 22400 46700 52000
2020-07-24 05:45 3.56 3510 52100 (2007) 480 (2000) 10900 550 1100 1480 1480 2430 9650 22400 46700 52000
2020-07-24 04:45 3.64 3700 52100 (2007) 480 (2000) 10900 550 1100 1480 1480 2430 9650 22400 46700 52000
2020-07-24 03:45 3.74 3950 52100 (2007) 480 (2000) 10900 550 1100 1480 1480 2430 9650 22400 46700 52000
2020-07-24 02:45 3.85 4230 52100 (2007) 480 (2000) 10900 550 1100 1480 1480 2430 9650 22400 46700 52000
2020-07-24 01:45 3.98 4550 52100 (2007) 480 (2000) 10900 550 1100 1480 1480 2430 9650 22400 46700 52000
2020-07-24 00:45 4.10 4870 52100 (2007) 480 (2000) 10900 550 1100 1480 1480 2430 9650 22400 46700 52000
2020-07-23 23:45 4.25 5250 51900 (2007) 653 (2000) 13100 720 1130 1380 1560 7050 16600 26900 46900 51900
2020-07-23 22:45 4.40 5640 51900 (2007) 653 (2000) 13100 720 1130 1380 1560 7050 16600 26900 46900 51900
2020-07-23 21:45 4.56 6070 51900 (2007) 653 (2000) 13100 720 1130 1380 1560 7050 16600 26900 46900 51900
2020-07-23 20:45 4.73 6510 51900 (2007) 653 (2000) 13100 720 1130 1380 1560 7050 16600 26900 46900 51900
2020-07-23 19:45 4.90 6960 51900 (2007) 653 (2000) 13100 720 1130 1380 1560 7050 16600 26900 46900 51900
2020-07-23 18:45 5.07 7400 51900 (2007) 653 (2000) 13100 720 1130 1380 1560 7050 16600 26900 46900 51900
2020-07-23 17:45 5.24 7860 51900 (2007) 653 (2000) 13100 720 1130 1380 1560 7050 16600 26900 46900 51900
2020-07-23 16:45 5.40 8310 51900 (2007) 653 (2000) 13100 720 1130 1380 1560 7050 16600 26900 46900 51900
2020-07-23 15:45 5.56 8750 51900 (2007) 653 (2000) 13100 720 1130 1380 1560 7050 16600 26900 46900 51900
2020-07-23 14:45 5.70 9130 51900 (2007) 653 (2000) 13100 720 1130 1380 1560 7050 16600 26900 46900 51900
2020-07-23 13:45 5.82 9450 51900 (2007) 653 (2000) 13100 720 1130 1380 1560 7050 16600 26900 46900 51900
2020-07-23 12:45 5.91 9700 51900 (2007) 653 (2000) 13100 720 1130 1380 1560 7050 16600 26900 46900 51900
2020-07-23 11:45 5.94 9780 51900 (2007) 653 (2000) 13100 720 1130 1380 1560 7050 16600 26900 46900 51900
2020-07-23 10:45 5.93 9750 51900 (2007) 653 (2000) 13100 720 1130 1380 1560 7050 16600 26900 46900 51900
2020-07-23 09:45 5.80 9400 51900 (2007) 653 (2000) 13100 720 1130 1380 1560 7050 16600 26900 46900 51900
2020-07-23 08:45 5.64 8960 51900 (2007) 653 (2000) 13100 720 1130 1380 1560 7050 16600 26900 46900 51900
2020-07-23 07:45 5.37 8220 51900 (2007) 653 (2000) 13100 720 1130 1380 1560 7050 16600 26900 46900 51900
2020-07-23 06:45 5.04 7320 51900 (2007) 653 (2000) 13100 720 1130 1380 1560 7050 16600 26900 46900 51900
2020-07-23 05:45 4.75 6570 51900 (2007) 653 (2000) 13100 720 1130 1380 1560 7050 16600 26900 46900 51900
2020-07-23 04:45 4.61 6200 51900 (2007) 653 (2000) 13100 720 1130 1380 1560 7050 16600 26900 46900 51900
2020-07-23 03:45 4.61 6200 51900 (2007) 653 (2000) 13100 720 1130 1380 1560 7050 16600 26900 46900 51900
2020-07-23 02:45 4.66 6330 51900 (2007) 653 (2000) 13100 720 1130 1380 1560 7050 16600 26900 46900 51900
2020-07-23 01:45 4.72 6490 51900 (2007) 653 (2000) 13100 720 1130 1380 1560 7050 16600 26900 46900 51900
2020-07-23 00:45 4.78 6650 51900 (2007) 653 (2000) 13100 720 1130 1380 1560 7050 16600 26900 46900 51900
2020-07-22 23:45 4.87 6890 51500 (2019) 1280 (2012) 13600 1300 1450 1840 2120 8020 15500 28000 47700 51500
2020-07-22 22:45 4.97 7140 51500 (2019) 1280 (2012) 13600 1300 1450 1840 2120 8020 15500 28000 47700 51500
2020-07-22 21:45 5.10 7480 51500 (2019) 1280 (2012) 13600 1300 1450 1840 2120 8020 15500 28000 47700 51500
2020-07-22 20:45 5.29 8000 51500 (2019) 1280 (2012) 13600 1300 1450 1840 2120 8020 15500 28000 47700 51500
2020-07-22 19:45 5.49 8560 51500 (2019) 1280 (2012) 13600 1300 1450 1840 2120 8020 15500 28000 47700 51500
2020-07-22 18:45 5.72 9180 51500 (2019) 1280 (2012) 13600 1300 1450 1840 2120 8020 15500 28000 47700 51500
2020-07-22 17:45 5.99 9910 51500 (2019) 1280 (2012) 13600 1300 1450 1840 2120 8020 15500 28000 47700 51500
2020-07-22 16:45 6.27 10700 51500 (2019) 1280 (2012) 13600 1300 1450 1840 2120 8020 15500 28000 47700 51500
2020-07-22 15:45 6.57 11600 51500 (2019) 1280 (2012) 13600 1300 1450 1840 2120 8020 15500 28000 47700 51500
2020-07-22 14:45 6.86 12400 51500 (2019) 1280 (2012) 13600 1300 1450 1840 2120 8020 15500 28000 47700 51500
2020-07-22 13:45 7.18 13400 51500 (2019) 1280 (2012) 13600 1300 1450 1840 2120 8020 15500 28000 47700 51500
2020-07-22 12:45 7.47 14400 51500 (2019) 1280 (2012) 13600 1300 1450 1840 2120 8020 15500 28000 47700 51500
2020-07-22 11:45 7.79 15400 51500 (2019) 1280 (2012) 13600 1300 1450 1840 2120 8020 15500 28000 47700 51500
2020-07-22 10:45 8.10 16500 51500 (2019) 1280 (2012) 13600 1300 1450 1840 2120 8020 15500 28000 47700 51500
2020-07-22 09:45 8.37 17400 51500 (2019) 1280 (2012) 13600 1300 1450 1840 2120 8020 15500 28000 47700 51500
2020-07-22 08:45 8.62 18300 51500 (2019) 1280 (2012) 13600 1300 1450 1840 2120 8020 15500 28000 47700 51500
2020-07-22 07:45 8.88 19300 51500 (2019) 1280 (2012) 13600 1300 1450 1840 2120 8020 15500 28000 47700 51500
2020-07-22 06:45 9.06 20000 51500 (2019) 1280 (2012) 13600 1300 1450 1840 2120 8020 15500 28000 47700 51500
2020-07-22 05:45 9.18 20500 51500 (2019) 1280 (2012) 13600 1300 1450 1840 2120 8020 15500 28000 47700 51500
2020-07-22 04:45 9.24 20700 51500 (2019) 1280 (2012) 13600 1300 1450 1840 2120 8020 15500 28000 47700 51500
2020-07-22 03:45 9.14 20400 51500 (2019) 1280 (2012) 13600 1300 1450 1840 2120 8020 15500 28000 47700 51500
2020-07-22 02:45 8.91 19400 51500 (2019) 1280 (2012) 13600 1300 1450 1840 2120 8020 15500 28000 47700 51500
2020-07-22 01:45 8.54 18000 51500 (2019) 1280 (2012) 13600 1300 1450 1840 2120 8020 15500 28000 47700 51500
2020-07-22 00:45 8.00 16100 51500 (2019) 1280 (2012) 13600 1300 1450 1840 2120 8020 15500 28000 47700 51500
2020-07-21 23:45 7.32 13900 51400 (2007) 1140 (2014) 15200 1170 1480 2090 2710 11200 17200 26900 50700 51300
2020-07-21 22:45 6.53 11500 51400 (2007) 1140 (2014) 15200 1170 1480 2090 2710 11200 17200 26900 50700 51300
2020-07-21 21:45 5.68 9070 51400 (2007) 1140 (2014) 15200 1170 1480 2090 2710 11200 17200 26900 50700 51300
2020-07-21 20:45 4.87 6890 51400 (2007) 1140 (2014) 15200 1170 1480 2090 2710 11200 17200 26900 50700 51300
2020-07-21 19:45 4.32 5430 51400 (2007) 1140 (2014) 15200 1170 1480 2090 2710 11200 17200 26900 50700 51300
2020-07-21 18:45 4.08 4810 51400 (2007) 1140 (2014) 15200 1170 1480 2090 2710 11200 17200 26900 50700 51300
2020-07-21 17:45 4.06 4760 51400 (2007) 1140 (2014) 15200 1170 1480 2090 2710 11200 17200 26900 50700 51300
2020-07-21 16:45 4.14 4970 51400 (2007) 1140 (2014) 15200 1170 1480 2090 2710 11200 17200 26900 50700 51300
2020-07-21 15:45 4.26 5280 51400 (2007) 1140 (2014) 15200 1170 1480 2090 2710 11200 17200 26900 50700 51300
2020-07-21 14:45 4.40 5640 51400 (2007) 1140 (2014) 15200 1170 1480 2090 2710 11200 17200 26900 50700 51300
2020-07-21 13:45 4.53 5990 51400 (2007) 1140 (2014) 15200 1170 1480 2090 2710 11200 17200 26900 50700 51300
2020-07-21 12:45 4.67 6350 51400 (2007) 1140 (2014) 15200 1170 1480 2090 2710 11200 17200 26900 50700 51300
2020-07-21 11:45 4.81 6730 51400 (2007) 1140 (2014) 15200 1170 1480 2090 2710 11200 17200 26900 50700 51300
2020-07-21 10:45 4.94 7060 51400 (2007) 1140 (2014) 15200 1170 1480 2090 2710 11200 17200 26900 50700 51300
2020-07-21 09:45 5.04 7320 51400 (2007) 1140 (2014) 15200 1170 1480 2090 2710 11200 17200 26900 50700 51300
2020-07-21 08:45 5.14 7590 51400 (2007) 1140 (2014) 15200 1170 1480 2090 2710 11200 17200 26900 50700 51300
2020-07-21 07:45 5.22 7810 51400 (2007) 1140 (2014) 15200 1170 1480 2090 2710 11200 17200 26900 50700 51300
2020-07-21 06:45 5.26 7920 51400 (2007) 1140 (2014) 15200 1170 1480 2090 2710 11200 17200 26900 50700 51300
2020-07-21 05:45 5.24 7860 51400 (2007) 1140 (2014) 15200 1170 1480 2090 2710 11200 17200 26900 50700 51300
2020-07-21 04:45 5.18 7700 51400 (2007) 1140 (2014) 15200 1170 1480 2090 2710 11200 17200 26900 50700 51300
2020-07-21 03:45 5.03 7300 51400 (2007) 1140 (2014) 15200 1170 1480 2090 2710 11200 17200 26900 50700 51300
2020-07-21 02:45 4.79 6680 51400 (2007) 1140 (2014) 15200 1170 1480 2090 2710 11200 17200 26900 50700 51300
2020-07-21 01:45 4.41 5670 51400 (2007) 1140 (2014) 15200 1170 1480 2090 2710 11200 17200 26900 50700 51300
2020-07-21 00:45 3.90 4350 51400 (2007) 1140 (2014) 15200 1170 1480 2090 2710 11200 17200 26900 50700 51300
2020-07-20 23:45 3.37 3030 53000 (2015) 1240 (2014) 15400 1330 1830 2140 2590 9680 18600 31500 51500 52800
2020-07-20 22:45 3.06 2340 53000 (2015) 1240 (2014) 15400 1330 1830 2140 2590 9680 18600 31500 51500 52800
2020-07-20 21:45 2.94 2110 53000 (2015) 1240 (2014) 15400 1330 1830 2140 2590 9680 18600 31500 51500 52800
2020-07-20 20:45 2.91 2050 53000 (2015) 1240 (2014) 15400 1330 1830 2140 2590 9680 18600 31500 51500 52800
2020-07-20 19:45 2.91 2050 53000 (2015) 1240 (2014) 15400 1330 1830 2140 2590 9680 18600 31500 51500 52800
2020-07-20 18:45 2.91 2050 53000 (2015) 1240 (2014) 15400 1330 1830 2140 2590 9680 18600 31500 51500 52800
2020-07-20 17:45 2.91 2050 53000 (2015) 1240 (2014) 15400 1330 1830 2140 2590 9680 18600 31500 51500 52800
2020-07-20 16:45 2.91 2050 53000 (2015) 1240 (2014) 15400 1330 1830 2140 2590 9680 18600 31500 51500 52800
2020-07-20 15:45 2.91 2050 53000 (2015) 1240 (2014) 15400 1330 1830 2140 2590 9680 18600 31500 51500 52800
2020-07-20 14:45 2.91 2050 53000 (2015) 1240 (2014) 15400 1330 1830 2140 2590 9680 18600 31500 51500 52800
2020-07-20 13:45 2.91 2050 53000 (2015) 1240 (2014) 15400 1330 1830 2140 2590 9680 18600 31500 51500 52800
2020-07-20 12:45 2.92 2070 53000 (2015) 1240 (2014) 15400 1330 1830 2140 2590 9680 18600 31500 51500 52800
2020-07-20 11:45 2.92 2070 53000 (2015) 1240 (2014) 15400 1330 1830 2140 2590 9680 18600 31500 51500 52800
2020-07-20 10:45 2.92 2070 53000 (2015) 1240 (2014) 15400 1330 1830 2140 2590 9680 18600 31500 51500 52800
2020-07-20 09:45 2.92 2070 53000 (2015) 1240 (2014) 15400 1330 1830 2140 2590 9680 18600 31500 51500 52800
2020-07-20 08:45 2.93 2090 53000 (2015) 1240 (2014) 15400 1330 1830 2140 2590 9680 18600 31500 51500 52800
2020-07-20 07:45 2.93 2090 53000 (2015) 1240 (2014) 15400 1330 1830 2140 2590 9680 18600 31500 51500 52800
2020-07-20 06:45 2.91 2050 53000 (2015) 1240 (2014) 15400 1330 1830 2140 2590 9680 18600 31500 51500 52800
2020-07-20 05:45 2.91 2050 53000 (2015) 1240 (2014) 15400 1330 1830 2140 2590 9680 18600 31500 51500 52800
2020-07-20 04:45 2.91 2050 53000 (2015) 1240 (2014) 15400 1330 1830 2140 2590 9680 18600 31500 51500 52800
2020-07-20 03:45 2.90 2030 53000 (2015) 1240 (2014) 15400 1330 1830 2140 2590 9680 18600 31500 51500 52800
2020-07-20 02:45 2.90 2030 53000 (2015) 1240 (2014) 15400 1330 1830 2140 2590 9680 18600 31500 51500 52800
2020-07-20 01:45 2.90 2030 53000 (2015) 1240 (2014) 15400 1330 1830 2140 2590 9680 18600 31500 51500 52800
2020-07-20 00:45 2.91 2050 53000 (2015) 1240 (2014) 15400 1330 1830 2140 2590 9680 18600 31500 51500 52800
2020-07-19 23:45 2.91 2050 52100 (2007) 1360 (1998) 15100 1360 1390 1870 2220 6900 22200 30600 50500 51900
2020-07-19 22:45 2.91 2050 52100 (2007) 1360 (1998) 15100 1360 1390 1870 2220 6900 22200 30600 50500 51900
2020-07-19 21:45 2.91 2050 52100 (2007) 1360 (1998) 15100 1360 1390 1870 2220 6900 22200 30600 50500 51900
2020-07-19 20:45 2.91 2050 52100 (2007) 1360 (1998) 15100 1360 1390 1870 2220 6900 22200 30600 50500 51900
2020-07-19 19:45 2.91 2050 52100 (2007) 1360 (1998) 15100 1360 1390 1870 2220 6900 22200 30600 50500 51900
2020-07-19 18:45 2.92 2070 52100 (2007) 1360 (1998) 15100 1360 1390 1870 2220 6900 22200 30600 50500 51900
2020-07-19 17:45 2.93 2090 52100 (2007) 1360 (1998) 15100 1360 1390 1870 2220 6900 22200 30600 50500 51900
2020-07-19 16:45 2.97 2160 52100 (2007) 1360 (1998) 15100 1360 1390 1870 2220 6900 22200 30600 50500 51900
2020-07-19 15:45 2.96 2140 52100 (2007) 1360 (1998) 15100 1360 1390 1870 2220 6900 22200 30600 50500 51900
2020-07-19 14:45 2.98 2180 52100 (2007) 1360 (1998) 15100 1360 1390 1870 2220 6900 22200 30600 50500 51900
2020-07-19 13:45 2.99 2200 52100 (2007) 1360 (1998) 15100 1360 1390 1870 2220 6900 22200 30600 50500 51900
2020-07-19 12:45 3.01 2240 52100 (2007) 1360 (1998) 15100 1360 1390 1870 2220 6900 22200 30600 50500 51900
2020-07-19 11:45 3.03 2280 52100 (2007) 1360 (1998) 15100 1360 1390 1870 2220 6900 22200 30600 50500 51900
2020-07-19 10:45 3.06 2340 52100 (2007) 1360 (1998) 15100 1360 1390 1870 2220 6900 22200 30600 50500 51900
2020-07-19 09:45 3.08 2380 52100 (2007) 1360 (1998) 15100 1360 1390 1870 2220 6900 22200 30600 50500 51900
2020-07-19 08:45 3.11 2440 52100 (2007) 1360 (1998) 15100 1360 1390 1870 2220 6900 22200 30600 50500 51900
2020-07-19 07:45 3.13 2480 52100 (2007) 1360 (1998) 15100 1360 1390 1870 2220 6900 22200 30600 50500 51900
2020-07-19 06:45 3.17 2570 52100 (2007) 1360 (1998) 15100 1360 1390 1870 2220 6900 22200 30600 50500 51900
2020-07-19 05:45 3.20 2630 52100 (2007) 1360 (1998) 15100 1360 1390 1870 2220 6900 22200 30600 50500 51900
2020-07-19 04:45 3.25 2740 52100 (2007) 1360 (1998) 15100 1360 1390 1870 2220 6900 22200 30600 50500 51900
2020-07-19 03:45 3.31 2880 52100 (2007) 1360 (1998) 15100 1360 1390 1870 2220 6900 22200 30600 50500 51900
2020-07-19 02:45 3.36 3000 52100 (2007) 1360 (1998) 15100 1360 1390 1870 2220 6900 22200 30600 50500 51900
2020-07-19 01:45 3.42 3150 52100 (2007) 1360 (1998) 15100 1360 1390 1870 2220 6900 22200 30600 50500 51900
2020-07-19 00:45 3.49 3330 52100 (2007) 1360 (1998) 15100 1360 1390 1870 2220 6900 22200 30600 50500 51900
2020-07-18 23:45 3.56 3510 52000 (2007) 1300 (2012) 16200 1360 1730 2380 2670 6310 29200 35600 50100 51800
2020-07-18 22:45 3.64 3700 52000 (2007) 1300 (2012) 16200 1360 1730 2380 2670 6310 29200 35600 50100 51800
2020-07-18 21:45 3.73 3930 52000 (2007) 1300 (2012) 16200 1360 1730 2380 2670 6310 29200 35600 50100 51800
2020-07-18 20:45 3.83 4180 52000 (2007) 1300 (2012) 16200 1360 1730 2380 2670 6310 29200 35600 50100 51800
2020-07-18 19:45 3.94 4450 52000 (2007) 1300 (2012) 16200 1360 1730 2380 2670 6310 29200 35600 50100 51800
2020-07-18 18:45 4.06 4760 52000 (2007) 1300 (2012) 16200 1360 1730 2380 2670 6310 29200 35600 50100 51800
2020-07-18 17:45 4.19 5100 52000 (2007) 1300 (2012) 16200 1360 1730 2380 2670 6310 29200 35600 50100 51800
2020-07-18 16:45 4.32 5430 52000 (2007) 1300 (2012) 16200 1360 1730 2380 2670 6310 29200 35600 50100 51800
2020-07-18 15:45 4.46 5800 52000 (2007) 1300 (2012) 16200 1360 1730 2380 2670 6310 29200 35600 50100 51800
2020-07-18 14:45 4.61 6200 52000 (2007) 1300 (2012) 16200 1360 1730 2380 2670 6310 29200 35600 50100 51800
2020-07-18 13:45 4.76 6600 52000 (2007) 1300 (2012) 16200 1360 1730 2380 2670 6310 29200 35600 50100 51800
2020-07-18 12:45 4.92 7010 52000 (2007) 1300 (2012) 16200 1360 1730 2380 2670 6310 29200 35600 50100 51800
2020-07-18 11:45 5.06 7380 52000 (2007) 1300 (2012) 16200 1360 1730 2380 2670 6310 29200 35600 50100 51800
2020-07-18 10:45 5.21 7780 52000 (2007) 1300 (2012) 16200 1360 1730 2380 2670 6310 29200 35600 50100 51800
2020-07-18 09:45 5.34 8140 52000 (2007) 1300 (2012) 16200 1360 1730 2380 2670 6310 29200 35600 50100 51800
2020-07-18 08:45 5.46 8480 52000 (2007) 1300 (2012) 16200 1360 1730 2380 2670 6310 29200 35600 50100 51800
2020-07-18 07:45 5.55 8720 52000 (2007) 1300 (2012) 16200 1360 1730 2380 2670 6310 29200 35600 50100 51800
2020-07-18 06:45 5.61 8880 52000 (2007) 1300 (2012) 16200 1360 1730 2380 2670 6310 29200 35600 50100 51800
2020-07-18 05:45 5.62 8910 52000 (2007) 1300 (2012) 16200 1360 1730 2380 2670 6310 29200 35600 50100 51800
2020-07-18 04:45 5.58 8800 52000 (2007) 1300 (2012) 16200 1360 1730 2380 2670 6310 29200 35600 50100 51800
2020-07-18 03:45 5.45 8450 52000 (2007) 1300 (2012) 16200 1360 1730 2380 2670 6310 29200 35600 50100 51800
2020-07-18 02:45 5.23 7830 52000 (2007) 1300 (2012) 16200 1360 1730 2380 2670 6310 29200 35600 50100 51800
2020-07-18 01:45 4.90 6960 52000 (2007) 1300 (2012) 16200 1360 1730 2380 2670 6310 29200 35600 50100 51800
2020-07-18 00:45 4.51 5940 52000 (2007) 1300 (2012) 16200 1360 1730 2380 2670 6310 29200 35600 50100 51800
2020-07-17 23:45 4.15 5000 51900 (2007) 1090 (2000) 15600 1090 1230 1930 2940 4820 28900 40100 50100 51700
2020-07-17 22:45 3.98 4550 51900 (2007) 1090 (2000) 15600 1090 1230 1930 2940 4820 28900 40100 50100 51700
2020-07-17 21:45 3.99 4580 51900 (2007) 1090 (2000) 15600 1090 1230 1930 2940 4820 28900 40100 50100 51700
2020-07-17 20:45 4.08 4810 51900 (2007) 1090 (2000) 15600 1090 1230 1930 2940 4820 28900 40100 50100 51700
2020-07-17 19:45 4.19 5100 51900 (2007) 1090 (2000) 15600 1090 1230 1930 2940 4820 28900 40100 50100 51700
2020-07-17 18:45 4.30 5380 51900 (2007) 1090 (2000) 15600 1090 1230 1930 2940 4820 28900 40100 50100 51700
2020-07-17 17:45 4.43 5720 51900 (2007) 1090 (2000) 15600 1090 1230 1930 2940 4820 28900 40100 50100 51700
2020-07-17 16:45 4.57 6090 51900 (2007) 1090 (2000) 15600 1090 1230 1930 2940 4820 28900 40100 50100 51700
2020-07-17 15:45 4.71 6460 51900 (2007) 1090 (2000) 15600 1090 1230 1930 2940 4820 28900 40100 50100 51700
2020-07-17 14:45 4.86 6860 51900 (2007) 1090 (2000) 15600 1090 1230 1930 2940 4820 28900 40100 50100 51700
2020-07-17 13:45 5.01 7250 51900 (2007) 1090 (2000) 15600 1090 1230 1930 2940 4820 28900 40100 50100 51700
2020-07-17 12:45 5.12 7540 51900 (2007) 1090 (2000) 15600 1090 1230 1930 2940 4820 28900 40100 50100 51700
2020-07-17 11:45 5.25 7890 51900 (2007) 1090 (2000) 15600 1090 1230 1930 2940 4820 28900 40100 50100 51700
2020-07-17 10:45 5.36 8200 51900 (2007) 1090 (2000) 15600 1090 1230 1930 2940 4820 28900 40100 50100 51700
2020-07-17 09:45 5.45 8450 51900 (2007) 1090 (2000) 15600 1090 1230 1930 2940 4820 28900 40100 50100 51700
2020-07-17 08:45 5.49 8560 51900 (2007) 1090 (2000) 15600 1090 1230 1930 2940 4820 28900 40100 50100 51700
2020-07-17 07:45 5.49 8560 51900 (2007) 1090 (2000) 15600 1090 1230 1930 2940 4820 28900 40100 50100 51700
2020-07-17 06:45 5.41 8340 51900 (2007) 1090 (2000) 15600 1090 1230 1930 2940 4820 28900 40100 50100 51700
2020-07-17 05:45 5.26 7920 51900 (2007) 1090 (2000) 15600 1090 1230 1930 2940 4820 28900 40100 50100 51700
2020-07-17 04:45 4.99 7190 51900 (2007) 1090 (2000) 15600 1090 1230 1930 2940 4820 28900 40100 50100 51700
2020-07-17 03:45 4.59 6140 51900 (2007) 1090 (2000) 15600 1090 1230 1930 2940 4820 28900 40100 50100 51700
2020-07-17 02:45 3.97 4530 51900 (2007) 1090 (2000) 15600 1090 1230 1930 2940 4820 28900 40100 50100 51700
2020-07-17 01:45 3.29 2830 51900 (2007) 1090 (2000) 15600 1090 1230 1930 2940 4820 28900 40100 50100 51700
2020-07-17 00:45 2.90 2030 51900 (2007) 1090 (2000) 15600 1090 1230 1930 2940 4820 28900 40100 50100 51700
2020-07-16 23:45 2.79 1840 52000 (2007) 1190 (2018) 17200 1250 1650 2570 3030 8750 33900 40200 50300 51800
2020-07-16 22:45 2.78 1820 52000 (2007) 1190 (2018) 17200 1250 1650 2570 3030 8750 33900 40200 50300 51800
2020-07-16 21:45 2.78 1820 52000 (2007) 1190 (2018) 17200 1250 1650 2570 3030 8750 33900 40200 50300 51800
2020-07-16 20:45 2.78 1820 52000 (2007) 1190 (2018) 17200 1250 1650 2570 3030 8750 33900 40200 50300 51800
2020-07-16 19:45 2.78 1820 52000 (2007) 1190 (2018) 17200 1250 1650 2570 3030 8750 33900 40200 50300 51800
2020-07-16 18:45 2.79 1840 52000 (2007) 1190 (2018) 17200 1250 1650 2570 3030 8750 33900 40200 50300 51800
2020-07-16 17:45 2.79 1840 52000 (2007) 1190 (2018) 17200 1250 1650 2570 3030 8750 33900 40200 50300 51800
2020-07-16 16:45 2.78 1820 52000 (2007) 1190 (2018) 17200 1250 1650 2570 3030 8750 33900 40200 50300 51800
2020-07-16 15:45 2.79 1840 52000 (2007) 1190 (2018) 17200 1250 1650 2570 3030 8750 33900 40200 50300 51800
2020-07-16 14:45 2.80 1860 52000 (2007) 1190 (2018) 17200 1250 1650 2570 3030 8750 33900 40200 50300 51800
2020-07-16 13:45 2.80 1860 52000 (2007) 1190 (2018) 17200 1250 1650 2570 3030 8750 33900 40200 50300 51800
2020-07-16 12:45 2.80 1860 52000 (2007) 1190 (2018) 17200 1250 1650 2570 3030 8750 33900 40200 50300 51800
2020-07-16 11:45 2.80 1860 52000 (2007) 1190 (2018) 17200 1250 1650 2570 3030 8750 33900 40200 50300 51800
2020-07-16 10:45 2.80 1860 52000 (2007) 1190 (2018) 17200 1250 1650 2570 3030 8750 33900 40200 50300 51800
2020-07-16 09:45 2.80 1860 52000 (2007) 1190 (2018) 17200 1250 1650 2570 3030 8750 33900 40200 50300 51800
2020-07-16 08:45 2.80 1860 52000 (2007) 1190 (2018) 17200 1250 1650 2570 3030 8750 33900 40200 50300 51800
2020-07-16 07:45 2.80 1860 52000 (2007) 1190 (2018) 17200 1250 1650 2570 3030 8750 33900 40200 50300 51800
2020-07-16 06:45 2.80 1860 52000 (2007) 1190 (2018) 17200 1250 1650 2570 3030 8750 33900 40200 50300 51800
2020-07-16 05:45 2.80 1860 52000 (2007) 1190 (2018) 17200 1250 1650 2570 3030 8750 33900 40200 50300 51800
2020-07-16 04:45 2.80 1860 52000 (2007) 1190 (2018) 17200 1250 1650 2570 3030 8750 33900 40200 50300 51800
2020-07-16 03:45 2.80 1860 52000 (2007) 1190 (2018) 17200 1250 1650 2570 3030 8750 33900 40200 50300 51800
2020-07-16 02:45 2.80 1860 52000 (2007) 1190 (2018) 17200 1250 1650 2570 3030 8750 33900 40200 50300 51800
2020-07-16 01:45 2.79 1840 52000 (2007) 1190 (2018) 17200 1250 1650 2570 3030 8750 33900 40200 50300 51800
2020-07-16 00:45 2.79 1840 52000 (2007) 1190 (2018) 17200 1250 1650 2570 3030 8750 33900 40200 50300 51800
2020-07-15 23:45 2.79 1840 52100 (2007) 1200 (2012) 17200 1260 1630 2190 2410 6340 33700 41900 50400 51900
2020-07-15 22:45 2.79 1840 52100 (2007) 1200 (2012) 17200 1260 1630 2190 2410 6340 33700 41900 50400 51900
2020-07-15 21:45 2.79 1840 52100 (2007) 1200 (2012) 17200 1260 1630 2190 2410 6340 33700 41900 50400 51900
2020-07-15 20:45 2.78 1820 52100 (2007) 1200 (2012) 17200 1260 1630 2190 2410 6340 33700 41900 50400 51900
2020-07-15 19:45 2.78 1820 52100 (2007) 1200 (2012) 17200 1260 1630 2190 2410 6340 33700 41900 50400 51900
2020-07-15 18:45 2.77 1810 52100 (2007) 1200 (2012) 17200 1260 1630 2190 2410 6340 33700 41900 50400 51900
2020-07-15 17:45 2.78 1820 52100 (2007) 1200 (2012) 17200 1260 1630 2190 2410 6340 33700 41900 50400 51900
2020-07-15 16:45 2.79 1840 52100 (2007) 1200 (2012) 17200 1260 1630 2190 2410 6340 33700 41900 50400 51900
2020-07-15 15:45 2.79 1840 52100 (2007) 1200 (2012) 17200 1260 1630 2190 2410 6340 33700 41900 50400 51900
2020-07-15 14:45 2.78 1820 52100 (2007) 1200 (2012) 17200 1260 1630 2190 2410 6340 33700 41900 50400 51900
2020-07-15 13:45 2.78 1820 52100 (2007) 1200 (2012) 17200 1260 1630 2190 2410 6340 33700 41900 50400 51900
2020-07-15 12:45 2.77 1810 52100 (2007) 1200 (2012) 17200 1260 1630 2190 2410 6340 33700 41900 50400 51900
2020-07-15 11:45 2.77 1810 52100 (2007) 1200 (2012) 17200 1260 1630 2190 2410 6340 33700 41900 50400 51900
2020-07-15 10:45 2.77 1810 52100 (2007) 1200 (2012) 17200 1260 1630 2190 2410 6340 33700 41900 50400 51900
2020-07-15 09:45 2.77 1810 52100 (2007) 1200 (2012) 17200 1260 1630 2190 2410 6340 33700 41900 50400 51900
2020-07-15 08:45 2.76 1790 52100 (2007) 1200 (2012) 17200 1260 1630 2190 2410 6340 33700 41900 50400 51900
2020-07-15 07:45 2.76 1790 52100 (2007) 1200 (2012) 17200 1260 1630 2190 2410 6340 33700 41900 50400 51900
2020-07-15 06:45 2.75 1780 52100 (2007) 1200 (2012) 17200 1260 1630 2190 2410 6340 33700 41900 50400 51900
2020-07-15 05:45 2.75 1780 52100 (2007) 1200 (2012) 17200 1260 1630 2190 2410 6340 33700 41900 50400 51900
2020-07-15 04:45 2.75 1780 52100 (2007) 1200 (2012) 17200 1260 1630 2190 2410 6340 33700 41900 50400 51900
2020-07-15 03:45 2.75 1780 52100 (2007) 1200 (2012) 17200 1260 1630 2190 2410 6340 33700 41900 50400 51900
2020-07-15 02:45 2.75 1780 52100 (2007) 1200 (2012) 17200 1260 1630 2190 2410 6340 33700 41900 50400 51900
2020-07-15 01:45 2.75 1780 52100 (2007) 1200 (2012) 17200 1260 1630 2190 2410 6340 33700 41900 50400 51900
2020-07-15 00:45 2.75 1780 52100 (2007) 1200 (2012) 17200 1260 1630 2190 2410 6340 33700 41900 50400 51900
2020-07-14 23:45 2.74 1760 51600 (2007) 1190 (2012) 18200 1220 1510 2670 3830 9670 34900 41700 50800 51500
2020-07-14 22:45 2.74 1760 51600 (2007) 1190 (2012) 18200 1220 1510 2670 3830 9670 34900 41700 50800 51500
2020-07-14 21:45 2.74 1760 51600 (2007) 1190 (2012) 18200 1220 1510 2670 3830 9670 34900 41700 50800 51500
2020-07-14 20:45 2.74 1760 51600 (2007) 1190 (2012) 18200 1220 1510 2670 3830 9670 34900 41700 50800 51500
2020-07-14 19:45 2.75 1780 51600 (2007) 1190 (2012) 18200 1220 1510 2670 3830 9670 34900 41700 50800 51500
2020-07-14 18:45 2.75 1780 51600 (2007) 1190 (2012) 18200 1220 1510 2670 3830 9670 34900 41700 50800 51500
2020-07-14 17:45 2.75 1780 51600 (2007) 1190 (2012) 18200 1220 1510 2670 3830 9670 34900 41700 50800 51500
2020-07-14 16:45 2.75 1780 51600 (2007) 1190 (2012) 18200 1220 1510 2670 3830 9670 34900 41700 50800 51500
2020-07-14 15:45 2.76 1790 51600 (2007) 1190 (2012) 18200 1220 1510 2670 3830 9670 34900 41700 50800 51500
2020-07-14 14:45 2.76 1790 51600 (2007) 1190 (2012) 18200 1220 1510 2670 3830 9670 34900 41700 50800 51500
2020-07-14 13:45 2.75 1780 51600 (2007) 1190 (2012) 18200 1220 1510 2670 3830 9670 34900 41700 50800 51500
2020-07-14 12:45 2.76 1790 51600 (2007) 1190 (2012) 18200 1220 1510 2670 3830 9670 34900 41700 50800 51500
2020-07-14 11:45 2.77 1810 51600 (2007) 1190 (2012) 18200 1220 1510 2670 3830 9670 34900 41700 50800 51500
2020-07-14 10:45 2.76 1790 51600 (2007) 1190 (2012) 18200 1220 1510 2670 3830 9670 34900 41700 50800 51500
2020-07-14 09:45 2.77 1810 51600 (2007) 1190 (2012) 18200 1220 1510 2670 3830 9670 34900 41700 50800 51500
2020-07-14 08:45 2.77 1810 51600 (2007) 1190 (2012) 18200 1220 1510 2670 3830 9670 34900 41700 50800 51500
2020-07-14 07:45 2.77 1810 51600 (2007) 1190 (2012) 18200 1220 1510 2670 3830 9670 34900 41700 50800 51500
2020-07-14 06:45 2.77 1810 51600 (2007) 1190 (2012) 18200 1220 1510 2670 3830 9670 34900 41700 50800 51500
2020-07-14 05:45 2.77 1810 51600 (2007) 1190 (2012) 18200 1220 1510 2670 3830 9670 34900 41700 50800 51500
2020-07-14 04:45 2.78 1820 51600 (2007) 1190 (2012) 18200 1220 1510 2670 3830 9670 34900 41700 50800 51500
2020-07-14 03:45 2.79 1840 51600 (2007) 1190 (2012) 18200 1220 1510 2670 3830 9670 34900 41700 50800 51500
2020-07-14 02:45 2.79 1840 51600 (2007) 1190 (2012) 18200 1220 1510 2670 3830 9670 34900 41700 50800 51500
2020-07-14 01:45 2.80 1860 51600 (2007) 1190 (2012) 18200 1220 1510 2670 3830 9670 34900 41700 50800 51500
2020-07-14 00:45 2.81 1880 51600 (2007) 1190 (2012) 18200 1220 1510 2670 3830 9670 34900 41700 50800 51500
2020-07-13 23:45 2.82 1890 51000 (2008) 1190 (2012) 17300 1230 1530 1950 2130 6600 31500 41700 50700 51000
2020-07-13 22:45 2.82 1890 51000 (2008) 1190 (2012) 17300 1230 1530 1950 2130 6600 31500 41700 50700 51000
2020-07-13 21:45 2.84 1930 51000 (2008) 1190 (2012) 17300 1230 1530 1950 2130 6600 31500 41700 50700 51000
2020-07-13 20:45 2.85 1940 51000 (2008) 1190 (2012) 17300 1230 1530 1950 2130 6600 31500 41700 50700 51000
2020-07-13 19:45 2.87 1980 51000 (2008) 1190 (2012) 17300 1230 1530 1950 2130 6600 31500 41700 50700 51000
2020-07-13 18:45 2.88 2000 51000 (2008) 1190 (2012) 17300 1230 1530 1950 2130 6600 31500 41700 50700 51000
2020-07-13 17:45 2.89 2010 51000 (2008) 1190 (2012) 17300 1230 1530 1950 2130 6600 31500 41700 50700 51000
2020-07-13 16:45 2.91 2050 51000 (2008) 1190 (2012) 17300 1230 1530 1950 2130 6600 31500 41700 50700 51000
2020-07-13 15:45 2.92 2070 51000 (2008) 1190 (2012) 17300 1230 1530 1950 2130 6600 31500 41700 50700 51000
2020-07-13 14:45 2.93 2090 51000 (2008) 1190 (2012) 17300 1230 1530 1950 2130 6600 31500 41700 50700 51000
2020-07-13 13:45 2.93 2090 51000 (2008) 1190 (2012) 17300 1230 1530 1950 2130 6600 31500 41700 50700 51000
2020-07-13 12:45 2.93 2090 51000 (2008) 1190 (2012) 17300 1230 1530 1950 2130 6600 31500 41700 50700 51000
2020-07-13 11:45 2.92 2070 51000 (2008) 1190 (2012) 17300 1230 1530 1950 2130 6600 31500 41700 50700 51000
2020-07-13 10:45 2.92 2070 51000 (2008) 1190 (2012) 17300 1230 1530 1950 2130 6600 31500 41700 50700 51000
2020-07-13 09:45 2.91 2050 51000 (2008) 1190 (2012) 17300 1230 1530 1950 2130 6600 31500 41700 50700 51000
2020-07-13 08:45 2.89 2010 51000 (2008) 1190 (2012) 17300 1230 1530 1950 2130 6600 31500 41700 50700 51000
2020-07-13 07:45 2.88 2000 51000 (2008) 1190 (2012) 17300 1230 1530 1950 2130 6600 31500 41700 50700 51000
2020-07-13 06:45 2.86 1960 51000 (2008) 1190 (2012) 17300 1230 1530 1950 2130 6600 31500 41700 50700 51000
2020-07-13 05:45 2.84 1930 51000 (2008) 1190 (2012) 17300 1230 1530 1950 2130 6600 31500 41700 50700 51000
2020-07-13 04:45 2.84 1930 51000 (2008) 1190 (2012) 17300 1230 1530 1950 2130 6600 31500 41700 50700 51000
2020-07-13 03:45 2.83 1910 51000 (2008) 1190 (2012) 17300 1230 1530 1950 2130 6600 31500 41700 50700 51000
2020-07-13 02:45 2.82 1890 51000 (2008) 1190 (2012) 17300 1230 1530 1950 2130 6600 31500 41700 50700 51000
2020-07-13 01:45 2.82 1890 51000 (2008) 1190 (2012) 17300 1230 1530 1950 2130 6600 31500 41700 50700 51000
2020-07-13 00:45 2.81 1880 51000 (2008) 1190 (2012) 17300 1230 1530 1950 2130 6600 31500 41700 50700 51000
2020-07-12 23:45 2.81 1880 50700 (2007) 1160 (2018) 16700 1170 1300 2620 3590 6120 27500 41900 50500 50700
2020-07-12 22:45 2.81 1880 50700 (2007) 1160 (2018) 16700 1170 1300 2620 3590 6120 27500 41900 50500 50700
2020-07-12 21:45 2.81 1880 50700 (2007) 1160 (2018) 16700 1170 1300 2620 3590 6120 27500 41900 50500 50700
2020-07-12 20:45 2.82 1890 50700 (2007) 1160 (2018) 16700 1170 1300 2620 3590 6120 27500 41900 50500 50700
2020-07-12 19:45 2.82 1890 50700 (2007) 1160 (2018) 16700 1170 1300 2620 3590 6120 27500 41900 50500 50700
2020-07-12 18:45 2.82 1890 50700 (2007) 1160 (2018) 16700 1170 1300 2620 3590 6120 27500 41900 50500 50700
2020-07-12 17:45 2.82 1890 50700 (2007) 1160 (2018) 16700 1170 1300 2620 3590 6120 27500 41900 50500 50700
2020-07-12 16:45 2.82 1890 50700 (2007) 1160 (2018) 16700 1170 1300 2620 3590 6120 27500 41900 50500 50700
2020-07-12 15:45 2.81 1880 50700 (2007) 1160 (2018) 16700 1170 1300 2620 3590 6120 27500 41900 50500 50700
2020-07-12 14:45 2.82 1890 50700 (2007) 1160 (2018) 16700 1170 1300 2620 3590 6120 27500 41900 50500 50700
2020-07-12 13:45 2.81 1880 50700 (2007) 1160 (2018) 16700 1170 1300 2620 3590 6120 27500 41900 50500 50700
2020-07-12 12:45 2.81 1880 50700 (2007) 1160 (2018) 16700 1170 1300 2620 3590 6120 27500 41900 50500 50700
2020-07-12 11:45 2.81 1880 50700 (2007) 1160 (2018) 16700 1170 1300 2620 3590 6120 27500 41900 50500 50700
2020-07-12 10:45 2.83 1910 50700 (2007) 1160 (2018) 16700 1170 1300 2620 3590 6120 27500 41900 50500 50700
2020-07-12 09:45 2.84 1930 50700 (2007) 1160 (2018) 16700 1170 1300 2620 3590 6120 27500 41900 50500 50700
2020-07-12 08:45 2.84 1930 50700 (2007) 1160 (2018) 16700 1170 1300 2620 3590 6120 27500 41900 50500 50700
2020-07-12 07:45 2.86 1960 50700 (2007) 1160 (2018) 16700 1170 1300 2620 3590 6120 27500 41900 50500 50700
2020-07-12 06:45 2.86 1960 50700 (2007) 1160 (2018) 16700 1170 1300 2620 3590 6120 27500 41900 50500 50700
2020-07-12 05:45 2.87 1980 50700 (2007) 1160 (2018) 16700 1170 1300 2620 3590 6120 27500 41900 50500 50700
2020-07-12 04:45 2.89 2010 50700 (2007) 1160 (2018) 16700 1170 1300 2620 3590 6120 27500 41900 50500 50700
2020-07-12 03:45 2.90 2030 50700 (2007) 1160 (2018) 16700 1170 1300 2620 3590 6120 27500 41900 50500 50700
2020-07-12 02:45 2.92 2070 50700 (2007) 1160 (2018) 16700 1170 1300 2620 3590 6120 27500 41900 50500 50700
2020-07-12 01:45 2.94 2110 50700 (2007) 1160 (2018) 16700 1170 1300 2620 3590 6120 27500 41900 50500 50700
2020-07-12 00:45 2.96 2140 50700 (2007) 1160 (2018) 16700 1170 1300 2620 3590 6120 27500 41900 50500 50700
2020-07-11 23:45 2.98 2180 50600 (2008) 641 (2006) 17600 747 1400 1770 3100 12500 31900 38800 50400 50600
2020-07-11 22:45 2.99 2200 50600 (2008) 641 (2006) 17600 747 1400 1770 3100 12500 31900 38800 50400 50600
2020-07-11 21:45 3.01 2240 50600 (2008) 641 (2006) 17600 747 1400 1770 3100 12500 31900 38800 50400 50600
2020-07-11 20:45 3.03 2280 50600 (2008) 641 (2006) 17600 747 1400 1770 3100 12500 31900 38800 50400 50600
2020-07-11 19:45 3.05 2320 50600 (2008) 641 (2006) 17600 747 1400 1770 3100 12500 31900 38800 50400 50600
2020-07-11 18:45 3.07 2360 50600 (2008) 641 (2006) 17600 747 1400 1770 3100 12500 31900 38800 50400 50600
2020-07-11 17:45 3.08 2380 50600 (2008) 641 (2006) 17600 747 1400 1770 3100 12500 31900 38800 50400 50600
2020-07-11 16:45 3.10 2420 50600 (2008) 641 (2006) 17600 747 1400 1770 3100 12500 31900 38800 50400 50600
2020-07-11 15:45 3.11 2440 50600 (2008) 641 (2006) 17600 747 1400 1770 3100 12500 31900 38800 50400 50600
2020-07-11 14:45 3.13 2480 50600 (2008) 641 (2006) 17600 747 1400 1770 3100 12500 31900 38800 50400 50600
2020-07-11 13:45 3.15 2520 50600 (2008) 641 (2006) 17600 747 1400 1770 3100 12500 31900 38800 50400 50600
2020-07-11 12:45 3.17 2570 50600 (2008) 641 (2006) 17600 747 1400 1770 3100 12500 31900 38800 50400 50600
2020-07-11 11:45 3.19 2610 50600 (2008) 641 (2006) 17600 747 1400 1770 3100 12500 31900 38800 50400 50600
2020-07-11 10:45 3.23 2700 50600 (2008) 641 (2006) 17600 747 1400 1770 3100 12500 31900 38800 50400 50600
2020-07-11 09:45 3.26 2760 50600 (2008) 641 (2006) 17600 747 1400 1770 3100 12500 31900 38800 50400 50600
2020-07-11 08:45 3.31 2880 50600 (2008) 641 (2006) 17600 747 1400 1770 3100 12500 31900 38800 50400 50600
2020-07-11 07:45 3.36 3000 50600 (2008) 641 (2006) 17600 747 1400 1770 3100 12500 31900 38800 50400 50600
2020-07-11 06:45 3.42 3150 50600 (2008) 641 (2006) 17600 747 1400 1770 3100 12500 31900 38800 50400 50600
2020-07-11 05:45 3.49 3330 50600 (2008) 641 (2006) 17600 747 1400 1770 3100 12500 31900 38800 50400 50600
2020-07-11 04:45 3.57 3540 50600 (2008) 641 (2006) 17600 747 1400 1770 3100 12500 31900 38800 50400 50600
2020-07-11 03:45 3.66 3750 50600 (2008) 641 (2006) 17600 747 1400 1770 3100 12500 31900 38800 50400 50600
2020-07-11 02:45 3.75 3980 50600 (2008) 641 (2006) 17600 747 1400 1770 3100 12500 31900 38800 50400 50600
2020-07-11 01:45 3.85 4230 50600 (2008) 641 (2006) 17600 747 1400 1770 3100 12500 31900 38800 50400 50600
2020-07-11 00:45 3.97 4530 50600 (2008) 641 (2006) 17600 747 1400 1770 3100 12500 31900 38800 50400 50600
2020-07-10 23:45 4.10 4870 52400 (2008) 478 (2006) 17700 571 1180 1720 3560 11600 35500 42300 50600 52200
2020-07-10 22:45 4.23 5200 52400 (2008) 478 (2006) 17700 571 1180 1720 3560 11600 35500 42300 50600 52200
2020-07-10 21:45 4.38 5590 52400 (2008) 478 (2006) 17700 571 1180 1720 3560 11600 35500 42300 50600 52200
2020-07-10 20:45 4.54 6020 52400 (2008) 478 (2006) 17700 571 1180 1720 3560 11600 35500 42300 50600 52200
2020-07-10 19:45 4.71 6460 52400 (2008) 478 (2006) 17700 571 1180 1720 3560 11600 35500 42300 50600 52200
2020-07-10 18:45 4.88 6910 52400 (2008) 478 (2006) 17700 571 1180 1720 3560 11600 35500 42300 50600 52200
2020-07-10 17:45 5.06 7380 52400 (2008) 478 (2006) 17700 571 1180 1720 3560 11600 35500 42300 50600 52200
2020-07-10 16:45 5.23 7830 52400 (2008) 478 (2006) 17700 571 1180 1720 3560 11600 35500 42300 50600 52200
2020-07-10 15:45 5.43 8390 52400 (2008) 478 (2006) 17700 571 1180 1720 3560 11600 35500 42300 50600 52200
2020-07-10 14:45 5.61 8880 52400 (2008) 478 (2006) 17700 571 1180 1720 3560 11600 35500 42300 50600 52200
2020-07-10 13:45 5.77 9320 52400 (2008) 478 (2006) 17700 571 1180 1720 3560 11600 35500 42300 50600 52200
2020-07-10 12:45 5.92 9720 52400 (2008) 478 (2006) 17700 571 1180 1720 3560 11600 35500 42300 50600 52200
2020-07-10 11:45 6.05 10100 52400 (2008) 478 (2006) 17700 571 1180 1720 3560 11600 35500 42300 50600 52200
2020-07-10 10:45 6.13 10300 52400 (2008) 478 (2006) 17700 571 1180 1720 3560 11600 35500 42300 50600 52200
2020-07-10 09:45 6.16 10400 52400 (2008) 478 (2006) 17700 571 1180 1720 3560 11600 35500 42300 50600 52200
2020-07-10 08:45 6.12 10300 52400 (2008) 478 (2006) 17700 571 1180 1720 3560 11600 35500 42300 50600 52200
2020-07-10 07:45 5.99 9910 52400 (2008) 478 (2006) 17700 571 1180 1720 3560 11600 35500 42300 50600 52200
2020-07-10 06:45 5.75 9260 52400 (2008) 478 (2006) 17700 571 1180 1720 3560 11600 35500 42300 50600 52200
2020-07-10 05:45 5.37 8220 52400 (2008) 478 (2006) 17700 571 1180 1720 3560 11600 35500 42300 50600 52200
2020-07-10 04:45 4.87 6890 52400 (2008) 478 (2006) 17700 571 1180 1720 3560 11600 35500 42300 50600 52200
2020-07-10 03:45 4.41 5670 52400 (2008) 478 (2006) 17700 571 1180 1720 3560 11600 35500 42300 50600 52200
2020-07-10 02:45 4.18 5070 52400 (2008) 478 (2006) 17700 571 1180 1720 3560 11600 35500 42300 50600 52200
2020-07-10 01:45 4.22 5180 52400 (2008) 478 (2006) 17700 571 1180 1720 3560 11600 35500 42300 50600 52200
2020-07-10 00:45 4.35 5510 52400 (2008) 478 (2006) 17700 571 1180 1720 3560 11600 35500 42300 50600 52200
2020-07-09 23:45 4.49 5890 51900 (2008) 467 (2006) 19000 562 1200 3380 6130 10800 33500 44800 50700 51800
2020-07-09 22:45 4.66 6330 51900 (2008) 467 (2006) 19000 562 1200 3380 6130 10800 33500 44800 50700 51800
2020-07-09 21:45 4.82 6760 51900 (2008) 467 (2006) 19000 562 1200 3380 6130 10800 33500 44800 50700 51800
2020-07-09 20:45 4.99 7190 51900 (2008) 467 (2006) 19000 562 1200 3380 6130 10800 33500 44800 50700 51800
2020-07-09 19:45 5.18 7700 51900 (2008) 467 (2006) 19000 562 1200 3380 6130 10800 33500 44800 50700 51800
2020-07-09 18:45 5.36 8200 51900 (2008) 467 (2006) 19000 562 1200 3380 6130 10800 33500 44800 50700 51800
2020-07-09 17:45 5.54 8690 51900 (2008) 467 (2006) 19000 562 1200 3380 6130 10800 33500 44800 50700 51800
2020-07-09 16:45 5.72 9180 51900 (2008) 467 (2006) 19000 562 1200 3380 6130 10800 33500 44800 50700 51800
2020-07-09 15:45 5.90 9670 51900 (2008) 467 (2006) 19000 562 1200 3380 6130 10800 33500 44800 50700 51800
2020-07-09 14:45 6.05 10100 51900 (2008) 467 (2006) 19000 562 1200 3380 6130 10800 33500 44800 50700 51800
2020-07-09 13:45 6.19 10500 51900 (2008) 467 (2006) 19000 562 1200 3380 6130 10800 33500 44800 50700 51800
2020-07-09 12:45 6.30 10800 51900 (2008) 467 (2006) 19000 562 1200 3380 6130 10800 33500 44800 50700 51800
2020-07-09 11:45 6.37 11000 51900 (2008) 467 (2006) 19000 562 1200 3380 6130 10800 33500 44800 50700 51800
2020-07-09 10:45 6.39 11000 51900 (2008) 467 (2006) 19000 562 1200 3380 6130 10800 33500 44800 50700 51800
2020-07-09 09:45 6.36 11000 51900 (2008) 467 (2006) 19000 562 1200 3380 6130 10800 33500 44800 50700 51800
2020-07-09 08:45 6.22 10600 51900 (2008) 467 (2006) 19000 562 1200 3380 6130 10800 33500 44800 50700 51800
2020-07-09 07:45 5.97 9860 51900 (2008) 467 (2006) 19000 562 1200 3380 6130 10800 33500 44800 50700 51800
2020-07-09 06:45 5.57 8770 51900 (2008) 467 (2006) 19000 562 1200 3380 6130 10800 33500 44800 50700 51800
2020-07-09 05:45 4.97 7140 51900 (2008) 467 (2006) 19000 562 1200 3380 6130 10800 33500 44800 50700 51800
2020-07-09 04:45 4.25 5250 51900 (2008) 467 (2006) 19000 562 1200 3380 6130 10800 33500 44800 50700 51800
2020-07-09 03:45 3.74 3950 51900 (2008) 467 (2006) 19000 562 1200 3380 6130 10800 33500 44800 50700 51800
2020-07-09 02:45 3.65 3730 51900 (2008) 467 (2006) 19000 562 1200 3380 6130 10800 33500 44800 50700 51800
2020-07-09 01:45 3.71 3880 51900 (2008) 467 (2006) 19000 562 1200 3380 6130 10800 33500 44800 50700 51800
2020-07-09 00:45 3.80 4110 51900 (2008) 467 (2006) 19000 562 1200 3380 6130 10800 33500 44800 50700 51800
2020-07-08 23:45 3.90 4350 55900 (2015) 476 (2006) 18900 565 1080 2430 3350 14200 32600 42000 50700 55200
2020-07-08 22:45 4.01 4630 55900 (2015) 476 (2006) 18900 565 1080 2430 3350 14200 32600 42000 50700 55200
2020-07-08 21:45 4.14 4970 55900 (2015) 476 (2006) 18900 565 1080 2430 3350 14200 32600 42000 50700 55200
2020-07-08 20:45 4.28 5330 55900 (2015) 476 (2006) 18900 565 1080 2430 3350 14200 32600 42000 50700 55200
2020-07-08 19:45 4.43 5720 55900 (2015) 476 (2006) 18900 565 1080 2430 3350 14200 32600 42000 50700 55200
2020-07-08 18:45 4.59 6140 55900 (2015) 476 (2006) 18900 565 1080 2430 3350 14200 32600 42000 50700 55200
2020-07-08 17:45 4.76 6600 55900 (2015) 476 (2006) 18900 565 1080 2430 3350 14200 32600 42000 50700 55200
2020-07-08 16:45 4.95 7090 55900 (2015) 476 (2006) 18900 565 1080 2430 3350 14200 32600 42000 50700 55200
2020-07-08 15:45 5.14 7590 55900 (2015) 476 (2006) 18900 565 1080 2430 3350 14200 32600 42000 50700 55200
2020-07-08 14:45 5.33 8110 55900 (2015) 476 (2006) 18900 565 1080 2430 3350 14200 32600 42000 50700 55200
2020-07-08 13:45 5.53 8670 55900 (2015) 476 (2006) 18900 565 1080 2430 3350 14200 32600 42000 50700 55200
2020-07-08 12:45 5.72 9180 55900 (2015) 476 (2006) 18900 565 1080 2430 3350 14200 32600 42000 50700 55200
2020-07-08 11:45 5.91 9700 55900 (2015) 476 (2006) 18900 565 1080 2430 3350 14200 32600 42000 50700 55200
2020-07-08 10:45 6.10 10200 55900 (2015) 476 (2006) 18900 565 1080 2430 3350 14200 32600 42000 50700 55200
2020-07-08 09:45 6.29 10800 55900 (2015) 476 (2006) 18900 565 1080 2430 3350 14200 32600 42000 50700 55200
2020-07-08 08:45 6.43 11200 55900 (2015) 476 (2006) 18900 565 1080 2430 3350 14200 32600 42000 50700 55200
2020-07-08 07:45 6.56 11500 55900 (2015) 476 (2006) 18900 565 1080 2430 3350 14200 32600 42000 50700 55200
2020-07-08 06:45 6.66 11800 55900 (2015) 476 (2006) 18900 565 1080 2430 3350 14200 32600 42000 50700 55200
2020-07-08 05:45 6.72 12000 55900 (2015) 476 (2006) 18900 565 1080 2430 3350 14200 32600 42000 50700 55200
2020-07-08 04:45 6.73 12000 55900 (2015) 476 (2006) 18900 565 1080 2430 3350 14200 32600 42000 50700 55200
2020-07-08 03:45 6.68 11900 55900 (2015) 476 (2006) 18900 565 1080 2430 3350 14200 32600 42000 50700 55200
2020-07-08 02:45 6.53 11500 55900 (2015) 476 (2006) 18900 565 1080 2430 3350 14200 32600 42000 50700 55200
2020-07-08 01:45 6.30 10800 55900 (2015) 476 (2006) 18900 565 1080 2430 3350 14200 32600 42000 50700 55200
2020-07-08 00:45 5.97 9860 55900 (2015) 476 (2006) 18900 565 1080 2430 3350 14200 32600 42000 50700 55200
2020-07-07 23:45 5.67 9040 51500 (2015) 523 (2006) 18400 616 1220 2130 2890 11700 31200 36500 50500 51400
2020-07-07 22:45 5.51 8610 51500 (2015) 523 (2006) 18400 616 1220 2130 2890 11700 31200 36500 50500 51400
2020-07-07 21:45 5.59 8830 51500 (2015) 523 (2006) 18400 616 1220 2130 2890 11700 31200 36500 50500 51400
2020-07-07 20:45 5.79 9370 51500 (2015) 523 (2006) 18400 616 1220 2130 2890 11700 31200 36500 50500 51400
2020-07-07 19:45 6.05 10100 51500 (2015) 523 (2006) 18400 616 1220 2130 2890 11700 31200 36500 50500 51400
2020-07-07 18:45 6.31 10800 51500 (2015) 523 (2006) 18400 616 1220 2130 2890 11700 31200 36500 50500 51400
2020-07-07 17:45 6.60 11700 51500 (2015) 523 (2006) 18400 616 1220 2130 2890 11700 31200 36500 50500 51400
2020-07-07 16:45 6.88 12500 51500 (2015) 523 (2006) 18400 616 1220 2130 2890 11700 31200 36500 50500 51400
2020-07-07 15:45 7.16 13400 51500 (2015) 523 (2006) 18400 616 1220 2130 2890 11700 31200 36500 50500 51400
2020-07-07 14:45 7.45 14300 51500 (2015) 523 (2006) 18400 616 1220 2130 2890 11700 31200 36500 50500 51400
2020-07-07 13:45 7.73 15200 51500 (2015) 523 (2006) 18400 616 1220 2130 2890 11700 31200 36500 50500 51400
2020-07-07 12:45 8.03 16200 51500 (2015) 523 (2006) 18400 616 1220 2130 2890 11700 31200 36500 50500 51400
2020-07-07 11:45 8.30 17200 51500 (2015) 523 (2006) 18400 616 1220 2130 2890 11700 31200 36500 50500 51400
2020-07-07 10:45 8.54 18000 51500 (2015) 523 (2006) 18400 616 1220 2130 2890 11700 31200 36500 50500 51400
2020-07-07 09:45 8.76 18800 51500 (2015) 523 (2006) 18400 616 1220 2130 2890 11700 31200 36500 50500 51400
2020-07-07 08:45 8.96 19600 51500 (2015) 523 (2006) 18400 616 1220 2130 2890 11700 31200 36500 50500 51400
2020-07-07 07:45 9.10 20200 51500 (2015) 523 (2006) 18400 616 1220 2130 2890 11700 31200 36500 50500 51400
2020-07-07 06:45 9.18 20500 51500 (2015) 523 (2006) 18400 616 1220 2130 2890 11700 31200 36500 50500 51400
2020-07-07 05:45 9.10 20200 51500 (2015) 523 (2006) 18400 616 1220 2130 2890 11700 31200 36500 50500 51400
2020-07-07 04:45 8.90 19400 51500 (2015) 523 (2006) 18400 616 1220 2130 2890 11700 31200 36500 50500 51400
2020-07-07 03:45 8.48 17800 51500 (2015) 523 (2006) 18400 616 1220 2130 2890 11700 31200 36500 50500 51400
2020-07-07 02:45 7.83 15500 51500 (2015) 523 (2006) 18400 616 1220 2130 2890 11700 31200 36500 50500 51400
2020-07-07 01:45 6.98 12800 51500 (2015) 523 (2006) 18400 616 1220 2130 2890 11700 31200 36500 50500 51400
2020-07-07 00:45 6.01 9970 51500 (2015) 523 (2006) 18400 616 1220 2130 2890 11700 31200 36500 50500 51400
2020-07-06 23:45 4.82 6760 51000 (2015) 533 (2006) 17400 650 1340 1830 2010 8750 31900 36400 48800 50700
2020-07-06 22:45 3.62 3650 51000 (2015) 533 (2006) 17400 650 1340 1830 2010 8750 31900 36400 48800 50700
2020-07-06 21:45 3.06 2340 51000 (2015) 533 (2006) 17400 650 1340 1830 2010 8750 31900 36400 48800 50700
2020-07-06 20:45 2.98 2180 51000 (2015) 533 (2006) 17400 650 1340 1830 2010 8750 31900 36400 48800 50700
2020-07-06 19:45 2.98 2180 51000 (2015) 533 (2006) 17400 650 1340 1830 2010 8750 31900 36400 48800 50700
2020-07-06 18:45 2.98 2180 51000 (2015) 533 (2006) 17400 650 1340 1830 2010 8750 31900 36400 48800 50700
2020-07-06 17:45 3.00 2220 51000 (2015) 533 (2006) 17400 650 1340 1830 2010 8750 31900 36400 48800 50700
2020-07-06 16:45 3.00 2220 51000 (2015) 533 (2006) 17400 650 1340 1830 2010 8750 31900 36400 48800 50700
2020-07-06 15:45 3.01 2240 51000 (2015) 533 (2006) 17400 650 1340 1830 2010 8750 31900 36400 48800 50700
2020-07-06 14:45 3.02 2260 51000 (2015) 533 (2006) 17400 650 1340 1830 2010 8750 31900 36400 48800 50700
2020-07-06 13:45 3.02 2260 51000 (2015) 533 (2006) 17400 650 1340 1830 2010 8750 31900 36400 48800 50700
2020-07-06 12:45 3.03 2280 51000 (2015) 533 (2006) 17400 650 1340 1830 2010 8750 31900 36400 48800 50700
2020-07-06 11:45 3.03 2280 51000 (2015) 533 (2006) 17400 650 1340 1830 2010 8750 31900 36400 48800 50700
2020-07-06 10:45 3.03 2280 51000 (2015) 533 (2006) 17400 650 1340 1830 2010 8750 31900 36400 48800 50700
2020-07-06 09:45 3.04 2300 51000 (2015) 533 (2006) 17400 650 1340 1830 2010 8750 31900 36400 48800 50700
2020-07-06 08:45 3.04 2300 51000 (2015) 533 (2006) 17400 650 1340 1830 2010 8750 31900 36400 48800 50700
2020-07-06 07:45 3.05 2320 51000 (2015) 533 (2006) 17400 650 1340 1830 2010 8750 31900 36400 48800 50700
2020-07-06 06:45 3.05 2320 51000 (2015) 533 (2006) 17400 650 1340 1830 2010 8750 31900 36400 48800 50700
2020-07-06 05:45 3.06 2340 51000 (2015) 533 (2006) 17400 650 1340 1830 2010 8750 31900 36400 48800 50700
2020-07-06 04:45 3.07 2360 51000 (2015) 533 (2006) 17400 650 1340 1830 2010 8750 31900 36400 48800 50700
2020-07-06 03:45 3.09 2400 51000 (2015) 533 (2006) 17400 650 1340 1830 2010 8750 31900 36400 48800 50700
2020-07-06 02:45 3.10 2420 51000 (2015) 533 (2006) 17400 650 1340 1830 2010 8750 31900 36400 48800 50700
2020-07-06 01:45 3.12 2460 51000 (2015) 533 (2006) 17400 650 1340 1830 2010 8750 31900 36400 48800 50700
2020-07-06 00:45 3.14 2500 51000 (2015) 533 (2006) 17400 650 1340 1830 2010 8750 31900 36400 48800 50700
2020-07-05 23:45 3.16 2540 58000 (2015) 569 (2006) 15600 615 963 1380 1580 5090 30300 35000 48300 56600
2020-07-05 22:45 3.19 2610 58000 (2015) 569 (2006) 15600 615 963 1380 1580 5090 30300 35000 48300 56600
2020-07-05 21:45 3.21 2650 58000 (2015) 569 (2006) 15600 615 963 1380 1580 5090 30300 35000 48300 56600
2020-07-05 20:45 3.25 2740 58000 (2015) 569 (2006) 15600 615 963 1380 1580 5090 30300 35000 48300 56600
2020-07-05 19:45 3.29 2830 58000 (2015) 569 (2006) 15600 615 963 1380 1580 5090 30300 35000 48300 56600
2020-07-05 18:45 3.33 2930 58000 (2015) 569 (2006) 15600 615 963 1380 1580 5090 30300 35000 48300 56600
2020-07-05 17:45 3.35 2980 58000 (2015) 569 (2006) 15600 615 963 1380 1580 5090 30300 35000 48300 56600
2020-07-05 16:45 3.41 3120 58000 (2015) 569 (2006) 15600 615 963 1380 1580 5090 30300 35000 48300 56600
2020-07-05 15:45 3.46 3250 58000 (2015) 569 (2006) 15600 615 963 1380 1580 5090 30300 35000 48300 56600
2020-07-05 14:45 3.52 3410 58000 (2015) 569 (2006) 15600 615 963 1380 1580 5090 30300 35000 48300 56600
2020-07-05 13:45 3.57 3540 58000 (2015) 569 (2006) 15600 615 963 1380 1580 5090 30300 35000 48300 56600
2020-07-05 12:45 3.63 3680 58000 (2015) 569 (2006) 15600 615 963 1380 1580 5090 30300 35000 48300 56600
2020-07-05 11:45 3.70 3850 58000 (2015) 569 (2006) 15600 615 963 1380 1580 5090 30300 35000 48300 56600
2020-07-05 10:45 3.78 4060 58000 (2015) 569 (2006) 15600 615 963 1380 1580 5090 30300 35000 48300 56600
2020-07-05 09:45 3.86 4250 58000 (2015) 569 (2006) 15600 615 963 1380 1580 5090 30300 35000 48300 56600
2020-07-05 08:45 3.95 4480 58000 (2015) 569 (2006) 15600 615 963 1380 1580 5090 30300 35000 48300 56600
2020-07-05 07:45 4.04 4710 58000 (2015) 569 (2006) 15600 615 963 1380 1580 5090 30300 35000 48300 56600
2020-07-05 06:45 4.14 4970 58000 (2015) 569 (2006) 15600 615 963 1380 1580 5090 30300 35000 48300 56600
2020-07-05 05:45 4.25 5250 58000 (2015) 569 (2006) 15600 615 963 1380 1580 5090 30300 35000 48300 56600
2020-07-05 04:45 4.37 5560 58000 (2015) 569 (2006) 15600 615 963 1380 1580 5090 30300 35000 48300 56600
2020-07-05 03:45 4.50 5910 58000 (2015) 569 (2006) 15600 615 963 1380 1580 5090 30300 35000 48300 56600
2020-07-05 02:45 4.64 6270 58000 (2015) 569 (2006) 15600 615 963 1380 1580 5090 30300 35000 48300 56600
2020-07-05 01:45 4.78 6650 58000 (2015) 569 (2006) 15600 615 963 1380 1580 5090 30300 35000 48300 56600
2020-07-05 00:45 4.93 7040 58000 (2015) 569 (2006) 15600 615 963 1380 1580 5090 30300 35000 48300 56600
2020-07-04 23:45 5.09 7460 73500 (2015) 963 (2006) 17400 990 1170 1770 1900 7990 29700 36400 46500 69500
2020-07-04 22:45 5.26 7920 73500 (2015) 963 (2006) 17400 990 1170 1770 1900 7990 29700 36400 46500 69500
2020-07-04 21:45 5.44 8420 73500 (2015) 963 (2006) 17400 990 1170 1770 1900 7990 29700 36400 46500 69500
2020-07-04 20:45 5.64 8960 73500 (2015) 963 (2006) 17400 990 1170 1770 1900 7990 29700 36400 46500 69500
2020-07-04 19:45 5.84 9510 73500 (2015) 963 (2006) 17400 990 1170 1770 1900 7990 29700 36400 46500 69500
2020-07-04 18:45 6.07 10100 73500 (2015) 963 (2006) 17400 990 1170 1770 1900 7990 29700 36400 46500 69500
2020-07-04 17:45 6.31 10800 73500 (2015) 963 (2006) 17400 990 1170 1770 1900 7990 29700 36400 46500 69500
2020-07-04 16:45 6.56 11500 73500 (2015) 963 (2006) 17400 990 1170 1770 1900 7990 29700 36400 46500 69500
2020-07-04 15:45 6.83 12300 73500 (2015) 963 (2006) 17400 990 1170 1770 1900 7990 29700 36400 46500 69500
2020-07-04 14:45 7.11 13200 73500 (2015) 963 (2006) 17400 990 1170 1770 1900 7990 29700 36400 46500 69500
2020-07-04 13:45 7.40 14100 73500 (2015) 963 (2006) 17400 990 1170 1770 1900 7990 29700 36400 46500 69500
2020-07-04 12:45 7.68 15000 73500 (2015) 963 (2006) 17400 990 1170 1770 1900 7990 29700 36400 46500 69500
2020-07-04 11:45 7.98 16100 73500 (2015) 963 (2006) 17400 990 1170 1770 1900 7990 29700 36400 46500 69500
2020-07-04 10:45 8.27 17100 73500 (2015) 963 (2006) 17400 990 1170 1770 1900 7990 29700 36400 46500 69500
2020-07-04 09:45 8.56 18100 73500 (2015) 963 (2006) 17400 990 1170 1770 1900 7990 29700 36400 46500 69500
2020-07-04 08:45 8.82 19100 73500 (2015) 963 (2006) 17400 990 1170 1770 1900 7990 29700 36400 46500 69500
2020-07-04 07:45 9.09 20200 73500 (2015) 963 (2006) 17400 990 1170 1770 1900 7990 29700 36400 46500 69500
2020-07-04 06:45 9.36 21200 73500 (2015) 963 (2006) 17400 990 1170 1770 1900 7990 29700 36400 46500 69500
2020-07-04 05:45 9.56 22000 73500 (2015) 963 (2006) 17400 990 1170 1770 1900 7990 29700 36400 46500 69500
2020-07-04 04:45 9.69 22500 73500 (2015) 963 (2006) 17400 990 1170 1770 1900 7990 29700 36400 46500 69500
2020-07-04 03:45 9.76 22700 73500 (2015) 963 (2006) 17400 990 1170 1770 1900 7990 29700 36400 46500 69500
2020-07-04 02:45 9.68 22400 73500 (2015) 963 (2006) 17400 990 1170 1770 1900 7990 29700 36400 46500 69500
2020-07-04 01:45 9.45 21600 73500 (2015) 963 (2006) 17400 990 1170 1770 1900 7990 29700 36400 46500 69500
2020-07-04 00:45 9.07 20100 73500 (2015) 963 (2006) 17400 990 1170 1770 1900 7990 29700 36400 46500 69500
2020-07-03 23:45 8.50 17900 82800 (2015) 982 (2006) 18300 1020 1260 1860 2030 9810 30700 35300 44800 77100
2020-07-03 22:45 7.75 15300 82800 (2015) 982 (2006) 18300 1020 1260 1860 2030 9810 30700 35300 44800 77100
2020-07-03 21:45 7.02 12900 82800 (2015) 982 (2006) 18300 1020 1260 1860 2030 9810 30700 35300 44800 77100
2020-07-03 20:45 6.28 10700 82800 (2015) 982 (2006) 18300 1020 1260 1860 2030 9810 30700 35300 44800 77100
2020-07-03 19:45 5.74 9240 82800 (2015) 982 (2006) 18300 1020 1260 1860 2030 9810 30700 35300 44800 77100
2020-07-03 18:45 5.49 8560 82800 (2015) 982 (2006) 18300 1020 1260 1860 2030 9810 30700 35300 44800 77100
2020-07-03 17:45 5.51 8610 82800 (2015) 982 (2006) 18300 1020 1260 1860 2030 9810 30700 35300 44800 77100
2020-07-03 16:45 5.75 9260 82800 (2015) 982 (2006) 18300 1020 1260 1860 2030 9810 30700 35300 44800 77100
2020-07-03 15:45 6.02 10000 82800 (2015) 982 (2006) 18300 1020 1260 1860 2030 9810 30700 35300 44800 77100
2020-07-03 14:45 6.31 10800 82800 (2015) 982 (2006) 18300 1020 1260 1860 2030 9810 30700 35300 44800 77100
2020-07-03 13:45 6.61 11700 82800 (2015) 982 (2006) 18300 1020 1260 1860 2030 9810 30700 35300 44800 77100
2020-07-03 12:45 6.91 12600 82800 (2015) 982 (2006) 18300 1020 1260 1860 2030 9810 30700 35300 44800 77100
2020-07-03 11:45 7.22 13600 82800 (2015) 982 (2006) 18300 1020 1260 1860 2030 9810 30700 35300 44800 77100
2020-07-03 10:45 7.52 14500 82800 (2015) 982 (2006) 18300 1020 1260 1860 2030 9810 30700 35300 44800 77100
2020-07-03 09:45 7.82 15500 82800 (2015) 982 (2006) 18300 1020 1260 1860 2030 9810 30700 35300 44800 77100
2020-07-03 08:45 8.11 16500 82800 (2015) 982 (2006) 18300 1020 1260 1860 2030 9810 30700 35300 44800 77100
2020-07-03 07:45 8.40 17500 82800 (2015) 982 (2006) 18300 1020 1260 1860 2030 9810 30700 35300 44800 77100
2020-07-03 06:45 8.65 18400 82800 (2015) 982 (2006) 18300 1020 1260 1860 2030 9810 30700 35300 44800 77100
2020-07-03 05:45 8.88 19300 82800 (2015) 982 (2006) 18300 1020 1260 1860 2030 9810 30700 35300 44800 77100
2020-07-03 04:45 9.06 20000 82800 (2015) 982 (2006) 18300 1020 1260 1860 2030 9810 30700 35300 44800 77100
2020-07-03 03:45 9.19 20600 82800 (2015) 982 (2006) 18300 1020 1260 1860 2030 9810 30700 35300 44800 77100
2020-07-03 02:45 9.19 20600 82800 (2015) 982 (2006) 18300 1020 1260 1860 2030 9810 30700 35300 44800 77100
2020-07-03 01:45 9.18 20500 82800 (2015) 982 (2006) 18300 1020 1260 1860 2030 9810 30700 35300 44800 77100
2020-07-03 00:45 9.03 19900 82800 (2015) 982 (2006) 18300 1020 1260 1860 2030 9810 30700 35300 44800 77100
2020-07-02 23:45 8.81 19000 75600 (2015) 878 (2006) 18300 941 1420 1900 2590 11300 30100 30700 40300 70700
2020-07-02 22:45 8.56 18100 75600 (2015) 878 (2006) 18300 941 1420 1900 2590 11300 30100 30700 40300 70700
2020-07-02 21:45 8.24 17000 75600 (2015) 878 (2006) 18300 941 1420 1900 2590 11300 30100 30700 40300 70700
2020-07-02 20:45 7.94 15900 75600 (2015) 878 (2006) 18300 941 1420 1900 2590 11300 30100 30700 40300 70700
2020-07-02 19:45 7.64 14900 75600 (2015) 878 (2006) 18300 941 1420 1900 2590 11300 30100 30700 40300 70700
2020-07-02 18:45 7.39 14100 75600 (2015) 878 (2006) 18300 941 1420 1900 2590 11300 30100 30700 40300 70700
2020-07-02 17:45 7.18 13400 75600 (2015) 878 (2006) 18300 941 1420 1900 2590 11300 30100 30700 40300 70700
2020-07-02 16:45 7.01 12900 75600 (2015) 878 (2006) 18300 941 1420 1900 2590 11300 30100 30700 40300 70700
2020-07-02 15:45 6.83 12300 75600 (2015) 878 (2006) 18300 941 1420 1900 2590 11300 30100 30700 40300 70700
2020-07-02 14:45 6.65 11800 75600 (2015) 878 (2006) 18300 941 1420 1900 2590 11300 30100 30700 40300 70700
2020-07-02 13:45 6.40 11100 75600 (2015) 878 (2006) 18300 941 1420 1900 2590 11300 30100 30700 40300 70700
2020-07-02 12:45 6.10 10200 75600 (2015) 878 (2006) 18300 941 1420 1900 2590 11300 30100 30700 40300 70700
2020-07-02 11:45 5.71 9150 75600 (2015) 878 (2006) 18300 941 1420 1900 2590 11300 30100 30700 40300 70700
2020-07-02 10:45 5.37 8220 75600 (2015) 878 (2006) 18300 941 1420 1900 2590 11300 30100 30700 40300 70700
2020-07-02 09:45 5.23 7830 75600 (2015) 878 (2006) 18300 941 1420 1900 2590 11300 30100 30700 40300 70700
2020-07-02 08:45 5.27 7940 75600 (2015) 878 (2006) 18300 941 1420 1900 2590 11300 30100 30700 40300 70700
2020-07-02 07:45 5.37 8220 75600 (2015) 878 (2006) 18300 941 1420 1900 2590 11300 30100 30700 40300 70700
2020-07-02 06:45 5.48 8530 75600 (2015) 878 (2006) 18300 941 1420 1900 2590 11300 30100 30700 40300 70700
2020-07-02 05:45 5.55 8720 75600 (2015) 878 (2006) 18300 941 1420 1900 2590 11300 30100 30700 40300 70700
2020-07-02 04:45 5.60 8850 75600 (2015) 878 (2006) 18300 941 1420 1900 2590 11300 30100 30700 40300 70700
2020-07-02 03:45 5.59 8830 75600 (2015) 878 (2006) 18300 941 1420 1900 2590 11300 30100 30700 40300 70700
2020-07-02 02:45 5.53 8670 75600 (2015) 878 (2006) 18300 941 1420 1900 2590 11300 30100 30700 40300 70700
2020-07-02 01:45 5.38 8250 75600 (2015) 878 (2006) 18300 941 1420 1900 2590 11300 30100 30700 40300 70700
2020-07-02 00:45 5.15 7620 75600 (2015) 878 (2006) 18300 941 1420 1900 2590 11300 30100 30700 40300 70700
2020-07-01 23:45 4.82 6760 43500 (2015) 1240 (2014) 16800 1250 1570 3150 3350 10500 31100 31500 39800 43400
2020-07-01 22:45 4.44 5750 43500 (2015) 1240 (2014) 16800 1250 1570 3150 3350 10500 31100 31500 39800 43400
2020-07-01 21:45 4.12 4920 43500 (2015) 1240 (2014) 16800 1250 1570 3150 3350 10500 31100 31500 39800 43400
2020-07-01 20:45 3.95 4480 43500 (2015) 1240 (2014) 16800 1250 1570 3150 3350 10500 31100 31500 39800 43400
2020-07-01 19:45 3.90 4350 43500 (2015) 1240 (2014) 16800 1250 1570 3150 3350 10500 31100 31500 39800 43400
2020-07-01 18:45 3.87 4280 43500 (2015) 1240 (2014) 16800 1250 1570 3150 3350 10500 31100 31500 39800 43400
2020-07-01 17:45 3.82 4150 43500 (2015) 1240 (2014) 16800 1250 1570 3150 3350 10500 31100 31500 39800 43400
2020-07-01 16:45 3.78 4060 43500 (2015) 1240 (2014) 16800 1250 1570 3150 3350 10500 31100 31500 39800 43400
2020-07-01 15:45 3.74 3950 43500 (2015) 1240 (2014) 16800 1250 1570 3150 3350 10500 31100 31500 39800 43400
2020-07-01 14:45 3.72 3900 43500 (2015) 1240 (2014) 16800 1250 1570 3150 3350 10500 31100 31500 39800 43400
2020-07-01 13:45 3.69 3830 43500 (2015) 1240 (2014) 16800 1250 1570 3150 3350 10500 31100 31500 39800 43400
2020-07-01 12:45 3.69 3830 43500 (2015) 1240 (2014) 16800 1250 1570 3150 3350 10500 31100 31500 39800 43400
2020-07-01 11:45 3.67 3780 43500 (2015) 1240 (2014) 16800 1250 1570 3150 3350 10500 31100 31500 39800 43400
2020-07-01 10:45 3.70 3850 43500 (2015) 1240 (2014) 16800 1250 1570 3150 3350 10500 31100 31500 39800 43400
2020-07-01 09:45 3.68 3800 43500 (2015) 1240 (2014) 16800 1250 1570 3150 3350 10500 31100 31500 39800 43400
2020-07-01 08:45 3.69 3830 43500 (2015) 1240 (2014) 16800 1250 1570 3150 3350 10500 31100 31500 39800 43400
2020-07-01 07:45 3.72 3900 43500 (2015) 1240 (2014) 16800 1250 1570 3150 3350 10500 31100 31500 39800 43400
2020-07-01 06:45 3.74 3950 43500 (2015) 1240 (2014) 16800 1250 1570 3150 3350 10500 31100 31500 39800 43400
2020-07-01 05:45 3.76 4000 43500 (2015) 1240 (2014) 16800 1250 1570 3150 3350 10500 31100 31500 39800 43400
2020-07-01 04:45 3.79 4080 43500 (2015) 1240 (2014) 16800 1250 1570 3150 3350 10500 31100 31500 39800 43400
2020-07-01 03:45 3.82 4150 43500 (2015) 1240 (2014) 16800 1250 1570 3150 3350 10500 31100 31500 39800 43400
2020-07-01 02:45 3.85 4230 43500 (2015) 1240 (2014) 16800 1250 1570 3150 3350 10500 31100 31500 39800 43400
2020-07-01 01:45 3.89 4330 43500 (2015) 1240 (2014) 16800 1250 1570 3150 3350 10500 31100 31500 39800 43400
2020-07-01 00:45 3.93 4420 43500 (2015) 1240 (2014) 16800 1250 1570 3150 3350 10500 31100 31500 39800 43400
2020-06-30 23:45 3.97 4530 43400 (2019) 1050 (2006) 16200 1050 1120 3370 3900 13900 25400 29100 36100 42500
2020-06-30 22:45 4.02 4650 43400 (2019) 1050 (2006) 16200 1050 1120 3370 3900 13900 25400 29100 36100 42500
2020-06-30 21:45 4.07 4790 43400 (2019) 1050 (2006) 16200 1050 1120 3370 3900 13900 25400 29100 36100 42500
2020-06-30 20:45 4.13 4950 43400 (2019) 1050 (2006) 16200 1050 1120 3370 3900 13900 25400 29100 36100 42500
2020-06-30 19:45 4.19 5100 43400 (2019) 1050 (2006) 16200 1050 1120 3370 3900 13900 25400 29100 36100 42500
2020-06-30 18:45 4.24 5230 43400 (2019) 1050 (2006) 16200 1050 1120 3370 3900 13900 25400 29100 36100 42500
2020-06-30 17:45 4.30 5380 43400 (2019) 1050 (2006) 16200 1050 1120 3370 3900 13900 25400 29100 36100 42500
2020-06-30 16:45 4.38 5590 43400 (2019) 1050 (2006) 16200 1050 1120 3370 3900 13900 25400 29100 36100 42500
2020-06-30 15:45 4.45 5780 43400 (2019) 1050 (2006) 16200 1050 1120 3370 3900 13900 25400 29100 36100 42500
2020-06-30 14:45 4.51 5940 43400 (2019) 1050 (2006) 16200 1050 1120 3370 3900 13900 25400 29100 36100 42500
2020-06-30 13:45 4.58 6120 43400 (2019) 1050 (2006) 16200 1050 1120 3370 3900 13900 25400 29100 36100 42500
2020-06-30 12:45 4.65 6300 43400 (2019) 1050 (2006) 16200 1050 1120 3370 3900 13900 25400 29100 36100 42500
2020-06-30 11:45 4.70 6430 43400 (2019) 1050 (2006) 16200 1050 1120 3370 3900 13900 25400 29100 36100 42500
2020-06-30 10:45 4.74 6540 43400 (2019) 1050 (2006) 16200 1050 1120 3370 3900 13900 25400 29100 36100 42500
2020-06-30 09:45 4.77 6620 43400 (2019) 1050 (2006) 16200 1050 1120 3370 3900 13900 25400 29100 36100 42500
2020-06-30 08:45 4.79 6680 43400 (2019) 1050 (2006) 16200 1050 1120 3370 3900 13900 25400 29100 36100 42500
2020-06-30 07:45 4.77 6620 43400 (2019) 1050 (2006) 16200 1050 1120 3370 3900 13900 25400 29100 36100 42500
2020-06-30 06:45 4.73 6510 43400 (2019) 1050 (2006) 16200 1050 1120 3370 3900 13900 25400 29100 36100 42500
2020-06-30 05:45 4.66 6330 43400 (2019) 1050 (2006) 16200 1050 1120 3370 3900 13900 25400 29100 36100 42500
2020-06-30 04:45 4.54 6020 43400 (2019) 1050 (2006) 16200 1050 1120 3370 3900 13900 25400 29100 36100 42500
2020-06-30 03:45 4.38 5590 43400 (2019) 1050 (2006) 16200 1050 1120 3370 3900 13900 25400 29100 36100 42500
2020-06-30 02:45 4.17 5050 43400 (2019) 1050 (2006) 16200 1050 1120 3370 3900 13900 25400 29100 36100 42500
2020-06-30 01:45 3.93 4420 43400 (2019) 1050 (2006) 16200 1050 1120 3370 3900 13900 25400 29100 36100 42500
2020-06-30 00:45 3.71 3880 43400 (2019) 1050 (2006) 16200 1050 1120 3370 3900 13900 25400 29100 36100 42500
2020-06-29 23:45 3.56 3510 44900 (2019) 668 (2006) 17100 737 1300 5110 6370 13200 28800 31000 37400 43800
2020-06-29 22:45 3.48 3300 44900 (2019) 668 (2006) 17100 737 1300 5110 6370 13200 28800 31000 37400 43800
2020-06-29 21:45 3.45 3230 44900 (2019) 668 (2006) 17100 737 1300 5110 6370 13200 28800 31000 37400 43800
2020-06-29 20:45 3.44 3200 44900 (2019) 668 (2006) 17100 737 1300 5110 6370 13200 28800 31000 37400 43800
2020-06-29 19:45 3.42 3150 44900 (2019) 668 (2006) 17100 737 1300 5110 6370 13200 28800 31000 37400 43800
2020-06-29 18:45 3.39 3070 44900 (2019) 668 (2006) 17100 737 1300 5110 6370 13200 28800 31000 37400 43800
2020-06-29 17:45 3.37 3030 44900 (2019) 668 (2006) 17100 737 1300 5110 6370 13200 28800 31000 37400 43800
2020-06-29 16:45 3.35 2980 44900 (2019) 668 (2006) 17100 737 1300 5110 6370 13200 28800 31000 37400 43800
2020-06-29 15:45 3.34 2950 44900 (2019) 668 (2006) 17100 737 1300 5110 6370 13200 28800 31000 37400 43800
2020-06-29 14:45 3.35 2980 44900 (2019) 668 (2006) 17100 737 1300 5110 6370 13200 28800 31000 37400 43800
2020-06-29 13:45 3.33 2930 44900 (2019) 668 (2006) 17100 737 1300 5110 6370 13200 28800 31000 37400 43800
2020-06-29 12:45 3.33 2930 44900 (2019) 668 (2006) 17100 737 1300 5110 6370 13200 28800 31000 37400 43800
2020-06-29 11:45 3.34 2950 44900 (2019) 668 (2006) 17100 737 1300 5110 6370 13200 28800 31000 37400 43800
2020-06-29 10:45 3.35 2980 44900 (2019) 668 (2006) 17100 737 1300 5110 6370 13200 28800 31000 37400 43800
2020-06-29 09:45 3.35 2980 44900 (2019) 668 (2006) 17100 737 1300 5110 6370 13200 28800 31000 37400 43800
2020-06-29 08:45 3.34 2950 44900 (2019) 668 (2006) 17100 737 1300 5110 6370 13200 28800 31000 37400 43800
2020-06-29 07:45 3.35 2980 44900 (2019) 668 (2006) 17100 737 1300 5110 6370 13200 28800 31000 37400 43800
2020-06-29 06:45 3.35 2980 44900 (2019) 668 (2006) 17100 737 1300 5110 6370 13200 28800 31000 37400 43800
2020-06-29 05:45 3.36 3000 44900 (2019) 668 (2006) 17100 737 1300 5110 6370 13200 28800 31000 37400 43800
2020-06-29 04:45 3.36 3000 44900 (2019) 668 (2006) 17100 737 1300 5110 6370 13200 28800 31000 37400 43800
2020-06-29 03:45 3.37 3030 44900 (2019) 668 (2006) 17100 737 1300 5110 6370 13200 28800 31000 37400 43800
2020-06-29 02:45 3.38 3050 44900 (2019) 668 (2006) 17100 737 1300 5110 6370 13200 28800 31000 37400 43800
2020-06-29 01:45 3.38 3050 44900 (2019) 668 (2006) 17100 737 1300 5110 6370 13200 28800 31000 37400 43800
2020-06-29 00:45 3.39 3070 44900 (2019) 668 (2006) 17100 737 1300 5110 6370 13200 28800 31000 37400 43800
2020-06-28 23:45 3.40 3100 44500 (2019) 550 (2006) 17700 670 1370 2720 3450 17600 31000 32900 38100 43600
2020-06-28 22:45 3.41 3120 44500 (2019) 550 (2006) 17700 670 1370 2720 3450 17600 31000 32900 38100 43600
2020-06-28 21:45 3.42 3150 44500 (2019) 550 (2006) 17700 670 1370 2720 3450 17600 31000 32900 38100 43600
2020-06-28 20:45 3.43 3170 44500 (2019) 550 (2006) 17700 670 1370 2720 3450 17600 31000 32900 38100 43600
2020-06-28 19:45 3.45 3230 44500 (2019) 550 (2006) 17700 670 1370 2720 3450 17600 31000 32900 38100 43600
2020-06-28 18:45 3.47 3280 44500 (2019) 550 (2006) 17700 670 1370 2720 3450 17600 31000 32900 38100 43600
2020-06-28 17:45 3.49 3330 44500 (2019) 550 (2006) 17700 670 1370 2720 3450 17600 31000 32900 38100 43600
2020-06-28 16:45 3.52 3410 44500 (2019) 550 (2006) 17700 670 1370 2720 3450 17600 31000 32900 38100 43600
2020-06-28 15:45 3.55 3490 44500 (2019) 550 (2006) 17700 670 1370 2720 3450 17600 31000 32900 38100 43600
2020-06-28 14:45 3.58 3560 44500 (2019) 550 (2006) 17700 670 1370 2720 3450 17600 31000 32900 38100 43600
2020-06-28 13:45 3.62 3650 44500 (2019) 550 (2006) 17700 670 1370 2720 3450 17600 31000 32900 38100 43600
2020-06-28 12:45 3.65 3730 44500 (2019) 550 (2006) 17700 670 1370 2720 3450 17600 31000 32900 38100 43600
2020-06-28 11:45 3.69 3830 44500 (2019) 550 (2006) 17700 670 1370 2720 3450 17600 31000 32900 38100 43600
2020-06-28 10:45 3.75 3980 44500 (2019) 550 (2006) 17700 670 1370 2720 3450 17600 31000 32900 38100 43600
2020-06-28 09:45 3.81 4130 44500 (2019) 550 (2006) 17700 670 1370 2720 3450 17600 31000 32900 38100 43600
2020-06-28 08:45 3.88 4300 44500 (2019) 550 (2006) 17700 670 1370 2720 3450 17600 31000 32900 38100 43600
2020-06-28 07:45 3.95 4480 44500 (2019) 550 (2006) 17700 670 1370 2720 3450 17600 31000 32900 38100 43600
2020-06-28 06:45 4.04 4710 44500 (2019) 550 (2006) 17700 670 1370 2720 3450 17600 31000 32900 38100 43600
2020-06-28 05:45 4.13 4950 44500 (2019) 550 (2006) 17700 670 1370 2720 3450 17600 31000 32900 38100 43600
2020-06-28 04:45 4.24 5230 44500 (2019) 550 (2006) 17700 670 1370 2720 3450 17600 31000 32900 38100 43600
2020-06-28 03:45 4.37 5560 44500 (2019) 550 (2006) 17700 670 1370 2720 3450 17600 31000 32900 38100 43600
2020-06-28 02:45 4.52 5960 44500 (2019) 550 (2006) 17700 670 1370 2720 3450 17600 31000 32900 38100 43600
2020-06-28 01:45 4.68 6380 44500 (2019) 550 (2006) 17700 670 1370 2720 3450 17600 31000 32900 38100 43600
2020-06-28 00:45 4.86 6860 44500 (2019) 550 (2006) 17700 670 1370 2720 3450 17600 31000 32900 38100 43600
2020-06-27 23:45 5.06 7380 47000 (2019) 616 (2006) 17200 738 1680 2580 3780 15600 29800 31200 36000 45600
2020-06-27 22:45 5.24 7860 47000 (2019) 616 (2006) 17200 738 1680 2580 3780 15600 29800 31200 36000 45600
2020-06-27 21:45 5.45 8450 47000 (2019) 616 (2006) 17200 738 1680 2580 3780 15600 29800 31200 36000 45600
2020-06-27 20:45 5.68 9070 47000 (2019) 616 (2006) 17200 738 1680 2580 3780 15600 29800 31200 36000 45600
2020-06-27 19:45 5.91 9700 47000 (2019) 616 (2006) 17200 738 1680 2580 3780 15600 29800 31200 36000 45600
2020-06-27 18:45 6.14 10300 47000 (2019) 616 (2006) 17200 738 1680 2580 3780 15600 29800 31200 36000 45600
2020-06-27 17:45 6.39 11000 47000 (2019) 616 (2006) 17200 738 1680 2580 3780 15600 29800 31200 36000 45600
2020-06-27 16:45 6.62 11700 47000 (2019) 616 (2006) 17200 738 1680 2580 3780 15600 29800 31200 36000 45600
2020-06-27 15:45 6.86 12400 47000 (2019) 616 (2006) 17200 738 1680 2580 3780 15600 29800 31200 36000 45600
2020-06-27 14:45 7.10 13200 47000 (2019) 616 (2006) 17200 738 1680 2580 3780 15600 29800 31200 36000 45600
2020-06-27 13:45 7.33 13900 47000 (2019) 616 (2006) 17200 738 1680 2580 3780 15600 29800 31200 36000 45600
2020-06-27 12:45 7.56 14600 47000 (2019) 616 (2006) 17200 738 1680 2580 3780 15600 29800 31200 36000 45600
2020-06-27 11:45 7.77 15300 47000 (2019) 616 (2006) 17200 738 1680 2580 3780 15600 29800 31200 36000 45600
2020-06-27 10:45 7.93 15900 47000 (2019) 616 (2006) 17200 738 1680 2580 3780 15600 29800 31200 36000 45600
2020-06-27 09:45 8.06 16300 47000 (2019) 616 (2006) 17200 738 1680 2580 3780 15600 29800 31200 36000 45600
2020-06-27 08:45 8.12 16500 47000 (2019) 616 (2006) 17200 738 1680 2580 3780 15600 29800 31200 36000 45600
2020-06-27 07:45 8.15 16600 47000 (2019) 616 (2006) 17200 738 1680 2580 3780 15600 29800 31200 36000 45600
2020-06-27 06:45 8.11 16500 47000 (2019) 616 (2006) 17200 738 1680 2580 3780 15600 29800 31200 36000 45600
2020-06-27 05:45 8.02 16200 47000 (2019) 616 (2006) 17200 738 1680 2580 3780 15600 29800 31200 36000 45600
2020-06-27 04:45 7.88 15700 47000 (2019) 616 (2006) 17200 738 1680 2580 3780 15600 29800 31200 36000 45600
2020-06-27 03:45 7.72 15200 47000 (2019) 616 (2006) 17200 738 1680 2580 3780 15600 29800 31200 36000 45600
2020-06-27 02:45 7.53 14500 47000 (2019) 616 (2006) 17200 738 1680 2580 3780 15600 29800 31200 36000 45600
2020-06-27 01:45 7.28 13700 47000 (2019) 616 (2006) 17200 738 1680 2580 3780 15600 29800 31200 36000 45600
2020-06-27 00:45 7.00 12900 47000 (2019) 616 (2006) 17200 738 1680 2580 3780 15600 29800 31200 36000 45600
2020-06-26 23:45 6.72 12000 48200 (2019) 922 (2006) 17900 1050 2020 3810 4400 12100 31700 32300 35600 46500
2020-06-26 22:45 6.47 11300 48200 (2019) 922 (2006) 17900 1050 2020 3810 4400 12100 31700 32300 35600 46500
2020-06-26 21:45 6.29 10800 48200 (2019) 922 (2006) 17900 1050 2020 3810 4400 12100 31700 32300 35600 46500
2020-06-26 20:45 6.20 10500 48200 (2019) 922 (2006) 17900 1050 2020 3810 4400 12100 31700 32300 35600 46500
2020-06-26 19:45 6.20 10500 48200 (2019) 922 (2006) 17900 1050 2020 3810 4400 12100 31700 32300 35600 46500
2020-06-26 18:45 6.26 10700 48200 (2019) 922 (2006) 17900 1050 2020 3810 4400 12100 31700 32300 35600 46500
2020-06-26 17:45 6.38 11000 48200 (2019) 922 (2006) 17900 1050 2020 3810 4400 12100 31700 32300 35600 46500
2020-06-26 16:45 6.52 11400 48200 (2019) 922 (2006) 17900 1050 2020 3810 4400 12100 31700 32300 35600 46500
2020-06-26 15:45 6.70 12000 48200 (2019) 922 (2006) 17900 1050 2020 3810 4400 12100 31700 32300 35600 46500
2020-06-26 14:45 6.88 12500 48200 (2019) 922 (2006) 17900 1050 2020 3810 4400 12100 31700 32300 35600 46500
2020-06-26 13:45 7.08 13100 48200 (2019) 922 (2006) 17900 1050 2020 3810 4400 12100 31700 32300 35600 46500
2020-06-26 12:45 7.26 13700 48200 (2019) 922 (2006) 17900 1050 2020 3810 4400 12100 31700 32300 35600 46500
2020-06-26 11:45 7.46 14300 48200 (2019) 922 (2006) 17900 1050 2020 3810 4400 12100 31700 32300 35600 46500
2020-06-26 10:45 7.65 14900 48200 (2019) 922 (2006) 17900 1050 2020 3810 4400 12100 31700 32300 35600 46500
2020-06-26 09:45 7.80 15400 48200 (2019) 922 (2006) 17900 1050 2020 3810 4400 12100 31700 32300 35600 46500
2020-06-26 08:45 7.93 15900 48200 (2019) 922 (2006) 17900 1050 2020 3810 4400 12100 31700 32300 35600 46500
2020-06-26 07:45 8.04 16300 48200 (2019) 922 (2006) 17900 1050 2020 3810 4400 12100 31700 32300 35600 46500
2020-06-26 06:45 8.10 16500 48200 (2019) 922 (2006) 17900 1050 2020 3810 4400 12100 31700 32300 35600 46500
2020-06-26 05:45 8.11 16500 48200 (2019) 922 (2006) 17900 1050 2020 3810 4400 12100 31700 32300 35600 46500
2020-06-26 04:45 8.07 16400 48200 (2019) 922 (2006) 17900 1050 2020 3810 4400 12100 31700 32300 35600 46500
2020-06-26 03:45 7.99 16100 48200 (2019) 922 (2006) 17900 1050 2020 3810 4400 12100 31700 32300 35600 46500
2020-06-26 02:45 7.84 15600 48200 (2019) 922 (2006) 17900 1050 2020 3810 4400 12100 31700 32300 35600 46500
2020-06-26 01:45 7.70 15100 48200 (2019) 922 (2006) 17900 1050 2020 3810 4400 12100 31700 32300 35600 46500
2020-06-26 00:45 7.53 14500 48200 (2019) 922 (2006) 17900 1050 2020 3810 4400 12100 31700 32300 35600 46500
2020-06-25 23:45 7.41 14200 49000 (2008) 1150 (2018) 20100 1170 1420 4420 5350 17500 32400 33300 44600 48900
2020-06-25 22:45 7.28 13700 49000 (2008) 1150 (2018) 20100 1170 1420 4420 5350 17500 32400 33300 44600 48900
2020-06-25 21:45 7.14 13300 49000 (2008) 1150 (2018) 20100 1170 1420 4420 5350 17500 32400 33300 44600 48900
2020-06-25 20:45 6.99 12800 49000 (2008) 1150 (2018) 20100 1170 1420 4420 5350 17500 32400 33300 44600 48900
2020-06-25 19:45 6.90 12600 49000 (2008) 1150 (2018) 20100 1170 1420 4420 5350 17500 32400 33300 44600 48900
2020-06-25 18:45 6.84 12400 49000 (2008) 1150 (2018) 20100 1170 1420 4420 5350 17500 32400 33300 44600 48900
2020-06-25 17:45 6.83 12300 49000 (2008) 1150 (2018) 20100 1170 1420 4420 5350 17500 32400 33300 44600 48900
2020-06-25 16:45 6.86 12400 49000 (2008) 1150 (2018) 20100 1170 1420 4420 5350 17500 32400 33300 44600 48900
2020-06-25 15:45 6.97 12800 49000 (2008) 1150 (2018) 20100 1170 1420 4420 5350 17500 32400 33300 44600 48900
2020-06-25 14:45 7.09 13100 49000 (2008) 1150 (2018) 20100 1170 1420 4420 5350 17500 32400 33300 44600 48900
2020-06-25 13:45 7.23 13600 49000 (2008) 1150 (2018) 20100 1170 1420 4420 5350 17500 32400 33300 44600 48900
2020-06-25 12:45 7.39 14100 49000 (2008) 1150 (2018) 20100 1170 1420 4420 5350 17500 32400 33300 44600 48900
2020-06-25 11:45 7.55 14600 49000 (2008) 1150 (2018) 20100 1170 1420 4420 5350 17500 32400 33300 44600 48900
2020-06-25 10:45 7.68 15000 49000 (2008) 1150 (2018) 20100 1170 1420 4420 5350 17500 32400 33300 44600 48900
2020-06-25 09:45 7.81 15500 49000 (2008) 1150 (2018) 20100 1170 1420 4420 5350 17500 32400 33300 44600 48900
2020-06-25 08:45 7.95 16000 49000 (2008) 1150 (2018) 20100 1170 1420 4420 5350 17500 32400 33300 44600 48900
2020-06-25 07:45 8.04 16300 49000 (2008) 1150 (2018) 20100 1170 1420 4420 5350 17500 32400 33300 44600 48900
2020-06-25 06:45 8.10 16500 49000 (2008) 1150 (2018) 20100 1170 1420 4420 5350 17500 32400 33300 44600 48900
2020-06-25 05:45 8.14 16600 49000 (2008) 1150 (2018) 20100 1170 1420 4420 5350 17500 32400 33300 44600 48900
2020-06-25 04:45 8.13 16600 49000 (2008) 1150 (2018) 20100 1170 1420 4420 5350 17500 32400 33300 44600 48900
2020-06-25 03:45 8.05 16300 49000 (2008) 1150 (2018) 20100 1170 1420 4420 5350 17500 32400 33300 44600 48900
2020-06-25 02:45 7.95 16000 49000 (2008) 1150 (2018) 20100 1170 1420 4420 5350 17500 32400 33300 44600 48900
2020-06-25 01:45 7.82 15500 49000 (2008) 1150 (2018) 20100 1170 1420 4420 5350 17500 32400 33300 44600 48900
2020-06-25 00:45 7.65 14900 49000 (2008) 1150 (2018) 20100 1170 1420 4420 5350 17500 32400 33300 44600 48900
2020-06-24 23:45 7.45 14300 50600 (2019) 1220 (2018) 21600 1280 2070 6900 11000 21500 32700 35200 40200 49200
2020-06-24 22:45 7.29 13800 50600 (2019) 1220 (2018) 21600 1280 2070 6900 11000 21500 32700 35200 40200 49200
2020-06-24 21:45 7.14 13300 50600 (2019) 1220 (2018) 21600 1280 2070 6900 11000 21500 32700 35200 40200 49200
2020-06-24 20:45 6.99 12800 50600 (2019) 1220 (2018) 21600 1280 2070 6900 11000 21500 32700 35200 40200 49200
2020-06-24 19:45 6.86 12400 50600 (2019) 1220 (2018) 21600 1280 2070 6900 11000 21500 32700 35200 40200 49200
2020-06-24 18:45 6.73 12000 50600 (2019) 1220 (2018) 21600 1280 2070 6900 11000 21500 32700 35200 40200 49200
2020-06-24 17:45 6.68 11900 50600 (2019) 1220 (2018) 21600 1280 2070 6900 11000 21500 32700 35200 40200 49200
2020-06-24 16:45 6.68 11900 50600 (2019) 1220 (2018) 21600 1280 2070 6900 11000 21500 32700 35200 40200 49200
2020-06-24 15:45 6.74 12100 50600 (2019) 1220 (2018) 21600 1280 2070 6900 11000 21500 32700 35200 40200 49200
2020-06-24 14:45 6.85 12400 50600 (2019) 1220 (2018) 21600 1280 2070 6900 11000 21500 32700 35200 40200 49200
2020-06-24 13:45 6.97 12800 50600 (2019) 1220 (2018) 21600 1280 2070 6900 11000 21500 32700 35200 40200 49200
2020-06-24 12:45 7.11 13200 50600 (2019) 1220 (2018) 21600 1280 2070 6900 11000 21500 32700 35200 40200 49200
2020-06-24 11:45 7.27 13700 50600 (2019) 1220 (2018) 21600 1280 2070 6900 11000 21500 32700 35200 40200 49200
2020-06-24 10:45 7.42 14200 50600 (2019) 1220 (2018) 21600 1280 2070 6900 11000 21500 32700 35200 40200 49200
2020-06-24 09:45 7.57 14700 50600 (2019) 1220 (2018) 21600 1280 2070 6900 11000 21500 32700 35200 40200 49200
2020-06-24 08:45 7.72 15200 50600 (2019) 1220 (2018) 21600 1280 2070 6900 11000 21500 32700 35200 40200 49200
2020-06-24 07:45 7.88 15700 50600 (2019) 1220 (2018) 21600 1280 2070 6900 11000 21500 32700 35200 40200 49200
2020-06-24 06:45 8.01 16200 50600 (2019) 1220 (2018) 21600 1280 2070 6900 11000 21500 32700 35200 40200 49200
2020-06-24 05:45 8.13 16600 50600 (2019) 1220 (2018) 21600 1280 2070 6900 11000 21500 32700 35200 40200 49200
2020-06-24 04:45 8.23 16900 50600 (2019) 1220 (2018) 21600 1280 2070 6900 11000 21500 32700 35200 40200 49200
2020-06-24 03:45 8.31 17200 50600 (2019) 1220 (2018) 21600 1280 2070 6900 11000 21500 32700 35200 40200 49200
2020-06-24 02:45 8.39 17500 50600 (2019) 1220 (2018) 21600 1280 2070 6900 11000 21500 32700 35200 40200 49200
2020-06-24 01:45 8.43 17600 50600 (2019) 1220 (2018) 21600 1280 2070 6900 11000 21500 32700 35200 40200 49200
2020-06-24 00:45 8.41 17600 50600 (2019) 1220 (2018) 21600 1280 2070 6900 11000 21500 32700 35200 40200 49200
2020-06-23 23:45 8.37 17400 51300 (2019) 1000 (2003) 22300 1040 1650 4450 9680 21000 34700 35200 41900 49900
2020-06-23 22:45 8.30 17200 51300 (2019) 1000 (2003) 22300 1040 1650 4450 9680 21000 34700 35200 41900 49900
2020-06-23 21:45 8.19 16800 51300 (2019) 1000 (2003) 22300 1040 1650 4450 9680 21000 34700 35200 41900 49900
2020-06-23 20:45 8.07 16400 51300 (2019) 1000 (2003) 22300 1040 1650 4450 9680 21000 34700 35200 41900 49900
2020-06-23 19:45 7.97 16000 51300 (2019) 1000 (2003) 22300 1040 1650 4450 9680 21000 34700 35200 41900 49900
2020-06-23 18:45 7.90 15800 51300 (2019) 1000 (2003) 22300 1040 1650 4450 9680 21000 34700 35200 41900 49900
2020-06-23 17:45 7.87 15700 51300 (2019) 1000 (2003) 22300 1040 1650 4450 9680 21000 34700 35200 41900 49900
2020-06-23 16:45 7.88 15700 51300 (2019) 1000 (2003) 22300 1040 1650 4450 9680 21000 34700 35200 41900 49900
2020-06-23 15:45 7.94 15900 51300 (2019) 1000 (2003) 22300 1040 1650 4450 9680 21000 34700 35200 41900 49900
2020-06-23 14:45 8.06 16300 51300 (2019) 1000 (2003) 22300 1040 1650 4450 9680 21000 34700 35200 41900 49900
2020-06-23 13:45 8.18 16800 51300 (2019) 1000 (2003) 22300 1040 1650 4450 9680 21000 34700 35200 41900 49900
2020-06-23 12:45 8.26 17000 51300 (2019) 1000 (2003) 22300 1040 1650 4450 9680 21000 34700 35200 41900 49900
2020-06-23 11:45 8.39 17500 51300 (2019) 1000 (2003) 22300 1040 1650 4450 9680 21000 34700 35200 41900 49900
2020-06-23 10:45 8.49 17800 51300 (2019) 1000 (2003) 22300 1040 1650 4450 9680 21000 34700 35200 41900 49900
2020-06-23 09:45 8.61 18300 51300 (2019) 1000 (2003) 22300 1040 1650 4450 9680 21000 34700 35200 41900 49900
2020-06-23 08:45 8.73 18700 51300 (2019) 1000 (2003) 22300 1040 1650 4450 9680 21000 34700 35200 41900 49900
2020-06-23 07:45 8.86 19200 51300 (2019) 1000 (2003) 22300 1040 1650 4450 9680 21000 34700 35200 41900 49900
2020-06-23 06:45 8.97 19700 51300 (2019) 1000 (2003) 22300 1040 1650 4450 9680 21000 34700 35200 41900 49900
2020-06-23 05:45 9.07 20100 51300 (2019) 1000 (2003) 22300 1040 1650 4450 9680 21000 34700 35200 41900 49900
2020-06-23 04:45 9.21 20600 51300 (2019) 1000 (2003) 22300 1040 1650 4450 9680 21000 34700 35200 41900 49900
2020-06-23 03:45 9.25 20800 51300 (2019) 1000 (2003) 22300 1040 1650 4450 9680 21000 34700 35200 41900 49900
2020-06-23 02:45 9.37 21300 51300 (2019) 1000 (2003) 22300 1040 1650 4450 9680 21000 34700 35200 41900 49900
2020-06-23 01:45 9.40 21400 51300 (2019) 1000 (2003) 22300 1040 1650 4450 9680 21000 34700 35200 41900 49900
2020-06-23 00:45 9.43 21500 51300 (2019) 1000 (2003) 22300 1040 1650 4450 9680 21000 34700 35200 41900 49900
2020-06-22 23:45 9.43 21500 50900 (2019) 1240 (2003) 21100 1260 1370 2200 3990 21400 34800 35500 41000 49500
2020-06-22 22:45 9.38 21300 50900 (2019) 1240 (2003) 21100 1260 1370 2200 3990 21400 34800 35500 41000 49500
2020-06-22 21:45 9.38 21300 50900 (2019) 1240 (2003) 21100 1260 1370 2200 3990 21400 34800 35500 41000 49500
2020-06-22 20:45 9.39 21300 50900 (2019) 1240 (2003) 21100 1260 1370 2200 3990 21400 34800 35500 41000 49500
2020-06-22 19:45 9.43 21500 50900 (2019) 1240 (2003) 21100 1260 1370 2200 3990 21400 34800 35500 41000 49500
2020-06-22 18:45 9.46 21600 50900 (2019) 1240 (2003) 21100 1260 1370 2200 3990 21400 34800 35500 41000 49500
2020-06-22 17:45 9.54 22000 50900 (2019) 1240 (2003) 21100 1260 1370 2200 3990 21400 34800 35500 41000 49500
2020-06-22 16:45 9.72 22600 50900 (2019) 1240 (2003) 21100 1260 1370 2200 3990 21400 34800 35500 41000 49500
2020-06-22 15:45 9.89 23200 50900 (2019) 1240 (2003) 21100 1260 1370 2200 3990 21400 34800 35500 41000 49500
2020-06-22 14:45 10.09 23800 50900 (2019) 1240 (2003) 21100 1260 1370 2200 3990 21400 34800 35500 41000 49500
2020-06-22 13:45 10.28 24500 50900 (2019) 1240 (2003) 21100 1260 1370 2200 3990 21400 34800 35500 41000 49500
2020-06-22 12:45 10.48 25200 50900 (2019) 1240 (2003) 21100 1260 1370 2200 3990 21400 34800 35500 41000 49500
2020-06-22 11:45 10.66 25800 50900 (2019) 1240 (2003) 21100 1260 1370 2200 3990 21400 34800 35500 41000 49500
2020-06-22 10:45 10.84 26400 50900 (2019) 1240 (2003) 21100 1260 1370 2200 3990 21400 34800 35500 41000 49500
2020-06-22 09:45 11.01 27100 50900 (2019) 1240 (2003) 21100 1260 1370 2200 3990 21400 34800 35500 41000 49500
2020-06-22 08:45 11.19 27700 50900 (2019) 1240 (2003) 21100 1260 1370 2200 3990 21400 34800 35500 41000 49500
2020-06-22 07:45 11.35 28300 50900 (2019) 1240 (2003) 21100 1260 1370 2200 3990 21400 34800 35500 41000 49500
2020-06-22 06:45 11.48 28800 50900 (2019) 1240 (2003) 21100 1260 1370 2200 3990 21400 34800 35500 41000 49500
2020-06-22 05:45 11.63 29400 50900 (2019) 1240 (2003) 21100 1260 1370 2200 3990 21400 34800 35500 41000 49500
2020-06-22 04:45 11.68 29500 50900 (2019) 1240 (2003) 21100 1260 1370 2200 3990 21400 34800 35500 41000 49500
2020-06-22 03:45 11.68 29500 50900 (2019) 1240 (2003) 21100 1260 1370 2200 3990 21400 34800 35500 41000 49500
2020-06-22 02:45 11.68 29500 50900 (2019) 1240 (2003) 21100 1260 1370 2200 3990 21400 34800 35500 41000 49500
2020-06-22 01:45 11.59 29200 50900 (2019) 1240 (2003) 21100 1260 1370 2200 3990 21400 34800 35500 41000 49500
2020-06-22 00:45 11.47 28800 50900 (2019) 1240 (2003) 21100 1260 1370 2200 3990 21400 34800 35500 41000 49500
2020-06-21 23:45 11.31 28200 50900 (2019) 967 (2006) 21800 1010 1440 1960 8000 23900 32900 34000 43700 50100
2020-06-21 22:45 11.11 27400 50900 (2019) 967 (2006) 21800 1010 1440 1960 8000 23900 32900 34000 43700 50100
2020-06-21 21:45 10.91 26700 50900 (2019) 967 (2006) 21800 1010 1440 1960 8000 23900 32900 34000 43700 50100
2020-06-21 20:45 10.67 25900 50900 (2019) 967 (2006) 21800 1010 1440 1960 8000 23900 32900 34000 43700 50100
2020-06-21 19:45 10.51 25300 50900 (2019) 967 (2006) 21800 1010 1440 1960 8000 23900 32900 34000 43700 50100
2020-06-21 18:45 10.33 24700 50900 (2019) 967 (2006) 21800 1010 1440 1960 8000 23900 32900 34000 43700 50100
2020-06-21 17:45 10.19 24200 50900 (2019) 967 (2006) 21800 1010 1440 1960 8000 23900 32900 34000 43700 50100
2020-06-21 16:45 10.06 23700 50900 (2019) 967 (2006) 21800 1010 1440 1960 8000 23900 32900 34000 43700 50100
2020-06-21 15:45 9.93 23300 50900 (2019) 967 (2006) 21800 1010 1440 1960 8000 23900 32900 34000 43700 50100
2020-06-21 14:45 9.87 23100 50900 (2019) 967 (2006) 21800 1010 1440 1960 8000 23900 32900 34000 43700 50100
2020-06-21 13:45 9.79 22800 50900 (2019) 967 (2006) 21800 1010 1440 1960 8000 23900 32900 34000 43700 50100
2020-06-21 12:45 9.72 22600 50900 (2019) 967 (2006) 21800 1010 1440 1960 8000 23900 32900 34000 43700 50100
2020-06-21 11:45 9.72 22600 50900 (2019) 967 (2006) 21800 1010 1440 1960 8000 23900 32900 34000 43700 50100
2020-06-21 10:45 9.72 22600 50900 (2019) 967 (2006) 21800 1010 1440 1960 8000 23900 32900 34000 43700 50100
2020-06-21 09:45 9.71 22600 50900 (2019) 967 (2006) 21800 1010 1440 1960 8000 23900 32900 34000 43700 50100
2020-06-21 08:45 9.70 22500 50900 (2019) 967 (2006) 21800 1010 1440 1960 8000 23900 32900 34000 43700 50100
2020-06-21 07:45 9.71 22600 50900 (2019) 967 (2006) 21800 1010 1440 1960 8000 23900 32900 34000 43700 50100
2020-06-21 06:45 9.70 22500 50900 (2019) 967 (2006) 21800 1010 1440 1960 8000 23900 32900 34000 43700 50100
2020-06-21 05:45 9.71 22600 50900 (2019) 967 (2006) 21800 1010 1440 1960 8000 23900 32900 34000 43700 50100
2020-06-21 04:45 9.73 22600 50900 (2019) 967 (2006) 21800 1010 1440 1960 8000 23900 32900 34000 43700 50100
2020-06-21 03:45 9.75 22700 50900 (2019) 967 (2006) 21800 1010 1440 1960 8000 23900 32900 34000 43700 50100
2020-06-21 02:45 9.84 23000 50900 (2019) 967 (2006) 21800 1010 1440 1960 8000 23900 32900 34000 43700 50100
2020-06-21 01:45 9.89 23200 50900 (2019) 967 (2006) 21800 1010 1440 1960 8000 23900 32900 34000 43700 50100
2020-06-21 00:45 9.98 23500 50900 (2019) 967 (2006) 21800 1010 1440 1960 8000 23900 32900 34000 43700 50100
2020-06-20 23:45 10.09 23800 50200 (2019) 589 (2006) 19700 697 1640 3320 4110 22100 30500 30800 40600 49100
2020-06-20 22:45 10.21 24200 50200 (2019) 589 (2006) 19700 697 1640 3320 4110 22100 30500 30800 40600 49100
2020-06-20 21:45 10.32 24600 50200 (2019) 589 (2006) 19700 697 1640 3320 4110 22100 30500 30800 40600 49100
2020-06-20 20:45 10.40 24900 50200 (2019) 589 (2006) 19700 697 1640 3320 4110 22100 30500 30800 40600 49100
2020-06-20 19:45 10.55 25400 50200 (2019) 589 (2006) 19700 697 1640 3320 4110 22100 30500 30800 40600 49100
2020-06-20 18:45 10.71 26000 50200 (2019) 589 (2006) 19700 697 1640 3320 4110 22100 30500 30800 40600 49100
2020-06-20 17:45 10.84 26400 50200 (2019) 589 (2006) 19700 697 1640 3320 4110 22100 30500 30800 40600 49100
2020-06-20 16:45 11.00 27000 50200 (2019) 589 (2006) 19700 697 1640 3320 4110 22100 30500 30800 40600 49100
2020-06-20 15:45 11.16 27600 50200 (2019) 589 (2006) 19700 697 1640 3320 4110 22100 30500 30800 40600 49100
2020-06-20 14:45 11.36 28300 50200 (2019) 589 (2006) 19700 697 1640 3320 4110 22100 30500 30800 40600 49100
2020-06-20 13:45 11.52 29000 50200 (2019) 589 (2006) 19700 697 1640 3320 4110 22100 30500 30800 40600 49100
2020-06-20 12:45 11.71 29600 50200 (2019) 589 (2006) 19700 697 1640 3320 4110 22100 30500 30800 40600 49100
2020-06-20 11:45 11.86 30200 50200 (2019) 589 (2006) 19700 697 1640 3320 4110 22100 30500 30800 40600 49100
2020-06-20 10:45 12.09 31100 50200 (2019) 589 (2006) 19700 697 1640 3320 4110 22100 30500 30800 40600 49100
2020-06-20 09:45 12.24 31700 50200 (2019) 589 (2006) 19700 697 1640 3320 4110 22100 30500 30800 40600 49100
2020-06-20 08:45 12.43 32400 50200 (2019) 589 (2006) 19700 697 1640 3320 4110 22100 30500 30800 40600 49100
2020-06-20 07:45 12.58 33000 50200 (2019) 589 (2006) 19700 697 1640 3320 4110 22100 30500 30800 40600 49100
2020-06-20 06:45 12.66 33300 50200 (2019) 589 (2006) 19700 697 1640 3320 4110 22100 30500 30800 40600 49100
2020-06-20 05:45 12.73 33600 50200 (2019) 589 (2006) 19700 697 1640 3320 4110 22100 30500 30800 40600 49100
2020-06-20 04:45 12.74 33600 50200 (2019) 589 (2006) 19700 697 1640 3320 4110 22100 30500 30800 40600 49100
2020-06-20 03:45 12.72 33500 50200 (2019) 589 (2006) 19700 697 1640 3320 4110 22100 30500 30800 40600 49100
2020-06-20 02:45 12.58 33000 50200 (2019) 589 (2006) 19700 697 1640 3320 4110 22100 30500 30800 40600 49100
2020-06-20 01:45 12.53 32800 50200 (2019) 589 (2006) 19700 697 1640 3320 4110 22100 30500 30800 40600 49100
2020-06-20 00:45 12.36 32100 50200 (2019) 589 (2006) 19700 697 1640 3320 4110 22100 30500 30800 40600 49100
2020-06-19 23:45 12.24 31700 51600 (2019) 615 (2000) 20500 643 956 3810 5810 23500 30400 32500 41700 50600
2020-06-19 22:45 12.05 31000 51600 (2019) 615 (2000) 20500 643 956 3810 5810 23500 30400 32500 41700 50600
2020-06-19 21:45 11.94 30500 51600 (2019) 615 (2000) 20500 643 956 3810 5810 23500 30400 32500 41700 50600
2020-06-19 20:45 11.74 29800 51600 (2019) 615 (2000) 20500 643 956 3810 5810 23500 30400 32500 41700 50600
2020-06-19 19:45 11.57 29100 51600 (2019) 615 (2000) 20500 643 956 3810 5810 23500 30400 32500 41700 50600
2020-06-19 18:45 11.38 28400 51600 (2019) 615 (2000) 20500 643 956 3810 5810 23500 30400 32500 41700 50600
2020-06-19 17:45 11.21 27800 51600 (2019) 615 (2000) 20500 643 956 3810 5810 23500 30400 32500 41700 50600
2020-06-19 16:45 11.07 27300 51600 (2019) 615 (2000) 20500 643 956 3810 5810 23500 30400 32500 41700 50600
2020-06-19 15:45 10.90 26700 51600 (2019) 615 (2000) 20500 643 956 3810 5810 23500 30400 32500 41700 50600
2020-06-19 14:45 10.81 26400 51600 (2019) 615 (2000) 20500 643 956 3810 5810 23500 30400 32500 41700 50600
2020-06-19 13:45 10.76 26200 51600 (2019) 615 (2000) 20500 643 956 3810 5810 23500 30400 32500 41700 50600
2020-06-19 12:45 10.78 26300 51600 (2019) 615 (2000) 20500 643 956 3810 5810 23500 30400 32500 41700 50600
2020-06-19 11:45 10.86 26500 51600 (2019) 615 (2000) 20500 643 956 3810 5810 23500 30400 32500 41700 50600
2020-06-19 10:45 10.91 26700 51600 (2019) 615 (2000) 20500 643 956 3810 5810 23500 30400 32500 41700 50600
2020-06-19 09:45 10.90 26700 51600 (2019) 615 (2000) 20500 643 956 3810 5810 23500 30400 32500 41700 50600
2020-06-19 08:45 10.94 26800 51600 (2019) 615 (2000) 20500 643 956 3810 5810 23500 30400 32500 41700 50600
2020-06-19 07:45 10.91 26700 51600 (2019) 615 (2000) 20500 643 956 3810 5810 23500 30400 32500 41700 50600
2020-06-19 06:45 10.79 26300 51600 (2019) 615 (2000) 20500 643 956 3810 5810 23500 30400 32500 41700 50600
2020-06-19 05:45 10.59 25600 51600 (2019) 615 (2000) 20500 643 956 3810 5810 23500 30400 32500 41700 50600
2020-06-19 04:45 10.37 24800 51600 (2019) 615 (2000) 20500 643 956 3810 5810 23500 30400 32500 41700 50600
2020-06-19 03:45 10.13 24000 51600 (2019) 615 (2000) 20500 643 956 3810 5810 23500 30400 32500 41700 50600
2020-06-19 02:45 9.85 23000 51600 (2019) 615 (2000) 20500 643 956 3810 5810 23500 30400 32500 41700 50600
2020-06-19 01:45 9.59 22100 51600 (2019) 615 (2000) 20500 643 956 3810 5810 23500 30400 32500 41700 50600
2020-06-19 00:45 9.45 21600 51600 (2019) 615 (2000) 20500 643 956 3810 5810 23500 30400 32500 41700 50600
2020-06-18 23:45 9.40 21400 53400 (2019) 901 (2000) 22700 977 1440 2800 9370 26700 33000 33500 42300 51900
2020-06-18 22:45 9.42 21500 53400 (2019) 901 (2000) 22700 977 1440 2800 9370 26700 33000 33500 42300 51900
2020-06-18 21:45 9.51 21800 53400 (2019) 901 (2000) 22700 977 1440 2800 9370 26700 33000 33500 42300 51900
2020-06-18 20:45 9.63 22300 53400 (2019) 901 (2000) 22700 977 1440 2800 9370 26700 33000 33500 42300 51900
2020-06-18 19:45 9.75 22700 53400 (2019) 901 (2000) 22700 977 1440 2800 9370 26700 33000 33500 42300 51900
2020-06-18 18:45 9.89 23200 53400 (2019) 901 (2000) 22700 977 1440 2800 9370 26700 33000 33500 42300 51900
2020-06-18 17:45 9.99 23500 53400 (2019) 901 (2000) 22700 977 1440 2800 9370 26700 33000 33500 42300 51900
2020-06-18 16:45 10.13 24000 53400 (2019) 901 (2000) 22700 977 1440 2800 9370 26700 33000 33500 42300 51900
2020-06-18 15:45 10.26 24400 53400 (2019) 901 (2000) 22700 977 1440 2800 9370 26700 33000 33500 42300 51900
2020-06-18 14:45 10.30 24600 53400 (2019) 901 (2000) 22700 977 1440 2800 9370 26700 33000 33500 42300 51900
2020-06-18 13:45 10.44 25000 53400 (2019) 901 (2000) 22700 977 1440 2800 9370 26700 33000 33500 42300 51900
2020-06-18 12:45 10.56 25500 53400 (2019) 901 (2000) 22700 977 1440 2800 9370 26700 33000 33500 42300 51900
2020-06-18 11:45 10.60 25600 53400 (2019) 901 (2000) 22700 977 1440 2800 9370 26700 33000 33500 42300 51900
2020-06-18 10:45 10.63 25700 53400 (2019) 901 (2000) 22700 977 1440 2800 9370 26700 33000 33500 42300 51900
2020-06-18 09:45 10.67 25900 53400 (2019) 901 (2000) 22700 977 1440 2800 9370 26700 33000 33500 42300 51900
2020-06-18 08:45 10.70 26000 53400 (2019) 901 (2000) 22700 977 1440 2800 9370 26700 33000 33500 42300 51900
2020-06-18 07:45 10.73 26100 53400 (2019) 901 (2000) 22700 977 1440 2800 9370 26700 33000 33500 42300 51900
2020-06-18 06:45 10.76 26200 53400 (2019) 901 (2000) 22700 977 1440 2800 9370 26700 33000 33500 42300 51900
2020-06-18 05:45 10.71 26000 53400 (2019) 901 (2000) 22700 977 1440 2800 9370 26700 33000 33500 42300 51900
2020-06-18 04:45 10.81 26400 53400 (2019) 901 (2000) 22700 977 1440 2800 9370 26700 33000 33500 42300 51900
2020-06-18 03:45 10.87 26600 53400 (2019) 901 (2000) 22700 977 1440 2800 9370 26700 33000 33500 42300 51900
2020-06-18 02:45 10.88 26600 53400 (2019) 901 (2000) 22700 977 1440 2800 9370 26700 33000 33500 42300 51900
2020-06-18 01:45 10.91 26700 53400 (2019) 901 (2000) 22700 977 1440 2800 9370 26700 33000 33500 42300 51900
2020-06-18 00:45 10.85 26500 53400 (2019) 901 (2000) 22700 977 1440 2800 9370 26700 33000 33500 42300 51900
2020-06-17 23:45 10.76 26200 65400 (2009) 1080 (2000) 23900 1160 1720 3560 9680 23600 32600 34300 51500 64200
2020-06-17 22:45 10.62 25700 65400 (2009) 1080 (2000) 23900 1160 1720 3560 9680 23600 32600 34300 51500 64200
2020-06-17 21:45 10.42 25000 65400 (2009) 1080 (2000) 23900 1160 1720 3560 9680 23600 32600 34300 51500 64200
2020-06-17 20:45 10.25 24400 65400 (2009) 1080 (2000) 23900 1160 1720 3560 9680 23600 32600 34300 51500 64200
2020-06-17 19:45 10.13 24000 65400 (2009) 1080 (2000) 23900 1160 1720 3560 9680 23600 32600 34300 51500 64200
2020-06-17 18:45 10.03 23600 65400 (2009) 1080 (2000) 23900 1160 1720 3560 9680 23600 32600 34300 51500 64200
2020-06-17 17:45 9.98 23500 65400 (2009) 1080 (2000) 23900 1160 1720 3560 9680 23600 32600 34300 51500 64200
2020-06-17 16:45 9.90 23200 65400 (2009) 1080 (2000) 23900 1160 1720 3560 9680 23600 32600 34300 51500 64200
2020-06-17 15:45 10.06 23700 65400 (2009) 1080 (2000) 23900 1160 1720 3560 9680 23600 32600 34300 51500 64200
2020-06-17 14:45 10.13 24000 65400 (2009) 1080 (2000) 23900 1160 1720 3560 9680 23600 32600 34300 51500 64200
2020-06-17 13:45 10.27 24500 65400 (2009) 1080 (2000) 23900 1160 1720 3560 9680 23600 32600 34300 51500 64200
2020-06-17 12:45 10.40 24900 65400 (2009) 1080 (2000) 23900 1160 1720 3560 9680 23600 32600 34300 51500 64200
2020-06-17 11:45 10.55 25400 65400 (2009) 1080 (2000) 23900 1160 1720 3560 9680 23600 32600 34300 51500 64200
2020-06-17 10:45 10.66 25800 65400 (2009) 1080 (2000) 23900 1160 1720 3560 9680 23600 32600 34300 51500 64200
2020-06-17 09:45 10.78 26300 65400 (2009) 1080 (2000) 23900 1160 1720 3560 9680 23600 32600 34300 51500 64200
2020-06-17 08:45 10.87 26600 65400 (2009) 1080 (2000) 23900 1160 1720 3560 9680 23600 32600 34300 51500 64200
2020-06-17 07:45 10.96 26900 65400 (2009) 1080 (2000) 23900 1160 1720 3560 9680 23600 32600 34300 51500 64200
2020-06-17 06:45 11.04 27200 65400 (2009) 1080 (2000) 23900 1160 1720 3560 9680 23600 32600 34300 51500 64200
2020-06-17 05:45 11.07 27300 65400 (2009) 1080 (2000) 23900 1160 1720 3560 9680 23600 32600 34300 51500 64200
2020-06-17 04:45 11.08 27300 65400 (2009) 1080 (2000) 23900 1160 1720 3560 9680 23600 32600 34300 51500 64200
2020-06-17 03:45 11.07 27300 65400 (2009) 1080 (2000) 23900 1160 1720 3560 9680 23600 32600 34300 51500 64200
2020-06-17 02:45 11.10 27400 65400 (2009) 1080 (2000) 23900 1160 1720 3560 9680 23600 32600 34300 51500 64200
2020-06-17 01:45 11.04 27200 65400 (2009) 1080 (2000) 23900 1160 1720 3560 9680 23600 32600 34300 51500 64200
2020-06-17 00:45 10.85 26500 65400 (2009) 1080 (2000) 23900 1160 1720 3560 9680 23600 32600 34300 51500 64200
2020-06-16 23:45 10.76 26200 59200 (2019) 877 (2000) 22100 934 1570 3110 3510 24700 32400 32900 51200 58700
2020-06-16 22:45 10.55 25400 59200 (2019) 877 (2000) 22100 934 1570 3110 3510 24700 32400 32900 51200 58700
2020-06-16 21:45 10.29 24500 59200 (2019) 877 (2000) 22100 934 1570 3110 3510 24700 32400 32900 51200 58700
2020-06-16 20:45 10.04 23600 59200 (2019) 877 (2000) 22100 934 1570 3110 3510 24700 32400 32900 51200 58700
2020-06-16 19:45 9.78 22800 59200 (2019) 877 (2000) 22100 934 1570 3110 3510 24700 32400 32900 51200 58700
2020-06-16 18:45 9.69 22500 59200 (2019) 877 (2000) 22100 934 1570 3110 3510 24700 32400 32900 51200 58700
2020-06-16 17:45 9.62 22200 59200 (2019) 877 (2000) 22100 934 1570 3110 3510 24700 32400 32900 51200 58700
2020-06-16 16:45 9.65 22300 59200 (2019) 877 (2000) 22100 934 1570 3110 3510 24700 32400 32900 51200 58700
2020-06-16 15:45 9.73 22600 59200 (2019) 877 (2000) 22100 934 1570 3110 3510 24700 32400 32900 51200 58700
2020-06-16 14:45 9.87 23100 59200 (2019) 877 (2000) 22100 934 1570 3110 3510 24700 32400 32900 51200 58700
2020-06-16 13:45 10.03 23600 59200 (2019) 877 (2000) 22100 934 1570 3110 3510 24700 32400 32900 51200 58700
2020-06-16 12:45 10.22 24300 59200 (2019) 877 (2000) 22100 934 1570 3110 3510 24700 32400 32900 51200 58700
2020-06-16 11:45 10.44 25000 59200 (2019) 877 (2000) 22100 934 1570 3110 3510 24700 32400 32900 51200 58700
2020-06-16 10:45 10.66 25800 59200 (2019) 877 (2000) 22100 934 1570 3110 3510 24700 32400 32900 51200 58700
2020-06-16 09:45 10.90 26700 59200 (2019) 877 (2000) 22100 934 1570 3110 3510 24700 32400 32900 51200 58700
2020-06-16 08:45 11.09 27400 59200 (2019) 877 (2000) 22100 934 1570 3110 3510 24700 32400 32900 51200 58700
2020-06-16 07:45 11.29 28100 59200 (2019) 877 (2000) 22100 934 1570 3110 3510 24700 32400 32900 51200 58700
2020-06-16 06:45 11.48 28800 59200 (2019) 877 (2000) 22100 934 1570 3110 3510 24700 32400 32900 51200 58700
2020-06-16 05:45 11.56 29100 59200 (2019) 877 (2000) 22100 934 1570 3110 3510 24700 32400 32900 51200 58700
2020-06-16 04:45 11.66 29400 59200 (2019) 877 (2000) 22100 934 1570 3110 3510 24700 32400 32900 51200 58700
2020-06-16 03:45 11.69 29600 59200 (2019) 877 (2000) 22100 934 1570 3110 3510 24700 32400 32900 51200 58700
2020-06-16 02:45 11.68 29500 59200 (2019) 877 (2000) 22100 934 1570 3110 3510 24700 32400 32900 51200 58700
2020-06-16 01:45 11.61 29300 59200 (2019) 877 (2000) 22100 934 1570 3110 3510 24700 32400 32900 51200 58700
2020-06-16 00:45 11.49 28800 59200 (2019) 877 (2000) 22100 934 1570 3110 3510 24700 32400 32900 51200 58700
2020-06-15 23:45 11.33 28200 59000 (2019) 1160 (2006) 20800 1170 1340 1970 3290 22100 33800 34300 40200 56300
2020-06-15 22:45 11.18 27700 59000 (2019) 1160 (2006) 20800 1170 1340 1970 3290 22100 33800 34300 40200 56300
2020-06-15 21:45 11.01 27100 59000 (2019) 1160 (2006) 20800 1170 1340 1970 3290 22100 33800 34300 40200 56300
2020-06-15 20:45 10.88 26600 59000 (2019) 1160 (2006) 20800 1170 1340 1970 3290 22100 33800 34300 40200 56300
2020-06-15 19:45 10.74 26100 59000 (2019) 1160 (2006) 20800 1170 1340 1970 3290 22100 33800 34300 40200 56300
2020-06-15 18:45 10.69 25900 59000 (2019) 1160 (2006) 20800 1170 1340 1970 3290 22100 33800 34300 40200 56300
2020-06-15 17:45 10.67 25900 59000 (2019) 1160 (2006) 20800 1170 1340 1970 3290 22100 33800 34300 40200 56300
2020-06-15 16:45 10.72 26000 59000 (2019) 1160 (2006) 20800 1170 1340 1970 3290 22100 33800 34300 40200 56300
2020-06-15 15:45 10.74 26100 59000 (2019) 1160 (2006) 20800 1170 1340 1970 3290 22100 33800 34300 40200 56300
2020-06-15 14:45 10.88 26600 59000 (2019) 1160 (2006) 20800 1170 1340 1970 3290 22100 33800 34300 40200 56300
2020-06-15 13:45 10.98 27000 59000 (2019) 1160 (2006) 20800 1170 1340 1970 3290 22100 33800 34300 40200 56300
2020-06-15 12:45 11.03 27100 59000 (2019) 1160 (2006) 20800 1170 1340 1970 3290 22100 33800 34300 40200 56300
2020-06-15 11:45 11.15 27600 59000 (2019) 1160 (2006) 20800 1170 1340 1970 3290 22100 33800 34300 40200 56300
2020-06-15 10:45 11.20 27800 59000 (2019) 1160 (2006) 20800 1170 1340 1970 3290 22100 33800 34300 40200 56300
2020-06-15 09:45 11.26 28000 59000 (2019) 1160 (2006) 20800 1170 1340 1970 3290 22100 33800 34300 40200 56300
2020-06-15 08:45 11.31 28200 59000 (2019) 1160 (2006) 20800 1170 1340 1970 3290 22100 33800 34300 40200 56300
2020-06-15 07:45 11.31 28200 59000 (2019) 1160 (2006) 20800 1170 1340 1970 3290 22100 33800 34300 40200 56300
2020-06-15 06:45 11.23 27900 59000 (2019) 1160 (2006) 20800 1170 1340 1970 3290 22100 33800 34300 40200 56300
2020-06-15 05:45 11.19 27700 59000 (2019) 1160 (2006) 20800 1170 1340 1970 3290 22100 33800 34300 40200 56300
2020-06-15 04:45 11.12 27500 59000 (2019) 1160 (2006) 20800 1170 1340 1970 3290 22100 33800 34300 40200 56300
2020-06-15 03:45 11.05 27200 59000 (2019) 1160 (2006) 20800 1170 1340 1970 3290 22100 33800 34300 40200 56300
2020-06-15 02:45 11.03 27100 59000 (2019) 1160 (2006) 20800 1170 1340 1970 3290 22100 33800 34300 40200 56300
2020-06-15 01:45 11.04 27200 59000 (2019) 1160 (2006) 20800 1170 1340 1970 3290 22100 33800 34300 40200 56300
2020-06-15 00:45 10.99 27000 59000 (2019) 1160 (2006) 20800 1170 1340 1970 3290 22100 33800 34300 40200 56300
2020-06-14 23:45 10.94 26800 59200 (2019) 1150 (2006) 22300 1170 1400 3260 5430 25900 34300 34700 39700 56500
2020-06-14 22:45 10.86 26500 59200 (2019) 1150 (2006) 22300 1170 1400 3260 5430 25900 34300 34700 39700 56500
2020-06-14 21:45 10.73 26100 59200 (2019) 1150 (2006) 22300 1170 1400 3260 5430 25900 34300 34700 39700 56500
2020-06-14 20:45 10.53 25400 59200 (2019) 1150 (2006) 22300 1170 1400 3260 5430 25900 34300 34700 39700 56500
2020-06-14 19:45 10.39 24900 59200 (2019) 1150 (2006) 22300 1170 1400 3260 5430 25900 34300 34700 39700 56500
2020-06-14 18:45 10.24 24400 59200 (2019) 1150 (2006) 22300 1170 1400 3260 5430 25900 34300 34700 39700 56500
2020-06-14 17:45 10.11 23900 59200 (2019) 1150 (2006) 22300 1170 1400 3260 5430 25900 34300 34700 39700 56500
2020-06-14 16:45 9.99 23500 59200 (2019) 1150 (2006) 22300 1170 1400 3260 5430 25900 34300 34700 39700 56500
2020-06-14 15:45 9.93 23300 59200 (2019) 1150 (2006) 22300 1170 1400 3260 5430 25900 34300 34700 39700 56500
2020-06-14 14:45 9.89 23200 59200 (2019) 1150 (2006) 22300 1170 1400 3260 5430 25900 34300 34700 39700 56500
2020-06-14 13:45 9.89 23200 59200 (2019) 1150 (2006) 22300 1170 1400 3260 5430 25900 34300 34700 39700 56500
2020-06-14 12:45 9.94 23300 59200 (2019) 1150 (2006) 22300 1170 1400 3260 5430 25900 34300 34700 39700 56500
2020-06-14 11:45 10.01 23600 59200 (2019) 1150 (2006) 22300 1170 1400 3260 5430 25900 34300 34700 39700 56500
2020-06-14 10:45 10.11 23900 59200 (2019) 1150 (2006) 22300 1170 1400 3260 5430 25900 34300 34700 39700 56500
2020-06-14 09:45 10.23 24300 59200 (2019) 1150 (2006) 22300 1170 1400 3260 5430 25900 34300 34700 39700 56500
2020-06-14 08:45 10.36 24800 59200 (2019) 1150 (2006) 22300 1170 1400 3260 5430 25900 34300 34700 39700 56500
2020-06-14 07:45 10.49 25200 59200 (2019) 1150 (2006) 22300 1170 1400 3260 5430 25900 34300 34700 39700 56500
2020-06-14 06:45 10.56 25500 59200 (2019) 1150 (2006) 22300 1170 1400 3260 5430 25900 34300 34700 39700 56500
2020-06-14 05:45 10.69 25900 59200 (2019) 1150 (2006) 22300 1170 1400 3260 5430 25900 34300 34700 39700 56500
2020-06-14 04:45 10.78 26300 59200 (2019) 1150 (2006) 22300 1170 1400 3260 5430 25900 34300 34700 39700 56500
2020-06-14 03:45 10.84 26400 59200 (2019) 1150 (2006) 22300 1170 1400 3260 5430 25900 34300 34700 39700 56500
2020-06-14 02:45 10.95 26800 59200 (2019) 1150 (2006) 22300 1170 1400 3260 5430 25900 34300 34700 39700 56500
2020-06-14 01:45 11.01 27100 59200 (2019) 1150 (2006) 22300 1170 1400 3260 5430 25900 34300 34700 39700 56500
2020-06-14 00:45 11.12 27500 59200 (2019) 1150 (2006) 22300 1170 1400 3260 5430 25900 34300 34700 39700 56500
2020-06-13 23:45 11.21 27800 58500 (2019) 583 (2000) 22400 680 1340 2410 6200 25900 33900 34600 36700 55300
2020-06-13 22:45 11.29 28100 58500 (2019) 583 (2000) 22400 680 1340 2410 6200 25900 33900 34600 36700 55300
2020-06-13 21:45 11.31 28200 58500 (2019) 583 (2000) 22400 680 1340 2410 6200 25900 33900 34600 36700 55300
2020-06-13 20:45 11.38 28400 58500 (2019) 583 (2000) 22400 680 1340 2410 6200 25900 33900 34600 36700 55300
2020-06-13 19:45 11.44 28600 58500 (2019) 583 (2000) 22400 680 1340 2410 6200 25900 33900 34600 36700 55300
2020-06-13 18:45 11.43 28600 58500 (2019) 583 (2000) 22400 680 1340 2410 6200 25900 33900 34600 36700 55300
2020-06-13 17:45 11.50 28900 58500 (2019) 583 (2000) 22400 680 1340 2410 6200 25900 33900 34600 36700 55300
2020-06-13 16:45 11.51 28900 58500 (2019) 583 (2000) 22400 680 1340 2410 6200 25900 33900 34600 36700 55300
2020-06-13 15:45 11.54 29000 58500 (2019) 583 (2000) 22400 680 1340 2410 6200 25900 33900 34600 36700 55300
2020-06-13 14:45 11.63 29400 58500 (2019) 583 (2000) 22400 680 1340 2410 6200 25900 33900 34600 36700 55300
2020-06-13 13:45 11.66 29400 58500 (2019) 583 (2000) 22400 680 1340 2410 6200 25900 33900 34600 36700 55300
2020-06-13 12:45 11.89 30300 58500 (2019) 583 (2000) 22400 680 1340 2410 6200 25900 33900 34600 36700 55300
2020-06-13 11:45 12.09 31100 58500 (2019) 583 (2000) 22400 680 1340 2410 6200 25900 33900 34600 36700 55300
2020-06-13 10:45 12.27 31800 58500 (2019) 583 (2000) 22400 680 1340 2410 6200 25900 33900 34600 36700 55300
2020-06-13 09:45 12.42 32400 58500 (2019) 583 (2000) 22400 680 1340 2410 6200 25900 33900 34600 36700 55300
2020-06-13 08:45 12.70 33500 58500 (2019) 583 (2000) 22400 680 1340 2410 6200 25900 33900 34600 36700 55300
2020-06-13 07:45 12.71 33500 58500 (2019) 583 (2000) 22400 680 1340 2410 6200 25900 33900 34600 36700 55300
2020-06-13 06:45 13.02 34700 58500 (2019) 583 (2000) 22400 680 1340 2410 6200 25900 33900 34600 36700 55300
2020-06-13 05:45 13.10 35100 58500 (2019) 583 (2000) 22400 680 1340 2410 6200 25900 33900 34600 36700 55300
2020-06-13 04:45 13.15 35300 58500 (2019) 583 (2000) 22400 680 1340 2410 6200 25900 33900 34600 36700 55300
2020-06-13 03:45 13.12 35100 58500 (2019) 583 (2000) 22400 680 1340 2410 6200 25900 33900 34600 36700 55300
2020-06-13 02:45 13.15 35300 58500 (2019) 583 (2000) 22400 680 1340 2410 6200 25900 33900 34600 36700 55300
2020-06-13 01:45 13.11 35100 58500 (2019) 583 (2000) 22400 680 1340 2410 6200 25900 33900 34600 36700 55300
2020-06-13 00:45 12.99 34600 58500 (2019) 583 (2000) 22400 680 1340 2410 6200 25900 33900 34600 36700 55300
2020-06-12 23:45 13.03 34800 52000 (2019) 565 (2000) 22900 771 1950 6230 9700 28400 34300 34400 36000 49600
2020-06-12 22:45 12.90 34200 52000 (2019) 565 (2000) 22900 771 1950 6230 9700 28400 34300 34400 36000 49600
2020-06-12 21:45 12.90 34200 52000 (2019) 565 (2000) 22900 771 1950 6230 9700 28400 34300 34400 36000 49600
2020-06-12 20:45 12.84 34000 52000 (2019) 565 (2000) 22900 771 1950 6230 9700 28400 34300 34400 36000 49600
2020-06-12 19:45 12.77 33700 52000 (2019) 565 (2000) 22900 771 1950 6230 9700 28400 34300 34400 36000 49600
2020-06-12 18:45 12.69 33400 52000 (2019) 565 (2000) 22900 771 1950 6230 9700 28400 34300 34400 36000 49600
2020-06-12 17:45 12.62 33100 52000 (2019) 565 (2000) 22900 771 1950 6230 9700 28400 34300 34400 36000 49600
2020-06-12 16:45 12.54 32800 52000 (2019) 565 (2000) 22900 771 1950 6230 9700 28400 34300 34400 36000 49600
2020-06-12 15:45 12.48 32600 52000 (2019) 565 (2000) 22900 771 1950 6230 9700 28400 34300 34400 36000 49600
2020-06-12 14:45 12.38 32200 52000 (2019) 565 (2000) 22900 771 1950 6230 9700 28400 34300 34400 36000 49600
2020-06-12 13:45 12.43 32400 52000 (2019) 565 (2000) 22900 771 1950 6230 9700 28400 34300 34400 36000 49600
2020-06-12 12:45 12.40 32300 52000 (2019) 565 (2000) 22900 771 1950 6230 9700 28400 34300 34400 36000 49600
2020-06-12 11:45 12.45 32500 52000 (2019) 565 (2000) 22900 771 1950 6230 9700 28400 34300 34400 36000 49600
2020-06-12 10:45 12.52 32700 52000 (2019) 565 (2000) 22900 771 1950 6230 9700 28400 34300 34400 36000 49600
2020-06-12 09:45 12.63 33200 52000 (2019) 565 (2000) 22900 771 1950 6230 9700 28400 34300 34400 36000 49600
2020-06-12 08:45 12.75 33700 52000 (2019) 565 (2000) 22900 771 1950 6230 9700 28400 34300 34400 36000 49600
2020-06-12 07:45 12.81 33900 52000 (2019) 565 (2000) 22900 771 1950 6230 9700 28400 34300 34400 36000 49600
2020-06-12 06:45 12.86 34100 52000 (2019) 565 (2000) 22900 771 1950 6230 9700 28400 34300 34400 36000 49600
2020-06-12 05:45 12.82 34000 52000 (2019) 565 (2000) 22900 771 1950 6230 9700 28400 34300 34400 36000 49600
2020-06-12 04:45 12.93 34400 52000 (2019) 565 (2000) 22900 771 1950 6230 9700 28400 34300 34400 36000 49600
2020-06-12 03:45 12.84 34000 52000 (2019) 565 (2000) 22900 771 1950 6230 9700 28400 34300 34400 36000 49600
2020-06-12 02:45 12.72 33500 52000 (2019) 565 (2000) 22900 771 1950 6230 9700 28400 34300 34400 36000 49600
2020-06-12 01:45 12.69 33400 52000 (2019) 565 (2000) 22900 771 1950 6230 9700 28400 34300 34400 36000 49600
2020-06-12 00:45 12.62 33100 52000 (2019) 565 (2000) 22900 771 1950 6230 9700 28400 34300 34400 36000 49600
2020-06-11 23:45 12.55 32900 38500 (2002) 672 (2000) 22300 768 1540 5750 6790 26700 34900 35300 36200 38200
2020-06-11 22:45 12.50 32700 38500 (2002) 672 (2000) 22300 768 1540 5750 6790 26700 34900 35300 36200 38200
2020-06-11 21:45 12.40 32300 38500 (2002) 672 (2000) 22300 768 1540 5750 6790 26700 34900 35300 36200 38200
2020-06-11 20:45 12.32 32000 38500 (2002) 672 (2000) 22300 768 1540 5750 6790 26700 34900 35300 36200 38200
2020-06-11 19:45 12.39 32300 38500 (2002) 672 (2000) 22300 768 1540 5750 6790 26700 34900 35300 36200 38200
2020-06-11 18:45 12.38 32200 38500 (2002) 672 (2000) 22300 768 1540 5750 6790 26700 34900 35300 36200 38200
2020-06-11 17:45 12.36 32100 38500 (2002) 672 (2000) 22300 768 1540 5750 6790 26700 34900 35300 36200 38200
2020-06-11 16:45 12.32 32000 38500 (2002) 672 (2000) 22300 768 1540 5750 6790 26700 34900 35300 36200 38200
2020-06-11 15:45 12.38 32200 38500 (2002) 672 (2000) 22300 768 1540 5750 6790 26700 34900 35300 36200 38200
2020-06-11 14:45 12.35 32100 38500 (2002) 672 (2000) 22300 768 1540 5750 6790 26700 34900 35300 36200 38200
2020-06-11 13:45 12.37 32200 38500 (2002) 672 (2000) 22300 768 1540 5750 6790 26700 34900 35300 36200 38200
2020-06-11 12:45 12.35 32100 38500 (2002) 672 (2000) 22300 768 1540 5750 6790 26700 34900 35300 36200 38200
2020-06-11 11:45 12.34 32100 38500 (2002) 672 (2000) 22300 768 1540 5750 6790 26700 34900 35300 36200 38200
2020-06-11 10:45 12.33 32000 38500 (2002) 672 (2000) 22300 768 1540 5750 6790 26700 34900 35300 36200 38200
2020-06-11 09:45 12.32 32000 38500 (2002) 672 (2000) 22300 768 1540 5750 6790 26700 34900 35300 36200 38200
2020-06-11 08:45 12.34 32100 38500 (2002) 672 (2000) 22300 768 1540 5750 6790 26700 34900 35300 36200 38200
2020-06-11 07:45 12.36 32100 38500 (2002) 672 (2000) 22300 768 1540 5750 6790 26700 34900 35300 36200 38200
2020-06-11 06:45 12.39 32300 38500 (2002) 672 (2000) 22300 768 1540 5750 6790 26700 34900 35300 36200 38200
2020-06-11 05:45 12.43 32400 38500 (2002) 672 (2000) 22300 768 1540 5750 6790 26700 34900 35300 36200 38200
2020-06-11 04:45 12.51 32700 38500 (2002) 672 (2000) 22300 768 1540 5750 6790 26700 34900 35300 36200 38200
2020-06-11 03:45 12.59 33000 38500 (2002) 672 (2000) 22300 768 1540 5750 6790 26700 34900 35300 36200 38200
2020-06-11 02:45 12.72 33500 38500 (2002) 672 (2000) 22300 768 1540 5750 6790 26700 34900 35300 36200 38200
2020-06-11 01:45 12.84 34000 38500 (2002) 672 (2000) 22300 768 1540 5750 6790 26700 34900 35300 36200 38200
2020-06-11 00:45 13.00 34600 38500 (2002) 672 (2000) 22300 768 1540 5750 6790 26700 34900 35300 36200 38200
2020-06-10 23:45 13.16 35300 45600 (2002) 1300 (2000) 21600 1300 1340 3780 4240 24500 33900 34500 38300 44700
2020-06-10 22:45 13.36 36100 45600 (2002) 1300 (2000) 21600 1300 1340 3780 4240 24500 33900 34500 38300 44700
2020-06-10 21:45 13.37 36100 45600 (2002) 1300 (2000) 21600 1300 1340 3780 4240 24500 33900 34500 38300 44700
2020-06-10 20:45 13.63 37200 45600 (2002) 1300 (2000) 21600 1300 1340 3780 4240 24500 33900 34500 38300 44700
2020-06-10 19:45 13.86 38200 45600 (2002) 1300 (2000) 21600 1300 1340 3780 4240 24500 33900 34500 38300 44700
2020-06-10 18:45 14.05 39000 45600 (2002) 1300 (2000) 21600 1300 1340 3780 4240 24500 33900 34500 38300 44700
2020-06-10 17:45 14.22 39700 45600 (2002) 1300 (2000) 21600 1300 1340 3780 4240 24500 33900 34500 38300 44700
2020-06-10 16:45 14.54 41000 45600 (2002) 1300 (2000) 21600 1300 1340 3780 4240 24500 33900 34500 38300 44700
2020-06-10 15:45 14.75 42000 45600 (2002) 1300 (2000) 21600 1300 1340 3780 4240 24500 33900 34500 38300 44700
2020-06-10 14:45 14.93 42700 45600 (2002) 1300 (2000) 21600 1300 1340 3780 4240 24500 33900 34500 38300 44700
2020-06-10 13:45 15.28 44300 45600 (2002) 1300 (2000) 21600 1300 1340 3780 4240 24500 33900 34500 38300 44700
2020-06-10 12:45 15.53 45400 45600 (2002) 1300 (2000) 21600 1300 1340 3780 4240 24500 33900 34500 38300 44700
2020-06-10 11:45 15.82 46700 45600 (2002) 1300 (2000) 21600 1300 1340 3780 4240 24500 33900 34500 38300 44700
2020-06-10 10:45 16.09 47900 45600 (2002) 1300 (2000) 21600 1300 1340 3780 4240 24500 33900 34500 38300 44700
2020-06-10 09:45 16.35 49100 45600 (2002) 1300 (2000) 21600 1300 1340 3780 4240 24500 33900 34500 38300 44700
2020-06-10 08:45 16.58 50200 45600 (2002) 1300 (2000) 21600 1300 1340 3780 4240 24500 33900 34500 38300 44700
2020-06-10 07:45 16.78 51100 45600 (2002) 1300 (2000) 21600 1300 1340 3780 4240 24500 33900 34500 38300 44700
2020-06-10 06:45 16.89 51700 45600 (2002) 1300 (2000) 21600 1300 1340 3780 4240 24500 33900 34500 38300 44700
2020-06-10 05:45 16.98 52100 45600 (2002) 1300 (2000) 21600 1300 1340 3780 4240 24500 33900 34500 38300 44700
2020-06-10 04:45 16.96 52000 45600 (2002) 1300 (2000) 21600 1300 1340 3780 4240 24500 33900 34500 38300 44700
2020-06-10 03:45 17.09 52600 45600 (2002) 1300 (2000) 21600 1300 1340 3780 4240 24500 33900 34500 38300 44700
2020-06-10 02:45 17.09 52600 45600 (2002) 1300 (2000) 21600 1300 1340 3780 4240 24500 33900 34500 38300 44700
2020-06-10 01:45 17.06 52400 45600 (2002) 1300 (2000) 21600 1300 1340 3780 4240 24500 33900 34500 38300 44700
2020-06-10 00:45 17.10 52600 45600 (2002) 1300 (2000) 21600 1300 1340 3780 4240 24500 33900 34500 38300 44700
2020-06-09 23:45 17.13 52800 47700 (2002) 1310 (2012) 22500 1340 1600 2480 6880 27100 34700 36600 38500 46300
2020-06-09 22:45 17.10 52600 47700 (2002) 1310 (2012) 22500 1340 1600 2480 6880 27100 34700 36600 38500 46300
2020-06-09 21:45 17.09 52600 47700 (2002) 1310 (2012) 22500 1340 1600 2480 6880 27100 34700 36600 38500 46300
2020-06-09 20:45 17.08 52500 47700 (2002) 1310 (2012) 22500 1340 1600 2480 6880 27100 34700 36600 38500 46300
2020-06-09 19:45 17.02 52200 47700 (2002) 1310 (2012) 22500 1340 1600 2480 6880 27100 34700 36600 38500 46300
2020-06-09 18:45 17.06 52400 47700 (2002) 1310 (2012) 22500 1340 1600 2480 6880 27100 34700 36600 38500 46300
2020-06-09 17:45 16.96 52000 47700 (2002) 1310 (2012) 22500 1340 1600 2480 6880 27100 34700 36600 38500 46300
2020-06-09 16:45 16.97 52100 47700 (2002) 1310 (2012) 22500 1340 1600 2480 6880 27100 34700 36600 38500 46300
2020-06-09 15:45 16.73 50900 47700 (2002) 1310 (2012) 22500 1340 1600 2480 6880 27100 34700 36600 38500 46300
2020-06-09 14:45 16.70 50800 47700 (2002) 1310 (2012) 22500 1340 1600 2480 6880 27100 34700 36600 38500 46300
2020-06-09 13:45 16.56 50100 47700 (2002) 1310 (2012) 22500 1340 1600 2480 6880 27100 34700 36600 38500 46300
2020-06-09 12:45 16.36 49200 47700 (2002) 1310 (2012) 22500 1340 1600 2480 6880 27100 34700 36600 38500 46300
2020-06-09 11:45 16.26 48700 47700 (2002) 1310 (2012) 22500 1340 1600 2480 6880 27100 34700 36600 38500 46300
2020-06-09 10:45 16.04 47700 47700 (2002) 1310 (2012) 22500 1340 1600 2480 6880 27100 34700 36600 38500 46300
2020-06-09 09:45 15.82 46700 47700 (2002) 1310 (2012) 22500 1340 1600 2480 6880 27100 34700 36600 38500 46300
2020-06-09 08:45 15.57 45600 47700 (2002) 1310 (2012) 22500 1340 1600 2480 6880 27100 34700 36600 38500 46300
2020-06-09 07:45 15.07 43300 47700 (2002) 1310 (2012) 22500 1340 1600 2480 6880 27100 34700 36600 38500 46300
2020-06-09 06:45 14.60 41300 47700 (2002) 1310 (2012) 22500 1340 1600 2480 6880 27100 34700 36600 38500 46300
2020-06-09 05:45 14.14 39300 47700 (2002) 1310 (2012) 22500 1340 1600 2480 6880 27100 34700 36600 38500 46300
2020-06-09 04:45 13.97 38600 47700 (2002) 1310 (2012) 22500 1340 1600 2480 6880 27100 34700 36600 38500 46300
2020-06-09 03:45 13.86 38200 47700 (2002) 1310 (2012) 22500 1340 1600 2480 6880 27100 34700 36600 38500 46300
2020-06-09 02:45 13.91 38400 47700 (2002) 1310 (2012) 22500 1340 1600 2480 6880 27100 34700 36600 38500 46300
2020-06-09 01:45 13.90 38300 47700 (2002) 1310 (2012) 22500 1340 1600 2480 6880 27100 34700 36600 38500 46300
2020-06-09 00:45 13.82 38000 47700 (2002) 1310 (2012) 22500 1340 1600 2480 6880 27100 34700 36600 38500 46300
2020-06-08 23:45 13.88 38200 47500 (2002) 501 (2000) 21600 570 1070 2620 5900 23300 35000 35800 39800 46500
2020-06-08 22:45 13.87 38200 47500 (2002) 501 (2000) 21600 570 1070 2620 5900 23300 35000 35800 39800 46500
2020-06-08 21:45 13.89 38300 47500 (2002) 501 (2000) 21600 570 1070 2620 5900 23300 35000 35800 39800 46500
2020-06-08 20:45 13.89 38300 47500 (2002) 501 (2000) 21600 570 1070 2620 5900 23300 35000 35800 39800 46500
2020-06-08 19:45 13.91 38400 47500 (2002) 501 (2000) 21600 570 1070 2620 5900 23300 35000 35800 39800 46500
2020-06-08 18:45 13.94 38500 47500 (2002) 501 (2000) 21600 570 1070 2620 5900 23300 35000 35800 39800 46500
2020-06-08 17:45 13.92 38400 47500 (2002) 501 (2000) 21600 570 1070 2620 5900 23300 35000 35800 39800 46500
2020-06-08 16:45 13.95 38500 47500 (2002) 501 (2000) 21600 570 1070 2620 5900 23300 35000 35800 39800 46500
2020-06-08 15:45 13.94 38500 47500 (2002) 501 (2000) 21600 570 1070 2620 5900 23300 35000 35800 39800 46500
2020-06-08 14:45 14.02 38800 47500 (2002) 501 (2000) 21600 570 1070 2620 5900 23300 35000 35800 39800 46500
2020-06-08 13:45 13.86 38200 47500 (2002) 501 (2000) 21600 570 1070 2620 5900 23300 35000 35800 39800 46500
2020-06-08 12:45 13.95 38500 47500 (2002) 501 (2000) 21600 570 1070 2620 5900 23300 35000 35800 39800 46500
2020-06-08 11:45 14.01 38800 47500 (2002) 501 (2000) 21600 570 1070 2620 5900 23300 35000 35800 39800 46500
2020-06-08 10:45 14.01 38800 47500 (2002) 501 (2000) 21600 570 1070 2620 5900 23300 35000 35800 39800 46500
2020-06-08 09:45 14.06 39000 47500 (2002) 501 (2000) 21600 570 1070 2620 5900 23300 35000 35800 39800 46500
2020-06-08 08:45 13.97 38600 47500 (2002) 501 (2000) 21600 570 1070 2620 5900 23300 35000 35800 39800 46500
2020-06-08 07:45 13.98 38700 47500 (2002) 501 (2000) 21600 570 1070 2620 5900 23300 35000 35800 39800 46500
2020-06-08 06:45 14.02 38800 47500 (2002) 501 (2000) 21600 570 1070 2620 5900 23300 35000 35800 39800 46500
2020-06-08 05:45 14.09 39100 47500 (2002) 501 (2000) 21600 570 1070 2620 5900 23300 35000 35800 39800 46500
2020-06-08 04:45 14.06 39000 47500 (2002) 501 (2000) 21600 570 1070 2620 5900 23300 35000 35800 39800 46500
2020-06-08 03:45 14.05 39000 47500 (2002) 501 (2000) 21600 570 1070 2620 5900 23300 35000 35800 39800 46500
2020-06-08 02:45 14.03 38900 47500 (2002) 501 (2000) 21600 570 1070 2620 5900 23300 35000 35800 39800 46500
2020-06-08 01:45 14.05 39000 47500 (2002) 501 (2000) 21600 570 1070 2620 5900 23300 35000 35800 39800 46500
2020-06-08 00:45 14.02 38800 47500 (2002) 501 (2000) 21600 570 1070 2620 5900 23300 35000 35800 39800 46500
2020-06-07 23:45 14.02 38800 50400 (1999) 544 (2000) 22400 665 1370 1780 2630 28900 36600 37600 45400 49900
2020-06-07 22:45 14.02 38800 50400 (1999) 544 (2000) 22400 665 1370 1780 2630 28900 36600 37600 45400 49900
2020-06-07 21:45 14.05 39000 50400 (1999) 544 (2000) 22400 665 1370 1780 2630 28900 36600 37600 45400 49900
2020-06-07 20:45 14.03 38900 50400 (1999) 544 (2000) 22400 665 1370 1780 2630 28900 36600 37600 45400 49900
2020-06-07 19:45 13.98 38700 50400 (1999) 544 (2000) 22400 665 1370 1780 2630 28900 36600 37600 45400 49900
2020-06-07 18:45 14.01 38800 50400 (1999) 544 (2000) 22400 665 1370 1780 2630 28900 36600 37600 45400 49900
2020-06-07 17:45 13.93 38500 50400 (1999) 544 (2000) 22400 665 1370 1780 2630 28900 36600 37600 45400 49900
2020-06-07 16:45 14.00 38800 50400 (1999) 544 (2000) 22400 665 1370 1780 2630 28900 36600 37600 45400 49900
2020-06-07 15:45 13.93 38500 50400 (1999) 544 (2000) 22400 665 1370 1780 2630 28900 36600 37600 45400 49900
2020-06-07 14:45 13.96 38600 50400 (1999) 544 (2000) 22400 665 1370 1780 2630 28900 36600 37600 45400 49900
2020-06-07 13:45 13.97 38600 50400 (1999) 544 (2000) 22400 665 1370 1780 2630 28900 36600 37600 45400 49900
2020-06-07 12:45 13.99 38700 50400 (1999) 544 (2000) 22400 665 1370 1780 2630 28900 36600 37600 45400 49900
2020-06-07 11:45 13.93 38500 50400 (1999) 544 (2000) 22400 665 1370 1780 2630 28900 36600 37600 45400 49900
2020-06-07 10:45 13.99 38700 50400 (1999) 544 (2000) 22400 665 1370 1780 2630 28900 36600 37600 45400 49900
2020-06-07 09:45 13.98 38700 50400 (1999) 544 (2000) 22400 665 1370 1780 2630 28900 36600 37600 45400 49900
2020-06-07 08:45 14.00 38800 50400 (1999) 544 (2000) 22400 665 1370 1780 2630 28900 36600 37600 45400 49900
2020-06-07 07:45 13.97 38600 50400 (1999) 544 (2000) 22400 665 1370 1780 2630 28900 36600 37600 45400 49900
2020-06-07 06:45 13.91 38400 50400 (1999) 544 (2000) 22400 665 1370 1780 2630 28900 36600 37600 45400 49900
2020-06-07 05:45 13.90 38300 50400 (1999) 544 (2000) 22400 665 1370 1780 2630 28900 36600 37600 45400 49900
2020-06-07 04:45 13.86 38200 50400 (1999) 544 (2000) 22400 665 1370 1780 2630 28900 36600 37600 45400 49900
2020-06-07 03:45 13.80 37900 50400 (1999) 544 (2000) 22400 665 1370 1780 2630 28900 36600 37600 45400 49900
2020-06-07 02:45 13.79 37900 50400 (1999) 544 (2000) 22400 665 1370 1780 2630 28900 36600 37600 45400 49900
2020-06-07 01:45 13.77 37800 50400 (1999) 544 (2000) 22400 665 1370 1780 2630 28900 36600 37600 45400 49900
2020-06-07 00:45 13.72 37600 50400 (1999) 544 (2000) 22400 665 1370 1780 2630 28900 36600 37600 45400 49900
2020-06-06 23:45 13.72 37600 53300 (1999) 543 (2000) 23200 636 1510 3140 3260 28000 39500 40600 44300 52100
2020-06-06 22:45 13.64 37300 53300 (1999) 543 (2000) 23200 636 1510 3140 3260 28000 39500 40600 44300 52100
2020-06-06 21:45 13.63 37200 53300 (1999) 543 (2000) 23200 636 1510 3140 3260 28000 39500 40600 44300 52100
2020-06-06 20:45 13.60 37100 53300 (1999) 543 (2000) 23200 636 1510 3140 3260 28000 39500 40600 44300 52100
2020-06-06 19:45 13.58 37000 53300 (1999) 543 (2000) 23200 636 1510 3140 3260 28000 39500 40600 44300 52100
2020-06-06 18:45 13.57 37000 53300 (1999) 543 (2000) 23200 636 1510 3140 3260 28000 39500 40600 44300 52100
2020-06-06 17:45 13.51 36700 53300 (1999) 543 (2000) 23200 636 1510 3140 3260 28000 39500 40600 44300 52100
2020-06-06 16:45 13.49 36600 53300 (1999) 543 (2000) 23200 636 1510 3140 3260 28000 39500 40600 44300 52100
2020-06-06 15:45 13.41 36300 53300 (1999) 543 (2000) 23200 636 1510 3140 3260 28000 39500 40600 44300 52100
2020-06-06 14:45 13.42 36300 53300 (1999) 543 (2000) 23200 636 1510 3140 3260 28000 39500 40600 44300 52100
2020-06-06 13:45 13.44 36400 53300 (1999) 543 (2000) 23200 636 1510 3140 3260 28000 39500 40600 44300 52100
2020-06-06 12:45 13.42 36300 53300 (1999) 543 (2000) 23200 636 1510 3140 3260 28000 39500 40600 44300 52100
2020-06-06 11:45 13.42 36300 53300 (1999) 543 (2000) 23200 636 1510 3140 3260 28000 39500 40600 44300 52100
2020-06-06 10:45 13.48 36600 53300 (1999) 543 (2000) 23200 636 1510 3140 3260 28000 39500 40600 44300 52100
2020-06-06 09:45 13.54 36800 53300 (1999) 543 (2000) 23200 636 1510 3140 3260 28000 39500 40600 44300 52100
2020-06-06 08:45 13.55 36900 53300 (1999) 543 (2000) 23200 636 1510 3140 3260 28000 39500 40600 44300 52100
2020-06-06 07:45 13.51 36700 53300 (1999) 543 (2000) 23200 636 1510 3140 3260 28000 39500 40600 44300 52100
2020-06-06 06:45 13.61 37100 53300 (1999) 543 (2000) 23200 636 1510 3140 3260 28000 39500 40600 44300 52100
2020-06-06 05:45 13.65 37300 53300 (1999) 543 (2000) 23200 636 1510 3140 3260 28000 39500 40600 44300 52100
2020-06-06 04:45 13.68 37400 53300 (1999) 543 (2000) 23200 636 1510 3140 3260 28000 39500 40600 44300 52100
2020-06-06 03:45 13.72 37600 53300 (1999) 543 (2000) 23200 636 1510 3140 3260 28000 39500 40600 44300 52100
2020-06-06 02:45 13.67 37400 53300 (1999) 543 (2000) 23200 636 1510 3140 3260 28000 39500 40600 44300 52100
2020-06-06 01:45 13.83 38000 53300 (1999) 543 (2000) 23200 636 1510 3140 3260 28000 39500 40600 44300 52100
2020-06-06 00:45 13.87 38200 53300 (1999) 543 (2000) 23200 636 1510 3140 3260 28000 39500 40600 44300 52100
2020-06-05 23:45 13.87 38200 53500 (1999) 559 (2000) 23000 574 761 1380 3720 25400 40600 40900 42100 51800
2020-06-05 22:45 13.95 38500 53500 (1999) 559 (2000) 23000 574 761 1380 3720 25400 40600 40900 42100 51800
2020-06-05 21:45 14.00 38800 53500 (1999) 559 (2000) 23000 574 761 1380 3720 25400 40600 40900 42100 51800
2020-06-05 20:45 13.98 38700 53500 (1999) 559 (2000) 23000 574 761 1380 3720 25400 40600 40900 42100 51800
2020-06-05 19:45 14.12 39200 53500 (1999) 559 (2000) 23000 574 761 1380 3720 25400 40600 40900 42100 51800
2020-06-05 18:45 14.19 39500 53500 (1999) 559 (2000) 23000 574 761 1380 3720 25400 40600 40900 42100 51800
2020-06-05 17:45 14.23 39700 53500 (1999) 559 (2000) 23000 574 761 1380 3720 25400 40600 40900 42100 51800
2020-06-05 16:45 14.27 39900 53500 (1999) 559 (2000) 23000 574 761 1380 3720 25400 40600 40900 42100 51800
2020-06-05 15:45 14.26 39800 53500 (1999) 559 (2000) 23000 574 761 1380 3720 25400 40600 40900 42100 51800
2020-06-05 14:45 14.33 40100 53500 (1999) 559 (2000) 23000 574 761 1380 3720 25400 40600 40900 42100 51800
2020-06-05 13:45 14.33 40100 53500 (1999) 559 (2000) 23000 574 761 1380 3720 25400 40600 40900 42100 51800
2020-06-05 12:45 14.37 40300 53500 (1999) 559 (2000) 23000 574 761 1380 3720 25400 40600 40900 42100 51800
2020-06-05 11:45 14.32 40100 53500 (1999) 559 (2000) 23000 574 761 1380 3720 25400 40600 40900 42100 51800
2020-06-05 10:45 14.43 40600 53500 (1999) 559 (2000) 23000 574 761 1380 3720 25400 40600 40900 42100 51800
2020-06-05 09:45 14.43 40600 53500 (1999) 559 (2000) 23000 574 761 1380 3720 25400 40600 40900 42100 51800
2020-06-05 08:45 14.40 40500 53500 (1999) 559 (2000) 23000 574 761 1380 3720 25400 40600 40900 42100 51800
2020-06-05 07:45 14.48 40800 53500 (1999) 559 (2000) 23000 574 761 1380 3720 25400 40600 40900 42100 51800
2020-06-05 06:45 14.49 40800 53500 (1999) 559 (2000) 23000 574 761 1380 3720 25400 40600 40900 42100 51800
2020-06-05 05:45 14.53 41000 53500 (1999) 559 (2000) 23000 574 761 1380 3720 25400 40600 40900 42100 51800
2020-06-05 04:45 14.57 41200 53500 (1999) 559 (2000) 23000 574 761 1380 3720 25400 40600 40900 42100 51800
2020-06-05 03:45 14.52 40900 53500 (1999) 559 (2000) 23000 574 761 1380 3720 25400 40600 40900 42100 51800
2020-06-05 02:45 14.61 41300 53500 (1999) 559 (2000) 23000 574 761 1380 3720 25400 40600 40900 42100 51800
2020-06-05 01:45 14.60 41300 53500 (1999) 559 (2000) 23000 574 761 1380 3720 25400 40600 40900 42100 51800
2020-06-05 00:45 14.59 41200 53500 (1999) 559 (2000) 23000 574 761 1380 3720 25400 40600 40900 42100 51800
2020-06-04 23:45 14.57 41200 53600 (1999) 692 (2000) 22800 695 718 1280 1670 27500 40000 40300 41600 51800
2020-06-04 22:45 14.55 41100 53600 (1999) 692 (2000) 22800 695 718 1280 1670 27500 40000 40300 41600 51800
2020-06-04 21:45 14.55 41100 53600 (1999) 692 (2000) 22800 695 718 1280 1670 27500 40000 40300 41600 51800
2020-06-04 20:45 14.51 40900 53600 (1999) 692 (2000) 22800 695 718 1280 1670 27500 40000 40300 41600 51800
2020-06-04 19:45 14.40 40500 53600 (1999) 692 (2000) 22800 695 718 1280 1670 27500 40000 40300 41600 51800
2020-06-04 18:45 14.48 40800 53600 (1999) 692 (2000) 22800 695 718 1280 1670 27500 40000 40300 41600 51800
2020-06-04 17:45 14.40 40500 53600 (1999) 692 (2000) 22800 695 718 1280 1670 27500 40000 40300 41600 51800
2020-06-04 16:45 14.35 40200 53600 (1999) 692 (2000) 22800 695 718 1280 1670 27500 40000 40300 41600 51800
2020-06-04 15:45 14.38 40400 53600 (1999) 692 (2000) 22800 695 718 1280 1670 27500 40000 40300 41600 51800
2020-06-04 14:45 14.31 40100 53600 (1999) 692 (2000) 22800 695 718 1280 1670 27500 40000 40300 41600 51800
2020-06-04 13:45 14.21 39600 53600 (1999) 692 (2000) 22800 695 718 1280 1670 27500 40000 40300 41600 51800
2020-06-04 12:45 14.18 39500 53600 (1999) 692 (2000) 22800 695 718 1280 1670 27500 40000 40300 41600 51800
2020-06-04 11:45 14.05 39000 53600 (1999) 692 (2000) 22800 695 718 1280 1670 27500 40000 40300 41600 51800
2020-06-04 10:45 13.94 38500 53600 (1999) 692 (2000) 22800 695 718 1280 1670 27500 40000 40300 41600 51800
2020-06-04 09:45 13.76 37700 53600 (1999) 692 (2000) 22800 695 718 1280 1670 27500 40000 40300 41600 51800
2020-06-04 08:45 13.64 37300 53600 (1999) 692 (2000) 22800 695 718 1280 1670 27500 40000 40300 41600 51800
2020-06-04 07:45 13.47 36600 53600 (1999) 692 (2000) 22800 695 718 1280 1670 27500 40000 40300 41600 51800
2020-06-04 06:45 13.29 35800 53600 (1999) 692 (2000) 22800 695 718 1280 1670 27500 40000 40300 41600 51800
2020-06-04 05:45 13.05 34900 53600 (1999) 692 (2000) 22800 695 718 1280 1670 27500 40000 40300 41600 51800
2020-06-04 04:45 12.83 34000 53600 (1999) 692 (2000) 22800 695 718 1280 1670 27500 40000 40300 41600 51800
2020-06-04 03:45 12.59 33000 53600 (1999) 692 (2000) 22800 695 718 1280 1670 27500 40000 40300 41600 51800
2020-06-04 02:45 12.35 32100 53600 (1999) 692 (2000) 22800 695 718 1280 1670 27500 40000 40300 41600 51800
2020-06-04 01:45 12.15 31300 53600 (1999) 692 (2000) 22800 695 718 1280 1670 27500 40000 40300 41600 51800
2020-06-04 00:45 11.83 30100 53600 (1999) 692 (2000) 22800 695 718 1280 1670 27500 40000 40300 41600 51800
2020-06-03 23:45 11.62 29300 53500 (1999) 716 (2003) 23100 740 938 1200 1550 33100 38700 40400 44000 52300
2020-06-03 22:45 11.35 28300 53500 (1999) 716 (2003) 23100 740 938 1200 1550 33100 38700 40400 44000 52300
2020-06-03 21:45 11.01 27100 53500 (1999) 716 (2003) 23100 740 938 1200 1550 33100 38700 40400 44000 52300
2020-06-03 20:45 10.74 26100 53500 (1999) 716 (2003) 23100 740 938 1200 1550 33100 38700 40400 44000 52300
2020-06-03 19:45 10.40 24900 53500 (1999) 716 (2003) 23100 740 938 1200 1550 33100 38700 40400 44000 52300
2020-06-03 18:45 10.03 23600 53500 (1999) 716 (2003) 23100 740 938 1200 1550 33100 38700 40400 44000 52300
2020-06-03 17:45 9.69 22500 53500 (1999) 716 (2003) 23100 740 938 1200 1550 33100 38700 40400 44000 52300
2020-06-03 16:45 9.36 21200 53500 (1999) 716 (2003) 23100 740 938 1200 1550 33100 38700 40400 44000 52300
2020-06-03 15:45 9.09 20200 53500 (1999) 716 (2003) 23100 740 938 1200 1550 33100 38700 40400 44000 52300
2020-06-03 14:45 8.92 19500 53500 (1999) 716 (2003) 23100 740 938 1200 1550 33100 38700 40400 44000 52300
2020-06-03 13:45 8.83 19100 53500 (1999) 716 (2003) 23100 740 938 1200 1550 33100 38700 40400 44000 52300
2020-06-03 12:45 8.82 19100 53500 (1999) 716 (2003) 23100 740 938 1200 1550 33100 38700 40400 44000 52300
2020-06-03 11:45 8.90 19400 53500 (1999) 716 (2003) 23100 740 938 1200 1550 33100 38700 40400 44000 52300
2020-06-03 10:45 8.98 19700 53500 (1999) 716 (2003) 23100 740 938 1200 1550 33100 38700 40400 44000 52300
2020-06-03 09:45 9.09 20200 53500 (1999) 716 (2003) 23100 740 938 1200 1550 33100 38700 40400 44000 52300
2020-06-03 08:45 9.17 20500 53500 (1999) 716 (2003) 23100 740 938 1200 1550 33100 38700 40400 44000 52300
2020-06-03 07:45 9.18 20500 53500 (1999) 716 (2003) 23100 740 938 1200 1550 33100 38700 40400 44000 52300
2020-06-03 06:45 9.16 20400 53500 (1999) 716 (2003) 23100 740 938 1200 1550 33100 38700 40400 44000 52300
2020-06-03 05:45 9.06 20000 53500 (1999) 716 (2003) 23100 740 938 1200 1550 33100 38700 40400 44000 52300
2020-06-03 04:45 8.86 19200 53500 (1999) 716 (2003) 23100 740 938 1200 1550 33100 38700 40400 44000 52300
2020-06-03 03:45 8.54 18000 53500 (1999) 716 (2003) 23100 740 938 1200 1550 33100 38700 40400 44000 52300
2020-06-03 02:45 8.20 16800 53500 (1999) 716 (2003) 23100 740 938 1200 1550 33100 38700 40400 44000 52300
2020-06-03 01:45 7.72 15200 53500 (1999) 716 (2003) 23100 740 938 1200 1550 33100 38700 40400 44000 52300
2020-06-03 00:45 7.15 13300 53500 (1999) 716 (2003) 23100 740 938 1200 1550 33100 38700 40400 44000 52300
2020-06-02 23:45 6.43 11200 51600 (1999) 856 (2003) 23800 870 1080 1840 2170 27800 39900 40000 48000 51200
2020-06-02 22:45 5.70 9130 51600 (1999) 856 (2003) 23800 870 1080 1840 2170 27800 39900 40000 48000 51200
2020-06-02 21:45 5.12 7540 51600 (1999) 856 (2003) 23800 870 1080 1840 2170 27800 39900 40000 48000 51200
2020-06-02 20:45 4.93 7040 51600 (1999) 856 (2003) 23800 870 1080 1840 2170 27800 39900 40000 48000 51200
2020-06-02 19:45 4.95 7090 51600 (1999) 856 (2003) 23800 870 1080 1840 2170 27800 39900 40000 48000 51200
2020-06-02 18:45 5.03 7300 51600 (1999) 856 (2003) 23800 870 1080 1840 2170 27800 39900 40000 48000 51200
2020-06-02 17:45 5.10 7480 51600 (1999) 856 (2003) 23800 870 1080 1840 2170 27800 39900 40000 48000 51200
2020-06-02 16:45 5.19 7730 51600 (1999) 856 (2003) 23800 870 1080 1840 2170 27800 39900 40000 48000 51200
2020-06-02 15:45 5.27 7940 51600 (1999) 856 (2003) 23800 870 1080 1840 2170 27800 39900 40000 48000 51200
2020-06-02 14:45 5.34 8140 51600 (1999) 856 (2003) 23800 870 1080 1840 2170 27800 39900 40000 48000 51200
2020-06-02 13:45 5.43 8390 51600 (1999) 856 (2003) 23800 870 1080 1840 2170 27800 39900 40000 48000 51200
2020-06-02 12:45 5.51 8610 51600 (1999) 856 (2003) 23800 870 1080 1840 2170 27800 39900 40000 48000 51200
2020-06-02 11:45 5.60 8850 51600 (1999) 856 (2003) 23800 870 1080 1840 2170 27800 39900 40000 48000 51200
2020-06-02 10:45 5.69 9100 51600 (1999) 856 (2003) 23800 870 1080 1840 2170 27800 39900 40000 48000 51200
2020-06-02 09:45 5.77 9320 51600 (1999) 856 (2003) 23800 870 1080 1840 2170 27800 39900 40000 48000 51200
2020-06-02 08:45 5.86 9560 51600 (1999) 856 (2003) 23800 870 1080 1840 2170 27800 39900 40000 48000 51200
2020-06-02 07:45 5.93 9750 51600 (1999) 856 (2003) 23800 870 1080 1840 2170 27800 39900 40000 48000 51200
2020-06-02 06:45 6.00 9940 51600 (1999) 856 (2003) 23800 870 1080 1840 2170 27800 39900 40000 48000 51200
2020-06-02 05:45 6.08 10200 51600 (1999) 856 (2003) 23800 870 1080 1840 2170 27800 39900 40000 48000 51200
2020-06-02 04:45 6.14 10300 51600 (1999) 856 (2003) 23800 870 1080 1840 2170 27800 39900 40000 48000 51200
2020-06-02 03:45 6.21 10500 51600 (1999) 856 (2003) 23800 870 1080 1840 2170 27800 39900 40000 48000 51200
2020-06-02 02:45 6.28 10700 51600 (1999) 856 (2003) 23800 870 1080 1840 2170 27800 39900 40000 48000 51200
2020-06-02 01:45 6.33 10900 51600 (1999) 856 (2003) 23800 870 1080 1840 2170 27800 39900 40000 48000 51200
2020-06-02 00:45 6.39 11000 51600 (1999) 856 (2003) 23800 870 1080 1840 2170 27800 39900 40000 48000 51200
2020-06-01 23:45 6.46 11300 53100 (1999) 897 (1998) 24600 992 1700 3190 4210 29600 39400 41800 51000 52900
2020-06-01 22:45 6.50 11400 53100 (1999) 897 (1998) 24600 992 1700 3190 4210 29600 39400 41800 51000 52900
2020-06-01 21:45 6.55 11500 53100 (1999) 897 (1998) 24600 992 1700 3190 4210 29600 39400 41800 51000 52900
2020-06-01 20:45 6.60 11700 53100 (1999) 897 (1998) 24600 992 1700 3190 4210 29600 39400 41800 51000 52900
2020-06-01 19:45 6.65 11800 53100 (1999) 897 (1998) 24600 992 1700 3190 4210 29600 39400 41800 51000 52900
2020-06-01 18:45 6.72 12000 53100 (1999) 897 (1998) 24600 992 1700 3190 4210 29600 39400 41800 51000 52900
2020-06-01 17:45 6.78 12200 53100 (1999) 897 (1998) 24600 992 1700 3190 4210 29600 39400 41800 51000 52900
2020-06-01 16:45 6.84 12400 53100 (1999) 897 (1998) 24600 992 1700 3190 4210 29600 39400 41800 51000 52900
2020-06-01 15:45 6.90 12600 53100 (1999) 897 (1998) 24600 992 1700 3190 4210 29600 39400 41800 51000 52900
2020-06-01 14:45 6.96 12700 53100 (1999) 897 (1998) 24600 992 1700 3190 4210 29600 39400 41800 51000 52900
2020-06-01 13:45 7.02 12900 53100 (1999) 897 (1998) 24600 992 1700 3190 4210 29600 39400 41800 51000 52900
2020-06-01 12:45 7.08 13100 53100 (1999) 897 (1998) 24600 992 1700 3190 4210 29600 39400 41800 51000 52900
2020-06-01 11:45 7.13 13300 53100 (1999) 897 (1998) 24600 992 1700 3190 4210 29600 39400 41800 51000 52900
2020-06-01 10:45 7.17 13400 53100 (1999) 897 (1998) 24600 992 1700 3190 4210 29600 39400 41800 51000 52900
2020-06-01 09:45 7.21 13500 53100 (1999) 897 (1998) 24600 992 1700 3190 4210 29600 39400 41800 51000 52900
2020-06-01 08:45 7.25 13600 53100 (1999) 897 (1998) 24600 992 1700 3190 4210 29600 39400 41800 51000 52900
2020-06-01 07:45 7.29 13800 53100 (1999) 897 (1998) 24600 992 1700 3190 4210 29600 39400 41800 51000 52900
2020-06-01 06:45 7.33 13900 53100 (1999) 897 (1998) 24600 992 1700 3190 4210 29600 39400 41800 51000 52900
2020-06-01 05:45 7.37 14000 53100 (1999) 897 (1998) 24600 992 1700 3190 4210 29600 39400 41800 51000 52900
2020-06-01 04:45 7.40 14100 53100 (1999) 897 (1998) 24600 992 1700 3190 4210 29600 39400 41800 51000 52900
2020-06-01 03:45 7.44 14300 53100 (1999) 897 (1998) 24600 992 1700 3190 4210 29600 39400 41800 51000 52900
2020-06-01 02:45 7.48 14400 53100 (1999) 897 (1998) 24600 992 1700 3190 4210 29600 39400 41800 51000 52900
2020-06-01 01:45 7.51 14500 53100 (1999) 897 (1998) 24600 992 1700 3190 4210 29600 39400 41800 51000 52900
2020-06-01 00:45 7.54 14600 53100 (1999) 897 (1998) 24600 992 1700 3190 4210 29600 39400 41800 51000 52900
2020-05-31 23:45 7.56 14600 53000 (1999) 1650 (1998) 24600 1690 1950 2660 5340 28900 39200 42400 51100 52800
2020-05-31 22:45 7.59 14700 53000 (1999) 1650 (1998) 24600 1690 1950 2660 5340 28900 39200 42400 51100 52800
2020-05-31 21:45 7.61 14800 53000 (1999) 1650 (1998) 24600 1690 1950 2660 5340 28900 39200 42400 51100 52800
2020-05-31 20:45 7.63 14900 53000 (1999) 1650 (1998) 24600 1690 1950 2660 5340 28900 39200 42400 51100 52800
2020-05-31 19:45 7.66 15000 53000 (1999) 1650 (1998) 24600 1690 1950 2660 5340 28900 39200 42400 51100 52800
2020-05-31 18:45 7.70 15100 53000 (1999) 1650 (1998) 24600 1690 1950 2660 5340 28900 39200 42400 51100 52800
2020-05-31 17:45 7.73 15200 53000 (1999) 1650 (1998) 24600 1690 1950 2660 5340 28900 39200 42400 51100 52800
2020-05-31 16:45 7.77 15300 53000 (1999) 1650 (1998) 24600 1690 1950 2660 5340 28900 39200 42400 51100 52800
2020-05-31 15:45 7.82 15500 53000 (1999) 1650 (1998) 24600 1690 1950 2660 5340 28900 39200 42400 51100 52800
2020-05-31 14:45 7.87 15700 53000 (1999) 1650 (1998) 24600 1690 1950 2660 5340 28900 39200 42400 51100 52800
2020-05-31 13:45 7.93 15900 53000 (1999) 1650 (1998) 24600 1690 1950 2660 5340 28900 39200 42400 51100 52800
2020-05-31 12:45 7.98 16100 53000 (1999) 1650 (1998) 24600 1690 1950 2660 5340 28900 39200 42400 51100 52800
2020-05-31 11:45 8.03 16200 53000 (1999) 1650 (1998) 24600 1690 1950 2660 5340 28900 39200 42400 51100 52800
2020-05-31 10:45 8.09 16400 53000 (1999) 1650 (1998) 24600 1690 1950 2660 5340 28900 39200 42400 51100 52800
2020-05-31 09:45 8.16 16700 53000 (1999) 1650 (1998) 24600 1690 1950 2660 5340 28900 39200 42400 51100 52800
2020-05-31 08:45 8.24 17000 53000 (1999) 1650 (1998) 24600 1690 1950 2660 5340 28900 39200 42400 51100 52800
2020-05-31 07:45 8.33 17300 53000 (1999) 1650 (1998) 24600 1690 1950 2660 5340 28900 39200 42400 51100 52800
2020-05-31 06:45 8.43 17600 53000 (1999) 1650 (1998) 24600 1690 1950 2660 5340 28900 39200 42400 51100 52800
2020-05-31 05:45 8.53 18000 53000 (1999) 1650 (1998) 24600 1690 1950 2660 5340 28900 39200 42400 51100 52800
2020-05-31 04:45 8.66 18500 53000 (1999) 1650 (1998) 24600 1690 1950 2660 5340 28900 39200 42400 51100 52800
2020-05-31 03:45 8.80 19000 53000 (1999) 1650 (1998) 24600 1690 1950 2660 5340 28900 39200 42400 51100 52800
2020-05-31 02:45 8.94 19600 53000 (1999) 1650 (1998) 24600 1690 1950 2660 5340 28900 39200 42400 51100 52800
2020-05-31 01:45 9.10 20200 53000 (1999) 1650 (1998) 24600 1690 1950 2660 5340 28900 39200 42400 51100 52800
2020-05-31 00:45 9.30 21000 53000 (1999) 1650 (1998) 24600 1690 1950 2660 5340 28900 39200 42400 51100 52800
2020-05-30 23:45 9.50 21800 53200 (1999) 728 (2000) 23300 734 1000 2120 2420 28300 39400 43000 52000 53200
2020-05-30 22:45 9.72 22600 53200 (1999) 728 (2000) 23300 734 1000 2120 2420 28300 39400 43000 52000 53200
2020-05-30 21:45 9.96 23400 53200 (1999) 728 (2000) 23300 734 1000 2120 2420 28300 39400 43000 52000 53200
2020-05-30 20:45 10.20 24200 53200 (1999) 728 (2000) 23300 734 1000 2120 2420 28300 39400 43000 52000 53200
2020-05-30 19:45 10.50 25200 53200 (1999) 728 (2000) 23300 734 1000 2120 2420 28300 39400 43000 52000 53200
2020-05-30 18:45 10.78 26300 53200 (1999) 728 (2000) 23300 734 1000 2120 2420 28300 39400 43000 52000 53200
2020-05-30 17:45 11.09 27400 53200 (1999) 728 (2000) 23300 734 1000 2120 2420 28300 39400 43000 52000 53200
2020-05-30 16:45 11.42 28600 53200 (1999) 728 (2000) 23300 734 1000 2120 2420 28300 39400 43000 52000 53200
2020-05-30 15:45 11.77 29900 53200 (1999) 728 (2000) 23300 734 1000 2120 2420 28300 39400 43000 52000 53200
2020-05-30 14:45 12.13 31200 53200 (1999) 728 (2000) 23300 734 1000 2120 2420 28300 39400 43000 52000 53200
2020-05-30 13:45 12.50 32700 53200 (1999) 728 (2000) 23300 734 1000 2120 2420 28300 39400 43000 52000 53200
2020-05-30 12:45 12.85 34100 53200 (1999) 728 (2000) 23300 734 1000 2120 2420 28300 39400 43000 52000 53200
2020-05-30 11:45 13.18 35400 53200 (1999) 728 (2000) 23300 734 1000 2120 2420 28300 39400 43000 52000 53200
2020-05-30 10:45 13.55 36900 53200 (1999) 728 (2000) 23300 734 1000 2120 2420 28300 39400 43000 52000 53200
2020-05-30 09:45 13.86 38200 53200 (1999) 728 (2000) 23300 734 1000 2120 2420 28300 39400 43000 52000 53200
2020-05-30 08:45 14.17 39500 53200 (1999) 728 (2000) 23300 734 1000 2120 2420 28300 39400 43000 52000 53200
2020-05-30 07:45 14.38 40400 53200 (1999) 728 (2000) 23300 734 1000 2120 2420 28300 39400 43000 52000 53200
2020-05-30 06:45 14.57 41200 53200 (1999) 728 (2000) 23300 734 1000 2120 2420 28300 39400 43000 52000 53200
2020-05-30 05:45 14.62 41400 53200 (1999) 728 (2000) 23300 734 1000 2120 2420 28300 39400 43000 52000 53200
2020-05-30 04:45 14.71 41800 53200 (1999) 728 (2000) 23300 734 1000 2120 2420 28300 39400 43000 52000 53200
2020-05-30 03:45 14.70 41700 53200 (1999) 728 (2000) 23300 734 1000 2120 2420 28300 39400 43000 52000 53200
2020-05-30 02:45 14.75 42000 53200 (1999) 728 (2000) 23300 734 1000 2120 2420 28300 39400 43000 52000 53200
2020-05-30 01:45 14.68 41600 53200 (1999) 728 (2000) 23300 734 1000 2120 2420 28300 39400 43000 52000 53200
2020-05-30 00:45 14.71 41800 53200 (1999) 728 (2000) 23300 734 1000 2120 2420 28300 39400 43000 52000 53200
2020-05-29 23:45 14.72 41800 53500 (2017) 942 (2000) 23800 999 1350 1700 2250 23100 39900 48300 52600 53500
2020-05-29 22:45 14.70 41700 53500 (2017) 942 (2000) 23800 999 1350 1700 2250 23100 39900 48300 52600 53500
2020-05-29 21:45 14.68 41600 53500 (2017) 942 (2000) 23800 999 1350 1700 2250 23100 39900 48300 52600 53500
2020-05-29 20:45 14.75 42000 53500 (2017) 942 (2000) 23800 999 1350 1700 2250 23100 39900 48300 52600 53500
2020-05-29 19:45 14.67 41600 53500 (2017) 942 (2000) 23800 999 1350 1700 2250 23100 39900 48300 52600 53500
2020-05-29 18:45 14.70 41700 53500 (2017) 942 (2000) 23800 999 1350 1700 2250 23100 39900 48300 52600 53500
2020-05-29 17:45 14.74 41900 53500 (2017) 942 (2000) 23800 999 1350 1700 2250 23100 39900 48300 52600 53500
2020-05-29 16:45 14.74 41900 53500 (2017) 942 (2000) 23800 999 1350 1700 2250 23100 39900 48300 52600 53500
2020-05-29 15:45 14.70 41700 53500 (2017) 942 (2000) 23800 999 1350 1700 2250 23100 39900 48300 52600 53500
2020-05-29 14:45 14.72 41800 53500 (2017) 942 (2000) 23800 999 1350 1700 2250 23100 39900 48300 52600 53500
2020-05-29 13:45 14.73 41900 53500 (2017) 942 (2000) 23800 999 1350 1700 2250 23100 39900 48300 52600 53500
2020-05-29 12:45 14.71 41800 53500 (2017) 942 (2000) 23800 999 1350 1700 2250 23100 39900 48300 52600 53500
2020-05-29 11:45 14.70 41700 53500 (2017) 942 (2000) 23800 999 1350 1700 2250 23100 39900 48300 52600 53500
2020-05-29 10:45 14.75 42000 53500 (2017) 942 (2000) 23800 999 1350 1700 2250 23100 39900 48300 52600 53500
2020-05-29 09:45 14.75 42000 53500 (2017) 942 (2000) 23800 999 1350 1700 2250 23100 39900 48300 52600 53500
2020-05-29 08:45 14.77 42000 53500 (2017) 942 (2000) 23800 999 1350 1700 2250 23100 39900 48300 52600 53500
2020-05-29 07:45 14.80 42200 53500 (2017) 942 (2000) 23800 999 1350 1700 2250 23100 39900 48300 52600 53500
2020-05-29 06:45 14.75 42000 53500 (2017) 942 (2000) 23800 999 1350 1700 2250 23100 39900 48300 52600 53500
2020-05-29 05:45 14.75 42000 53500 (2017) 942 (2000) 23800 999 1350 1700 2250 23100 39900 48300 52600 53500
2020-05-29 04:45 14.79 42100 53500 (2017) 942 (2000) 23800 999 1350 1700 2250 23100 39900 48300 52600 53500
2020-05-29 03:45 14.76 42000 53500 (2017) 942 (2000) 23800 999 1350 1700 2250 23100 39900 48300 52600 53500
2020-05-29 02:45 14.70 41700 53500 (2017) 942 (2000) 23800 999 1350 1700 2250 23100 39900 48300 52600 53500
2020-05-29 01:45 14.70 41700 53500 (2017) 942 (2000) 23800 999 1350 1700 2250 23100 39900 48300 52600 53500
2020-05-29 00:45 14.64 41500 53500 (2017) 942 (2000) 23800 999 1350 1700 2250 23100 39900 48300 52600 53500
2020-05-28 23:45 14.64 41500 54600 (2017) 954 (2006) 25500 1040 1700 4720 6740 25300 41700 49500 53200 54500
2020-05-28 22:45 14.59 41200 54600 (2017) 954 (2006) 25500 1040 1700 4720 6740 25300 41700 49500 53200 54500
2020-05-28 21:45 14.58 41200 54600 (2017) 954 (2006) 25500 1040 1700 4720 6740 25300 41700 49500 53200 54500
2020-05-28 20:45 14.36 40300 54600 (2017) 954 (2006) 25500 1040 1700 4720 6740 25300 41700 49500 53200 54500
2020-05-28 19:45 14.36 40300 54600 (2017) 954 (2006) 25500 1040 1700 4720 6740 25300 41700 49500 53200 54500
2020-05-28 18:45 14.29 40000 54600 (2017) 954 (2006) 25500 1040 1700 4720 6740 25300 41700 49500 53200 54500
2020-05-28 17:45 14.20 39600 54600 (2017) 954 (2006) 25500 1040 1700 4720 6740 25300 41700 49500 53200 54500
2020-05-28 16:45 14.14 39300 54600 (2017) 954 (2006) 25500 1040 1700 4720 6740 25300 41700 49500 53200 54500
2020-05-28 15:45 14.17 39500 54600 (2017) 954 (2006) 25500 1040 1700 4720 6740 25300 41700 49500 53200 54500
2020-05-28 14:45 14.20 39600 54600 (2017) 954 (2006) 25500 1040 1700 4720 6740 25300 41700 49500 53200 54500
2020-05-28 13:45 14.18 39500 54600 (2017) 954 (2006) 25500 1040 1700 4720 6740 25300 41700 49500 53200 54500
2020-05-28 12:45 14.23 39700 54600 (2017) 954 (2006) 25500 1040 1700 4720 6740 25300 41700 49500 53200 54500
2020-05-28 11:45 14.28 39900 54600 (2017) 954 (2006) 25500 1040 1700 4720 6740 25300 41700 49500 53200 54500
2020-05-28 10:45 14.31 40100 54600 (2017) 954 (2006) 25500 1040 1700 4720 6740 25300 41700 49500 53200 54500
2020-05-28 09:45 14.35 40200 54600 (2017) 954 (2006) 25500 1040 1700 4720 6740 25300 41700 49500 53200 54500
2020-05-28 08:45 14.46 40700 54600 (2017) 954 (2006) 25500 1040 1700 4720 6740 25300 41700 49500 53200 54500
2020-05-28 07:45 14.42 40500 54600 (2017) 954 (2006) 25500 1040 1700 4720 6740 25300 41700 49500 53200 54500
2020-05-28 06:45 14.45 40700 54600 (2017) 954 (2006) 25500 1040 1700 4720 6740 25300 41700 49500 53200 54500
2020-05-28 05:45 14.44 40600 54600 (2017) 954 (2006) 25500 1040 1700 4720 6740 25300 41700 49500 53200 54500
2020-05-28 04:45 14.46 40700 54600 (2017) 954 (2006) 25500 1040 1700 4720 6740 25300 41700 49500 53200 54500
2020-05-28 03:45 14.39 40400 54600 (2017) 954 (2006) 25500 1040 1700 4720 6740 25300 41700 49500 53200 54500
2020-05-28 02:45 14.39 40400 54600 (2017) 954 (2006) 25500 1040 1700 4720 6740 25300 41700 49500 53200 54500
2020-05-28 01:45 14.39 40400 54600 (2017) 954 (2006) 25500 1040 1700 4720 6740 25300 41700 49500 53200 54500
2020-05-28 00:45 14.41 40500 54600 (2017) 954 (2006) 25500 1040 1700 4720 6740 25300 41700 49500 53200 54500
2020-05-27 23:45 14.38 40400 54200 (1999) 1560 (1998) 26100 1570 1670 4380 5960 31900 40500 48300 52700 54000
2020-05-27 22:45 14.41 40500 54200 (1999) 1560 (1998) 26100 1570 1670 4380 5960 31900 40500 48300 52700 54000
2020-05-27 21:45 14.33 40100 54200 (1999) 1560 (1998) 26100 1570 1670 4380 5960 31900 40500 48300 52700 54000
2020-05-27 20:45 14.39 40400 54200 (1999) 1560 (1998) 26100 1570 1670 4380 5960 31900 40500 48300 52700 54000
2020-05-27 19:45 14.33 40100 54200 (1999) 1560 (1998) 26100 1570 1670 4380 5960 31900 40500 48300 52700 54000
2020-05-27 18:45 14.31 40100 54200 (1999) 1560 (1998) 26100 1570 1670 4380 5960 31900 40500 48300 52700 54000
2020-05-27 17:45 14.32 40100 54200 (1999) 1560 (1998) 26100 1570 1670 4380 5960 31900 40500 48300 52700 54000
2020-05-27 16:45 14.29 40000 54200 (1999) 1560 (1998) 26100 1570 1670 4380 5960 31900 40500 48300 52700 54000
2020-05-27 15:45 14.30 40000 54200 (1999) 1560 (1998) 26100 1570 1670 4380 5960 31900 40500 48300 52700 54000
2020-05-27 14:45 14.25 39800 54200 (1999) 1560 (1998) 26100 1570 1670 4380 5960 31900 40500 48300 52700 54000
2020-05-27 13:45 14.32 40100 54200 (1999) 1560 (1998) 26100 1570 1670 4380 5960 31900 40500 48300 52700 54000
2020-05-27 12:45 14.30 40000 54200 (1999) 1560 (1998) 26100 1570 1670 4380 5960 31900 40500 48300 52700 54000
2020-05-27 11:45 14.30 40000 54200 (1999) 1560 (1998) 26100 1570 1670 4380 5960 31900 40500 48300 52700 54000
2020-05-27 10:45 14.34 40200 54200 (1999) 1560 (1998) 26100 1570 1670 4380 5960 31900 40500 48300 52700 54000
2020-05-27 09:45 14.31 40100 54200 (1999) 1560 (1998) 26100 1570 1670 4380 5960 31900 40500 48300 52700 54000
2020-05-27 08:45 14.36 40300 54200 (1999) 1560 (1998) 26100 1570 1670 4380 5960 31900 40500 48300 52700 54000
2020-05-27 07:45 14.38 40400 54200 (1999) 1560 (1998) 26100 1570 1670 4380 5960 31900 40500 48300 52700 54000
2020-05-27 06:45 14.42 40500 54200 (1999) 1560 (1998) 26100 1570 1670 4380 5960 31900 40500 48300 52700 54000
2020-05-27 05:45 14.44 40600 54200 (1999) 1560 (1998) 26100 1570 1670 4380 5960 31900 40500 48300 52700 54000
2020-05-27 04:45 14.46 40700 54200 (1999) 1560 (1998) 26100 1570 1670 4380 5960 31900 40500 48300 52700 54000
2020-05-27 03:45 14.52 40900 54200 (1999) 1560 (1998) 26100 1570 1670 4380 5960 31900 40500 48300 52700 54000
2020-05-27 02:45 14.53 41000 54200 (1999) 1560 (1998) 26100 1570 1670 4380 5960 31900 40500 48300 52700 54000
2020-05-27 01:45 14.48 40800 54200 (1999) 1560 (1998) 26100 1570 1670 4380 5960 31900 40500 48300 52700 54000
2020-05-27 00:45 14.42 40500 54200 (1999) 1560 (1998) 26100 1570 1670 4380 5960 31900 40500 48300 52700 54000
2020-05-26 23:45 14.30 40000 54500 (1999) 927 (2003) 23600 956 1160 2650 4810 17200 40000 44800 53800 54500
2020-05-26 22:45 14.14 39300 54500 (1999) 927 (2003) 23600 956 1160 2650 4810 17200 40000 44800 53800 54500
2020-05-26 21:45 14.02 38800 54500 (1999) 927 (2003) 23600 956 1160 2650 4810 17200 40000 44800 53800 54500
2020-05-26 20:45 13.89 38300 54500 (1999) 927 (2003) 23600 956 1160 2650 4810 17200 40000 44800 53800 54500
2020-05-26 19:45 13.87 38200 54500 (1999) 927 (2003) 23600 956 1160 2650 4810 17200 40000 44800 53800 54500
2020-05-26 18:45 13.82 38000 54500 (1999) 927 (2003) 23600 956 1160 2650 4810 17200 40000 44800 53800 54500
2020-05-26 17:45 13.80 37900 54500 (1999) 927 (2003) 23600 956 1160 2650 4810 17200 40000 44800 53800 54500
2020-05-26 16:45 13.76 37700 54500 (1999) 927 (2003) 23600 956 1160 2650 4810 17200 40000 44800 53800 54500
2020-05-26 15:45 13.86 38200 54500 (1999) 927 (2003) 23600 956 1160 2650 4810 17200 40000 44800 53800 54500
2020-05-26 14:45 13.82 38000 54500 (1999) 927 (2003) 23600 956 1160 2650 4810 17200 40000 44800 53800 54500
2020-05-26 13:45 13.79 37900 54500 (1999) 927 (2003) 23600 956 1160 2650 4810 17200 40000 44800 53800 54500
2020-05-26 12:45 13.83 38000 54500 (1999) 927 (2003) 23600 956 1160 2650 4810 17200 40000 44800 53800 54500
2020-05-26 11:45 13.77 37800 54500 (1999) 927 (2003) 23600 956 1160 2650 4810 17200 40000 44800 53800 54500
2020-05-26 10:45 13.83 38000 54500 (1999) 927 (2003) 23600 956 1160 2650 4810 17200 40000 44800 53800 54500
2020-05-26 09:45 13.76 37700 54500 (1999) 927 (2003) 23600 956 1160 2650 4810 17200 40000 44800 53800 54500
2020-05-26 08:45 13.80 37900 54500 (1999) 927 (2003) 23600 956 1160 2650 4810 17200 40000 44800 53800 54500
2020-05-26 07:45 13.72 37600 54500 (1999) 927 (2003) 23600 956 1160 2650 4810 17200 40000 44800 53800 54500
2020-05-26 06:45 13.76 37700 54500 (1999) 927 (2003) 23600 956 1160 2650 4810 17200 40000 44800 53800 54500
2020-05-26 05:45 13.79 37900 54500 (1999) 927 (2003) 23600 956 1160 2650 4810 17200 40000 44800 53800 54500
2020-05-26 04:45 13.74 37700 54500 (1999) 927 (2003) 23600 956 1160 2650 4810 17200 40000 44800 53800 54500
2020-05-26 03:45 13.68 37400 54500 (1999) 927 (2003) 23600 956 1160 2650 4810 17200 40000 44800 53800 54500
2020-05-26 02:45 13.71 37500 54500 (1999) 927 (2003) 23600 956 1160 2650 4810 17200 40000 44800 53800 54500
2020-05-26 01:45 13.71 37500 54500 (1999) 927 (2003) 23600 956 1160 2650 4810 17200 40000 44800 53800 54500
2020-05-26 00:45 13.71 37500 54500 (1999) 927 (2003) 23600 956 1160 2650 4810 17200 40000 44800 53800 54500
2020-05-25 23:45 13.71 37500 54800 (1999) 938 (1998) 22500 976 1390 2910 4980 14800 38300 45000 53300 54600
2020-05-25 22:45 13.64 37300 54800 (1999) 938 (1998) 22500 976 1390 2910 4980 14800 38300 45000 53300 54600
2020-05-25 21:45 13.54 36800 54800 (1999) 938 (1998) 22500 976 1390 2910 4980 14800 38300 45000 53300 54600
2020-05-25 20:45 13.52 36800 54800 (1999) 938 (1998) 22500 976 1390 2910 4980 14800 38300 45000 53300 54600
2020-05-25 19:45 13.42 36300 54800 (1999) 938 (1998) 22500 976 1390 2910 4980 14800 38300 45000 53300 54600
2020-05-25 18:45 13.43 36400 54800 (1999) 938 (1998) 22500 976 1390 2910 4980 14800 38300 45000 53300 54600
2020-05-25 17:45 13.37 36100 54800 (1999) 938 (1998) 22500 976 1390 2910 4980 14800 38300 45000 53300 54600
2020-05-25 16:45 13.33 36000 54800 (1999) 938 (1998) 22500 976 1390 2910 4980 14800 38300 45000 53300 54600
2020-05-25 15:45 13.23 35600 54800 (1999) 938 (1998) 22500 976 1390 2910 4980 14800 38300 45000 53300 54600
2020-05-25 14:45 13.13 35200 54800 (1999) 938 (1998) 22500 976 1390 2910 4980 14800 38300 45000 53300 54600
2020-05-25 13:45 12.99 34600 54800 (1999) 938 (1998) 22500 976 1390 2910 4980 14800 38300 45000 53300 54600
2020-05-25 12:45 12.92 34300 54800 (1999) 938 (1998) 22500 976 1390 2910 4980 14800 38300 45000 53300 54600
2020-05-25 11:45 12.74 33600 54800 (1999) 938 (1998) 22500 976 1390 2910 4980 14800 38300 45000 53300 54600
2020-05-25 10:45 12.69 33400 54800 (1999) 938 (1998) 22500 976 1390 2910 4980 14800 38300 45000 53300 54600
2020-05-25 09:45 12.53 32800 54800 (1999) 938 (1998) 22500 976 1390 2910 4980 14800 38300 45000 53300 54600
2020-05-25 08:45 12.36 32100 54800 (1999) 938 (1998) 22500 976 1390 2910 4980 14800 38300 45000 53300 54600
2020-05-25 07:45 12.14 31300 54800 (1999) 938 (1998) 22500 976 1390 2910 4980 14800 38300 45000 53300 54600
2020-05-25 06:45 12.04 30900 54800 (1999) 938 (1998) 22500 976 1390 2910 4980 14800 38300 45000 53300 54600
2020-05-25 05:45 11.89 30300 54800 (1999) 938 (1998) 22500 976 1390 2910 4980 14800 38300 45000 53300 54600
2020-05-25 04:45 11.71 29600 54800 (1999) 938 (1998) 22500 976 1390 2910 4980 14800 38300 45000 53300 54600
2020-05-25 03:45 11.51 28900 54800 (1999) 938 (1998) 22500 976 1390 2910 4980 14800 38300 45000 53300 54600
2020-05-25 02:45 11.31 28200 54800 (1999) 938 (1998) 22500 976 1390 2910 4980 14800 38300 45000 53300 54600
2020-05-25 01:45 11.13 27500 54800 (1999) 938 (1998) 22500 976 1390 2910 4980 14800 38300 45000 53300 54600
2020-05-25 00:45 10.93 26800 54800 (1999) 938 (1998) 22500 976 1390 2910 4980 14800 38300 45000 53300 54600
2020-05-24 23:45 10.73 26100 54300 (2017) 631 (2000) 24400 686 1180 7350 10700 23800 36200 41400 51800 54000
2020-05-24 22:45 10.55 25400 54300 (2017) 631 (2000) 24400 686 1180 7350 10700 23800 36200 41400 51800 54000
2020-05-24 21:45 10.44 25000 54300 (2017) 631 (2000) 24400 686 1180 7350 10700 23800 36200 41400 51800 54000
2020-05-24 20:45 10.26 24400 54300 (2017) 631 (2000) 24400 686 1180 7350 10700 23800 36200 41400 51800 54000
2020-05-24 19:45 10.16 24100 54300 (2017) 631 (2000) 24400 686 1180 7350 10700 23800 36200 41400 51800 54000
2020-05-24 18:45 10.16 24100 54300 (2017) 631 (2000) 24400 686 1180 7350 10700 23800 36200 41400 51800 54000
2020-05-24 17:45 10.17 24100 54300 (2017) 631 (2000) 24400 686 1180 7350 10700 23800 36200 41400 51800 54000
2020-05-24 16:45 10.24 24400 54300 (2017) 631 (2000) 24400 686 1180 7350 10700 23800 36200 41400 51800 54000
2020-05-24 15:45 10.31 24600 54300 (2017) 631 (2000) 24400 686 1180 7350 10700 23800 36200 41400 51800 54000
2020-05-24 14:45 10.54 25400 54300 (2017) 631 (2000) 24400 686 1180 7350 10700 23800 36200 41400 51800 54000
2020-05-24 13:45 10.76 26200 54300 (2017) 631 (2000) 24400 686 1180 7350 10700 23800 36200 41400 51800 54000
2020-05-24 12:45 11.07 27300 54300 (2017) 631 (2000) 24400 686 1180 7350 10700 23800 36200 41400 51800 54000
2020-05-24 11:45 11.35 28300 54300 (2017) 631 (2000) 24400 686 1180 7350 10700 23800 36200 41400 51800 54000
2020-05-24 10:45 11.66 29400 54300 (2017) 631 (2000) 24400 686 1180 7350 10700 23800 36200 41400 51800 54000
2020-05-24 09:45 12.02 30800 54300 (2017) 631 (2000) 24400 686 1180 7350 10700 23800 36200 41400 51800 54000
2020-05-24 08:45 12.32 32000 54300 (2017) 631 (2000) 24400 686 1180 7350 10700 23800 36200 41400 51800 54000
2020-05-24 07:45 12.62 33100 54300 (2017) 631 (2000) 24400 686 1180 7350 10700 23800 36200 41400 51800 54000
2020-05-24 06:45 12.82 34000 54300 (2017) 631 (2000) 24400 686 1180 7350 10700 23800 36200 41400 51800 54000
2020-05-24 05:45 13.04 34800 54300 (2017) 631 (2000) 24400 686 1180 7350 10700 23800 36200 41400 51800 54000
2020-05-24 04:45 13.14 35200 54300 (2017) 631 (2000) 24400 686 1180 7350 10700 23800 36200 41400 51800 54000
2020-05-24 03:45 13.19 35400 54300 (2017) 631 (2000) 24400 686 1180 7350 10700 23800 36200 41400 51800 54000
2020-05-24 02:45 13.15 35300 54300 (2017) 631 (2000) 24400 686 1180 7350 10700 23800 36200 41400 51800 54000
2020-05-24 01:45 13.08 35000 54300 (2017) 631 (2000) 24400 686 1180 7350 10700 23800 36200 41400 51800 54000
2020-05-24 00:45 13.08 35000 54300 (2017) 631 (2000) 24400 686 1180 7350 10700 23800 36200 41400 51800 54000
2020-05-23 23:45 13.02 34700 54100 (2017) 609 (2000) 23300 686 1260 4180 5270 22600 37800 38200 50300 53700
2020-05-23 22:45 12.92 34300 54100 (2017) 609 (2000) 23300 686 1260 4180 5270 22600 37800 38200 50300 53700
2020-05-23 21:45 12.82 34000 54100 (2017) 609 (2000) 23300 686 1260 4180 5270 22600 37800 38200 50300 53700
2020-05-23 20:45 12.80 33900 54100 (2017) 609 (2000) 23300 686 1260 4180 5270 22600 37800 38200 50300 53700
2020-05-23 19:45 12.72 33500 54100 (2017) 609 (2000) 23300 686 1260 4180 5270 22600 37800 38200 50300 53700
2020-05-23 18:45 12.63 33200 54100 (2017) 609 (2000) 23300 686 1260 4180 5270 22600 37800 38200 50300 53700
2020-05-23 17:45 12.50 32700 54100 (2017) 609 (2000) 23300 686 1260 4180 5270 22600 37800 38200 50300 53700
2020-05-23 16:45 12.43 32400 54100 (2017) 609 (2000) 23300 686 1260 4180 5270 22600 37800 38200 50300 53700
2020-05-23 15:45 12.26 31700 54100 (2017) 609 (2000) 23300 686 1260 4180 5270 22600 37800 38200 50300 53700
2020-05-23 14:45 12.10 31100 54100 (2017) 609 (2000) 23300 686 1260 4180 5270 22600 37800 38200 50300 53700
2020-05-23 13:45 12.00 30800 54100 (2017) 609 (2000) 23300 686 1260 4180 5270 22600 37800 38200 50300 53700
2020-05-23 12:45 11.83 30100 54100 (2017) 609 (2000) 23300 686 1260 4180 5270 22600 37800 38200 50300 53700
2020-05-23 11:45 11.64 29400 54100 (2017) 609 (2000) 23300 686 1260 4180 5270 22600 37800 38200 50300 53700
2020-05-23 10:45 11.51 28900 54100 (2017) 609 (2000) 23300 686 1260 4180 5270 22600 37800 38200 50300 53700
2020-05-23 09:45 11.33 28200 54100 (2017) 609 (2000) 23300 686 1260 4180 5270 22600 37800 38200 50300 53700
2020-05-23 08:45 11.18 27700 54100 (2017) 609 (2000) 23300 686 1260 4180 5270 22600 37800 38200 50300 53700
2020-05-23 07:45 11.01 27100 54100 (2017) 609 (2000) 23300 686 1260 4180 5270 22600 37800 38200 50300 53700
2020-05-23 06:45 10.88 26600 54100 (2017) 609 (2000) 23300 686 1260 4180 5270 22600 37800 38200 50300 53700
2020-05-23 05:45 10.80 26300 54100 (2017) 609 (2000) 23300 686 1260 4180 5270 22600 37800 38200 50300 53700
2020-05-23 04:45 10.76 26200 54100 (2017) 609 (2000) 23300 686 1260 4180 5270 22600 37800 38200 50300 53700
2020-05-23 03:45 10.75 26200 54100 (2017) 609 (2000) 23300 686 1260 4180 5270 22600 37800 38200 50300 53700
2020-05-23 02:45 10.78 26300 54100 (2017) 609 (2000) 23300 686 1260 4180 5270 22600 37800 38200 50300 53700
2020-05-23 01:45 10.80 26300 54100 (2017) 609 (2000) 23300 686 1260 4180 5270 22600 37800 38200 50300 53700
2020-05-23 00:45 10.84 26400 54100 (2017) 609 (2000) 23300 686 1260 4180 5270 22600 37800 38200 50300 53700
2020-05-22 23:45 10.91 26700 53700 (2017) 616 (2000) 25100 755 1630 3380 4000 26700 39300 48300 52000 53500
2020-05-22 22:45 10.94 26800 53700 (2017) 616 (2000) 25100 755 1630 3380 4000 26700 39300 48300 52000 53500
2020-05-22 21:45 11.07 27300 53700 (2017) 616 (2000) 25100 755 1630 3380 4000 26700 39300 48300 52000 53500
2020-05-22 20:45 11.12 27500 53700 (2017) 616 (2000) 25100 755 1630 3380 4000 26700 39300 48300 52000 53500
2020-05-22 19:45 11.25 27900 53700 (2017) 616 (2000) 25100 755 1630 3380 4000 26700 39300 48300 52000 53500
2020-05-22 18:45 11.37 28400 53700 (2017) 616 (2000) 25100 755 1630 3380 4000 26700 39300 48300 52000 53500
2020-05-22 17:45 11.44 28600 53700 (2017) 616 (2000) 25100 755 1630 3380 4000 26700 39300 48300 52000 53500
2020-05-22 16:45 11.50 28900 53700 (2017) 616 (2000) 25100 755 1630 3380 4000 26700 39300 48300 52000 53500
2020-05-22 15:45 11.54 29000 53700 (2017) 616 (2000) 25100 755 1630 3380 4000 26700 39300 48300 52000 53500
2020-05-22 14:45 11.64 29400 53700 (2017) 616 (2000) 25100 755 1630 3380 4000 26700 39300 48300 52000 53500
2020-05-22 13:45 11.74 29800 53700 (2017) 616 (2000) 25100 755 1630 3380 4000 26700 39300 48300 52000 53500
2020-05-22 12:45 11.82 30100 53700 (2017) 616 (2000) 25100 755 1630 3380 4000 26700 39300 48300 52000 53500
2020-05-22 11:45 12.02 30800 53700 (2017) 616 (2000) 25100 755 1630 3380 4000 26700 39300 48300 52000 53500
2020-05-22 10:45 12.14 31300 53700 (2017) 616 (2000) 25100 755 1630 3380 4000 26700 39300 48300 52000 53500
2020-05-22 09:45 12.25 31700 53700 (2017) 616 (2000) 25100 755 1630 3380 4000 26700 39300 48300 52000 53500
2020-05-22 08:45 12.34 32100 53700 (2017) 616 (2000) 25100 755 1630 3380 4000 26700 39300 48300 52000 53500
2020-05-22 07:45 12.50 32700 53700 (2017) 616 (2000) 25100 755 1630 3380 4000 26700 39300 48300 52000 53500
2020-05-22 06:45 12.54 32800 53700 (2017) 616 (2000) 25100 755 1630 3380 4000 26700 39300 48300 52000 53500
2020-05-22 05:45 12.64 33200 53700 (2017) 616 (2000) 25100 755 1630 3380 4000 26700 39300 48300 52000 53500
2020-05-22 04:45 12.66 33300 53700 (2017) 616 (2000) 25100 755 1630 3380 4000 26700 39300 48300 52000 53500
2020-05-22 03:45 12.69 33400 53700 (2017) 616 (2000) 25100 755 1630 3380 4000 26700 39300 48300 52000 53500
2020-05-22 02:45 12.73 33600 53700 (2017) 616 (2000) 25100 755 1630 3380 4000 26700 39300 48300 52000 53500
2020-05-22 01:45 12.76 33700 53700 (2017) 616 (2000) 25100 755 1630 3380 4000 26700 39300 48300 52000 53500
2020-05-22 00:45 12.84 34000 53700 (2017) 616 (2000) 25100 755 1630 3380 4000 26700 39300 48300 52000 53500
2020-05-21 23:45 12.88 34200 57200 (2011) 629 (2000) 25700 821 2630 4500 4580 30800 42500 44700 54100 56900
2020-05-21 22:45 12.90 34200 57200 (2011) 629 (2000) 25700 821 2630 4500 4580 30800 42500 44700 54100 56900
2020-05-21 21:45 12.99 34600 57200 (2011) 629 (2000) 25700 821 2630 4500 4580 30800 42500 44700 54100 56900
2020-05-21 20:45 13.03 34800 57200 (2011) 629 (2000) 25700 821 2630 4500 4580 30800 42500 44700 54100 56900
2020-05-21 19:45 13.14 35200 57200 (2011) 629 (2000) 25700 821 2630 4500 4580 30800 42500 44700 54100 56900
2020-05-21 18:45 13.17 35300 57200 (2011) 629 (2000) 25700 821 2630 4500 4580 30800 42500 44700 54100 56900
2020-05-21 17:45 13.21 35500 57200 (2011) 629 (2000) 25700 821 2630 4500 4580 30800 42500 44700 54100 56900
2020-05-21 16:45 13.26 35700 57200 (2011) 629 (2000) 25700 821 2630 4500 4580 30800 42500 44700 54100 56900
2020-05-21 15:45 13.37 36100 57200 (2011) 629 (2000) 25700 821 2630 4500 4580 30800 42500 44700 54100 56900
2020-05-21 14:45 13.41 36300 57200 (2011) 629 (2000) 25700 821 2630 4500 4580 30800 42500 44700 54100 56900
2020-05-21 13:45 13.45 36500 57200 (2011) 629 (2000) 25700 821 2630 4500 4580 30800 42500 44700 54100 56900
2020-05-21 12:45 13.51 36700 57200 (2011) 629 (2000) 25700 821 2630 4500 4580 30800 42500 44700 54100 56900
2020-05-21 11:45 13.52 36800 57200 (2011) 629 (2000) 25700 821 2630 4500 4580 30800 42500 44700 54100 56900
2020-05-21 10:45 13.52 36800 57200 (2011) 629 (2000) 25700 821 2630 4500 4580 30800 42500 44700 54100 56900
2020-05-21 09:45 13.50 36700 57200 (2011) 629 (2000) 25700 821 2630 4500 4580 30800 42500 44700 54100 56900
2020-05-21 08:45 13.51 36700 57200 (2011) 629 (2000) 25700 821 2630 4500 4580 30800 42500 44700 54100 56900
2020-05-21 07:45 13.48 36600 57200 (2011) 629 (2000) 25700 821 2630 4500 4580 30800 42500 44700 54100 56900
2020-05-21 06:45 13.44 36400 57200 (2011) 629 (2000) 25700 821 2630 4500 4580 30800 42500 44700 54100 56900
2020-05-21 05:45 13.41 36300 57200 (2011) 629 (2000) 25700 821 2630 4500 4580 30800 42500 44700 54100 56900
2020-05-21 04:45 13.40 36300 57200 (2011) 629 (2000) 25700 821 2630 4500 4580 30800 42500 44700 54100 56900
2020-05-21 03:45 13.33 36000 57200 (2011) 629 (2000) 25700 821 2630 4500 4580 30800 42500 44700 54100 56900
2020-05-21 02:45 13.31 35900 57200 (2011) 629 (2000) 25700 821 2630 4500 4580 30800 42500 44700 54100 56900
2020-05-21 01:45 13.22 35600 57200 (2011) 629 (2000) 25700 821 2630 4500 4580 30800 42500 44700 54100 56900
2020-05-21 00:45 13.20 35500 57200 (2011) 629 (2000) 25700 821 2630 4500 4580 30800 42500 44700 54100 56900
2020-05-20 23:45 13.16 35300 55700 (2017) 711 (2000) 24500 808 1620 3890 6180 24400 38600 40600 52000 55300
2020-05-20 22:45 13.09 35000 55700 (2017) 711 (2000) 24500 808 1620 3890 6180 24400 38600 40600 52000 55300
2020-05-20 21:45 13.03 34800 55700 (2017) 711 (2000) 24500 808 1620 3890 6180 24400 38600 40600 52000 55300
2020-05-20 20:45 12.98 34600 55700 (2017) 711 (2000) 24500 808 1620 3890 6180 24400 38600 40600 52000 55300
2020-05-20 19:45 12.90 34200 55700 (2017) 711 (2000) 24500 808 1620 3890 6180 24400 38600 40600 52000 55300
2020-05-20 18:45 12.77 33700 55700 (2017) 711 (2000) 24500 808 1620 3890 6180 24400 38600 40600 52000 55300
2020-05-20 17:45 12.69 33400 55700 (2017) 711 (2000) 24500 808 1620 3890 6180 24400 38600 40600 52000 55300
2020-05-20 16:45 12.61 33100 55700 (2017) 711 (2000) 24500 808 1620 3890 6180 24400 38600 40600 52000 55300
2020-05-20 15:45 12.54 32800 55700 (2017) 711 (2000) 24500 808 1620 3890 6180 24400 38600 40600 52000 55300
2020-05-20 14:45 12.39 32300 55700 (2017) 711 (2000) 24500 808 1620 3890 6180 24400 38600 40600 52000 55300
2020-05-20 13:45 12.24 31700 55700 (2017) 711 (2000) 24500 808 1620 3890 6180 24400 38600 40600 52000 55300
2020-05-20 12:45 12.13 31200 55700 (2017) 711 (2000) 24500 808 1620 3890 6180 24400 38600 40600 52000 55300
2020-05-20 11:45 11.94 30500 55700 (2017) 711 (2000) 24500 808 1620 3890 6180 24400 38600 40600 52000 55300
2020-05-20 10:45 11.82 30100 55700 (2017) 711 (2000) 24500 808 1620 3890 6180 24400 38600 40600 52000 55300
2020-05-20 09:45 11.63 29400 55700 (2017) 711 (2000) 24500 808 1620 3890 6180 24400 38600 40600 52000 55300
2020-05-20 08:45 11.47 28800 55700 (2017) 711 (2000) 24500 808 1620 3890 6180 24400 38600 40600 52000 55300
2020-05-20 07:45 11.34 28300 55700 (2017) 711 (2000) 24500 808 1620 3890 6180 24400 38600 40600 52000 55300
2020-05-20 06:45 11.16 27600 55700 (2017) 711 (2000) 24500 808 1620 3890 6180 24400 38600 40600 52000 55300
2020-05-20 05:45 11.11 27400 55700 (2017) 711 (2000) 24500 808 1620 3890 6180 24400 38600 40600 52000 55300
2020-05-20 04:45 10.99 27000 55700 (2017) 711 (2000) 24500 808 1620 3890 6180 24400 38600 40600 52000 55300
2020-05-20 03:45 11.07 27300 55700 (2017) 711 (2000) 24500 808 1620 3890 6180 24400 38600 40600 52000 55300
2020-05-20 02:45 11.09 27400 55700 (2017) 711 (2000) 24500 808 1620 3890 6180 24400 38600 40600 52000 55300
2020-05-20 01:45 11.16 27600 55700 (2017) 711 (2000) 24500 808 1620 3890 6180 24400 38600 40600 52000 55300
2020-05-20 00:45 11.27 28000 55700 (2017) 711 (2000) 24500 808 1620 3890 6180 24400 38600 40600 52000 55300
2020-05-19 23:45 11.26 28000 50800 (2017) 1160 (2000) 22200 1170 1300 1700 5710 20300 38700 39900 40100 49200
2020-05-19 22:45 11.42 28600 50800 (2017) 1160 (2000) 22200 1170 1300 1700 5710 20300 38700 39900 40100 49200
2020-05-19 21:45 11.48 28800 50800 (2017) 1160 (2000) 22200 1170 1300 1700 5710 20300 38700 39900 40100 49200
2020-05-19 20:45 11.52 29000 50800 (2017) 1160 (2000) 22200 1170 1300 1700 5710 20300 38700 39900 40100 49200
2020-05-19 19:45 11.52 29000 50800 (2017) 1160 (2000) 22200 1170 1300 1700 5710 20300 38700 39900 40100 49200
2020-05-19 18:45 11.50 28900 50800 (2017) 1160 (2000) 22200 1170 1300 1700 5710 20300 38700 39900 40100 49200
2020-05-19 17:45 11.53 29000 50800 (2017) 1160 (2000) 22200 1170 1300 1700 5710 20300 38700 39900 40100 49200
2020-05-19 16:45 11.46 28700 50800 (2017) 1160 (2000) 22200 1170 1300 1700 5710 20300 38700 39900 40100 49200
2020-05-19 15:45 11.38 28400 50800 (2017) 1160 (2000) 22200 1170 1300 1700 5710 20300 38700 39900 40100 49200
2020-05-19 14:45 11.33 28200 50800 (2017) 1160 (2000) 22200 1170 1300 1700 5710 20300 38700 39900 40100 49200
2020-05-19 13:45 11.32 28200 50800 (2017) 1160 (2000) 22200 1170 1300 1700 5710 20300 38700 39900 40100 49200
2020-05-19 12:45 11.32 28200 50800 (2017) 1160 (2000) 22200 1170 1300 1700 5710 20300 38700 39900 40100 49200
2020-05-19 11:45 11.28 28000 50800 (2017) 1160 (2000) 22200 1170 1300 1700 5710 20300 38700 39900 40100 49200
2020-05-19 10:45 11.36 28300 50800 (2017) 1160 (2000) 22200 1170 1300 1700 5710 20300 38700 39900 40100 49200
2020-05-19 09:45 11.38 28400 50800 (2017) 1160 (2000) 22200 1170 1300 1700 5710 20300 38700 39900 40100 49200
2020-05-19 08:45 11.39 28500 50800 (2017) 1160 (2000) 22200 1170 1300 1700 5710 20300 38700 39900 40100 49200
2020-05-19 07:45 11.38 28400 50800 (2017) 1160 (2000) 22200 1170 1300 1700 5710 20300 38700 39900 40100 49200
2020-05-19 06:45 11.34 28300 50800 (2017) 1160 (2000) 22200 1170 1300 1700 5710 20300 38700 39900 40100 49200
2020-05-19 05:45 11.30 28100 50800 (2017) 1160 (2000) 22200 1170 1300 1700 5710 20300 38700 39900 40100 49200
2020-05-19 04:45 11.21 27800 50800 (2017) 1160 (2000) 22200 1170 1300 1700 5710 20300 38700 39900 40100 49200
2020-05-19 03:45 11.14 27600 50800 (2017) 1160 (2000) 22200 1170 1300 1700 5710 20300 38700 39900 40100 49200
2020-05-19 02:45 11.08 27300 50800 (2017) 1160 (2000) 22200 1170 1300 1700 5710 20300 38700 39900 40100 49200
2020-05-19 01:45 11.03 27100 50800 (2017) 1160 (2000) 22200 1170 1300 1700 5710 20300 38700 39900 40100 49200
2020-05-19 00:45 11.02 27100 50800 (2017) 1160 (2000) 22200 1170 1300 1700 5710 20300 38700 39900 40100 49200
2020-05-18 23:45 11.08 27300 50600 (2017) 1260 (1997) 20300 1280 1420 1880 6940 17100 32000 39500 44700 49900
2020-05-18 22:45 11.18 27700 50600 (2017) 1260 (1997) 20300 1280 1420 1880 6940 17100 32000 39500 44700 49900
2020-05-18 21:45 11.30 28100 50600 (2017) 1260 (1997) 20300 1280 1420 1880 6940 17100 32000 39500 44700 49900
2020-05-18 20:45 11.35 28300 50600 (2017) 1260 (1997) 20300 1280 1420 1880 6940 17100 32000 39500 44700 49900
2020-05-18 19:45 11.50 28900 50600 (2017) 1260 (1997) 20300 1280 1420 1880 6940 17100 32000 39500 44700 49900
2020-05-18 18:45 11.61 29300 50600 (2017) 1260 (1997) 20300 1280 1420 1880 6940 17100 32000 39500 44700 49900
2020-05-18 17:45 11.68 29500 50600 (2017) 1260 (1997) 20300 1280 1420 1880 6940 17100 32000 39500 44700 49900
2020-05-18 16:45 11.76 29800 50600 (2017) 1260 (1997) 20300 1280 1420 1880 6940 17100 32000 39500 44700 49900
2020-05-18 15:45 11.82 30100 50600 (2017) 1260 (1997) 20300 1280 1420 1880 6940 17100 32000 39500 44700 49900
2020-05-18 14:45 11.88 30300 50600 (2017) 1260 (1997) 20300 1280 1420 1880 6940 17100 32000 39500 44700 49900
2020-05-18 13:45 11.95 30600 50600 (2017) 1260 (1997) 20300 1280 1420 1880 6940 17100 32000 39500 44700 49900
2020-05-18 12:45 11.96 30600 50600 (2017) 1260 (1997) 20300 1280 1420 1880 6940 17100 32000 39500 44700 49900
2020-05-18 11:45 12.07 31000 50600 (2017) 1260 (1997) 20300 1280 1420 1880 6940 17100 32000 39500 44700 49900
2020-05-18 10:45 12.15 31300 50600 (2017) 1260 (1997) 20300 1280 1420 1880 6940 17100 32000 39500 44700 49900
2020-05-18 09:45 12.19 31500 50600 (2017) 1260 (1997) 20300 1280 1420 1880 6940 17100 32000 39500 44700 49900
2020-05-18 08:45 12.23 31600 50600 (2017) 1260 (1997) 20300 1280 1420 1880 6940 17100 32000 39500 44700 49900
2020-05-18 07:45 12.29 31900 50600 (2017) 1260 (1997) 20300 1280 1420 1880 6940 17100 32000 39500 44700 49900
2020-05-18 06:45 12.28 31800 50600 (2017) 1260 (1997) 20300 1280 1420 1880 6940 17100 32000 39500 44700 49900
2020-05-18 05:45 12.23 31600 50600 (2017) 1260 (1997) 20300 1280 1420 1880 6940 17100 32000 39500 44700 49900
2020-05-18 04:45 12.04 30900 50600 (2017) 1260 (1997) 20300 1280 1420 1880 6940 17100 32000 39500 44700 49900
2020-05-18 03:45 12.07 31000 50600 (2017) 1260 (1997) 20300 1280 1420 1880 6940 17100 32000 39500 44700 49900
2020-05-18 02:45 11.93 30500 50600 (2017) 1260 (1997) 20300 1280 1420 1880 6940 17100 32000 39500 44700 49900
2020-05-18 01:45 11.92 30500 50600 (2017) 1260 (1997) 20300 1280 1420 1880 6940 17100 32000 39500 44700 49900
2020-05-18 00:45 11.91 30400 50600 (2017) 1260 (1997) 20300 1280 1420 1880 6940 17100 32000 39500 44700 49900
2020-05-17 23:45 11.90 30400 51300 (2009) 680 (2000) 20000 713 1060 1860 2920 13400 38800 40800 49600 51200
2020-05-17 22:45 11.91 30400 51300 (2009) 680 (2000) 20000 713 1060 1860 2920 13400 38800 40800 49600 51200
2020-05-17 21:45 11.97 30600 51300 (2009) 680 (2000) 20000 713 1060 1860 2920 13400 38800 40800 49600 51200
2020-05-17 20:45 12.02 30800 51300 (2009) 680 (2000) 20000 713 1060 1860 2920 13400 38800 40800 49600 51200
2020-05-17 19:45 12.03 30900 51300 (2009) 680 (2000) 20000 713 1060 1860 2920 13400 38800 40800 49600 51200
2020-05-17 18:45 12.07 31000 51300 (2009) 680 (2000) 20000 713 1060 1860 2920 13400 38800 40800 49600 51200
2020-05-17 17:45 12.09 31100 51300 (2009) 680 (2000) 20000 713 1060 1860 2920 13400 38800 40800 49600 51200
2020-05-17 16:45 12.15 31300 51300 (2009) 680 (2000) 20000 713 1060 1860 2920 13400 38800 40800 49600 51200
2020-05-17 15:45 12.20 31500 51300 (2009) 680 (2000) 20000 713 1060 1860 2920 13400 38800 40800 49600 51200
2020-05-17 14:45 12.22 31600 51300 (2009) 680 (2000) 20000 713 1060 1860 2920 13400 38800 40800 49600 51200
2020-05-17 13:45 12.26 31700 51300 (2009) 680 (2000) 20000 713 1060 1860 2920 13400 38800 40800 49600 51200
2020-05-17 12:45 12.24 31700 51300 (2009) 680 (2000) 20000 713 1060 1860 2920 13400 38800 40800 49600 51200
2020-05-17 11:45 12.20 31500 51300 (2009) 680 (2000) 20000 713 1060 1860 2920 13400 38800 40800 49600 51200
2020-05-17 10:45 12.21 31500 51300 (2009) 680 (2000) 20000 713 1060 1860 2920 13400 38800 40800 49600 51200
2020-05-17 09:45 12.12 31200 51300 (2009) 680 (2000) 20000 713 1060 1860 2920 13400 38800 40800 49600 51200
2020-05-17 08:45 12.02 30800 51300 (2009) 680 (2000) 20000 713 1060 1860 2920 13400 38800 40800 49600 51200
2020-05-17 07:45 11.97 30600 51300 (2009) 680 (2000) 20000 713 1060 1860 2920 13400 38800 40800 49600 51200
2020-05-17 06:45 11.87 30300 51300 (2009) 680 (2000) 20000 713 1060 1860 2920 13400 38800 40800 49600 51200
2020-05-17 05:45 11.79 29900 51300 (2009) 680 (2000) 20000 713 1060 1860 2920 13400 38800 40800 49600 51200
2020-05-17 04:45 11.75 29800 51300 (2009) 680 (2000) 20000 713 1060 1860 2920 13400 38800 40800 49600 51200
2020-05-17 03:45 11.69 29600 51300 (2009) 680 (2000) 20000 713 1060 1860 2920 13400 38800 40800 49600 51200
2020-05-17 02:45 11.73 29700 51300 (2009) 680 (2000) 20000 713 1060 1860 2920 13400 38800 40800 49600 51200
2020-05-17 01:45 11.74 29800 51300 (2009) 680 (2000) 20000 713 1060 1860 2920 13400 38800 40800 49600 51200
2020-05-17 00:45 11.76 29800 51300 (2009) 680 (2000) 20000 713 1060 1860 2920 13400 38800 40800 49600 51200
2020-05-16 23:45 11.69 29600 52000 (2009) 701 (2000) 19300 723 881 1400 1640 15600 38400 39400 48600 51800
2020-05-16 22:45 11.75 29800 52000 (2009) 701 (2000) 19300 723 881 1400 1640 15600 38400 39400 48600 51800
2020-05-16 21:45 11.80 30000 52000 (2009) 701 (2000) 19300 723 881 1400 1640 15600 38400 39400 48600 51800
2020-05-16 20:45 11.79 29900 52000 (2009) 701 (2000) 19300 723 881 1400 1640 15600 38400 39400 48600 51800
2020-05-16 19:45 11.80 30000 52000 (2009) 701 (2000) 19300 723 881 1400 1640 15600 38400 39400 48600 51800
2020-05-16 18:45 11.82 30100 52000 (2009) 701 (2000) 19300 723 881 1400 1640 15600 38400 39400 48600 51800
2020-05-16 17:45 11.81 30000 52000 (2009) 701 (2000) 19300 723 881 1400 1640 15600 38400 39400 48600 51800
2020-05-16 16:45 11.75 29800 52000 (2009) 701 (2000) 19300 723 881 1400 1640 15600 38400 39400 48600 51800
2020-05-16 15:45 11.75 29800 52000 (2009) 701 (2000) 19300 723 881 1400 1640 15600 38400 39400 48600 51800
2020-05-16 14:45 11.71 29600 52000 (2009) 701 (2000) 19300 723 881 1400 1640 15600 38400 39400 48600 51800
2020-05-16 13:45 11.62 29300 52000 (2009) 701 (2000) 19300 723 881 1400 1640 15600 38400 39400 48600 51800
2020-05-16 12:45 11.62 29300 52000 (2009) 701 (2000) 19300 723 881 1400 1640 15600 38400 39400 48600 51800
2020-05-16 11:45 11.58 29200 52000 (2009) 701 (2000) 19300 723 881 1400 1640 15600 38400 39400 48600 51800
2020-05-16 10:45 11.52 29000 52000 (2009) 701 (2000) 19300 723 881 1400 1640 15600 38400 39400 48600 51800
2020-05-16 09:45 11.46 28700 52000 (2009) 701 (2000) 19300 723 881 1400 1640 15600 38400 39400 48600 51800
2020-05-16 08:45 11.34 28300 52000 (2009) 701 (2000) 19300 723 881 1400 1640 15600 38400 39400 48600 51800
2020-05-16 07:45 11.31 28200 52000 (2009) 701 (2000) 19300 723 881 1400 1640 15600 38400 39400 48600 51800
2020-05-16 06:45 11.22 27900 52000 (2009) 701 (2000) 19300 723 881 1400 1640 15600 38400 39400 48600 51800
2020-05-16 05:45 11.23 27900 52000 (2009) 701 (2000) 19300 723 881 1400 1640 15600 38400 39400 48600 51800
2020-05-16 04:45 11.25 27900 52000 (2009) 701 (2000) 19300 723 881 1400 1640 15600 38400 39400 48600 51800
2020-05-16 03:45 11.25 27900 52000 (2009) 701 (2000) 19300 723 881 1400 1640 15600 38400 39400 48600 51800
2020-05-16 02:45 11.31 28200 52000 (2009) 701 (2000) 19300 723 881 1400 1640 15600 38400 39400 48600 51800
2020-05-16 01:45 11.33 28200 52000 (2009) 701 (2000) 19300 723 881 1400 1640 15600 38400 39400 48600 51800
2020-05-16 00:45 11.35 28300 52000 (2009) 701 (2000) 19300 723 881 1400 1640 15600 38400 39400 48600 51800
2020-05-15 23:45 11.32 28200 51000 (2009) 776 (2000) 19000 786 1060 1760 2180 12200 38100 40000 49200 51000
2020-05-15 22:45 11.27 28000 51000 (2009) 776 (2000) 19000 786 1060 1760 2180 12200 38100 40000 49200 51000
2020-05-15 21:45 11.18 27700 51000 (2009) 776 (2000) 19000 786 1060 1760 2180 12200 38100 40000 49200 51000
2020-05-15 20:45 11.14 27600 51000 (2009) 776 (2000) 19000 786 1060 1760 2180 12200 38100 40000 49200 51000
2020-05-15 19:45 11.08 27300 51000 (2009) 776 (2000) 19000 786 1060 1760 2180 12200 38100 40000 49200 51000
2020-05-15 18:45 11.05 27200 51000 (2009) 776 (2000) 19000 786 1060 1760 2180 12200 38100 40000 49200 51000
2020-05-15 17:45 10.97 26900 51000 (2009) 776 (2000) 19000 786 1060 1760 2180 12200 38100 40000 49200 51000
2020-05-15 16:45 10.97 26900 51000 (2009) 776 (2000) 19000 786 1060 1760 2180 12200 38100 40000 49200 51000
2020-05-15 15:45 11.00 27000 51000 (2009) 776 (2000) 19000 786 1060 1760 2180 12200 38100 40000 49200 51000
2020-05-15 14:45 10.99 27000 51000 (2009) 776 (2000) 19000 786 1060 1760 2180 12200 38100 40000 49200 51000
2020-05-15 13:45 11.02 27100 51000 (2009) 776 (2000) 19000 786 1060 1760 2180 12200 38100 40000 49200 51000
2020-05-15 12:45 11.00 27000 51000 (2009) 776 (2000) 19000 786 1060 1760 2180 12200 38100 40000 49200 51000
2020-05-15 11:45 11.08 27300 51000 (2009) 776 (2000) 19000 786 1060 1760 2180 12200 38100 40000 49200 51000
2020-05-15 10:45 11.08 27300 51000 (2009) 776 (2000) 19000 786 1060 1760 2180 12200 38100 40000 49200 51000
2020-05-15 09:45 11.18 27700 51000 (2009) 776 (2000) 19000 786 1060 1760 2180 12200 38100 40000 49200 51000
2020-05-15 08:45 11.26 28000 51000 (2009) 776 (2000) 19000 786 1060 1760 2180 12200 38100 40000 49200 51000
2020-05-15 07:45 11.23 27900 51000 (2009) 776 (2000) 19000 786 1060 1760 2180 12200 38100 40000 49200 51000
2020-05-15 06:45 11.33 28200 51000 (2009) 776 (2000) 19000 786 1060 1760 2180 12200 38100 40000 49200 51000
2020-05-15 05:45 11.35 28300 51000 (2009) 776 (2000) 19000 786 1060 1760 2180 12200 38100 40000 49200 51000
2020-05-15 04:45 11.18 27700 51000 (2009) 776 (2000) 19000 786 1060 1760 2180 12200 38100 40000 49200 51000
2020-05-15 03:45 11.26 28000 51000 (2009) 776 (2000) 19000 786 1060 1760 2180 12200 38100 40000 49200 51000
2020-05-15 02:45 11.16 27600 51000 (2009) 776 (2000) 19000 786 1060 1760 2180 12200 38100 40000 49200 51000
2020-05-15 01:45 11.05 27200 51000 (2009) 776 (2000) 19000 786 1060 1760 2180 12200 38100 40000 49200 51000
2020-05-15 00:45 11.01 27100 51000 (2009) 776 (2000) 19000 786 1060 1760 2180 12200 38100 40000 49200 51000
2020-05-14 23:45 10.88 26600 51000 (2009) 888 (1997) 20900 948 1420 2030 2500 16500 34900 38400 50400 51000
2020-05-14 22:45 10.75 26200 51000 (2009) 888 (1997) 20900 948 1420 2030 2500 16500 34900 38400 50400 51000
2020-05-14 21:45 10.63 25700 51000 (2009) 888 (1997) 20900 948 1420 2030 2500 16500 34900 38400 50400 51000
2020-05-14 20:45 10.53 25400 51000 (2009) 888 (1997) 20900 948 1420 2030 2500 16500 34900 38400 50400 51000
2020-05-14 19:45 10.39 24900 51000 (2009) 888 (1997) 20900 948 1420 2030 2500 16500 34900 38400 50400 51000
2020-05-14 18:45 10.28 24500 51000 (2009) 888 (1997) 20900 948 1420 2030 2500 16500 34900 38400 50400 51000
2020-05-14 17:45<